GFSSGP_con_mucape_000.txt.gz
CAPE
0 0 0 0 0 0 0 0 0 23 2 5 7 3 0 0 0 0 5 68 66 80 242 535 939 544 213 24 11 3 0 0 0 18 14 33 36 16 11 9 13 14 16 4 5 6 8 18 29
0 0 0 0 0 0 0 0 14 10 12 18 4 0 4 6 8 33 30 105 142 215 361 431 1166 448 107 13 1 0 0 0 0 11 41 42 33 29 21 12 0 12 6 2 0 2 1 2 2
0 0 0 0 0 0 0 4 17 11 21 19 13 0 3 13 11 20 23 176 189 308 416 627 1233 596 94 0 7 0 0 0 4 25 47 47 37 32 13 0 0 0 0 0 2 0 0 1 1
0 0 0 0 0 0 0 0 21 12 18 14 5 0 9 16 12 26 22 172 200 257 496 945 1242 852 492 5 0 0 0 0 5 43 69 48 41 30 4 0 0 0 0 0 0 0 0 0 1
0 0 0 0 0 0 0 0 0 0 0 0 0 0 5 18 19 15 2 82 164 191 432 943 1356 964 559 44 8 3 0 5 0 15 44 51 37 15 4 0 0 0 0 0 0 0 0 0 1
0 0 0 0 0 0 0 0 0 9 0 0 0 0 2 18 16 1 0 49 104 138 376 781 1167 1053 695 229 30 4 0 2 4 29 29 24 15 4 0 0 0 0 1 0 0 0 0 0 2
0 0 0 0 0 0 0 0 0 0 0 0 0 0 0 6 6 0 2 0 82 266 509 717 798 729 567 311 173 10 6 19 30 11 19 10 10 0 0 0 11 11 12 0 0 0 0 0 3
0 0 0 0 0 0 0 0 0 0 6 1 0 0 0 0 0 0 0 0 46 214 377 548 533 211 49 16 157 10 8 10 25 26 19 8 0 3 0 8 8 6 13 0 0 0 0 0 1
0 0 0 0 0 0 0 0 0 0 0 0 0 0 0 0 0 0 0 0 0 150 193 323 233 0 0 0 0 0 0 1 9 16 11 0 0 0 0 0 3 15 1 0 0 0 0 0 0
0 0 0 0 0 0 0 0 0 0 0 0 0 0 0 0 0 0 0 0 0 42 113 104 12 0 0 0 0 0 0 0 0 0 0 0 0 0 0 0 0 0 0 0 0 0 0 0 0
0 0 0 0 0 0 0 0 0 0 0 0 0 0 0 0 0 0 0 0 0 0 0 3 0 0 0 0 0 0 0 0 0 0 0 0 0 0 0 0 0 0 0 0 0 0 0 0 0
0 0 0 0 0 0 0 0 0 0 0 0 0 0 0 0 0 0 0 0 0 0 0 0 0 0 0 0 0 0 0 0 0 0 0 0 0 0 0 0 0 0 0 0 0 0 0 0 0
0 0 0 0 0 0 0 0 0 0 0 0 0 0 0 0 0 0 0 0 0 0 0 0 0 0 0 0 0 0 0 0 0 0 0 0 0 0 0 0 0 0 0 0 0 0 0 0 0
0 0 0 0 0 0 0 0 0 0 0 0 0 0 0 0 0 0 0 0 0 0 0 0 0 0 0 0 0 0 0 0 0 0 0 0 0 0 0 0 0 0 0 0 0 0 0 0 0
0 0 0 0 0 0 0 0 0 0 0 0 0 0 0 0 0 0 0 0 0 0 0 0 0 0 0 0 0 0 0 0 0 0 0 0 0 0 0 0 0 0 0 0 0 0 0 0 0
0 0 0 0 0 0 0 0 0 0 0 0 0 0 0 0 0 0 0 0 0 0 0 0 0 0 0 0 0 0 0 0 0 0 0 0 0 0 0 0 0 0 0 0 0 0 0 0 0
5 0 0 0 0 0 0 0 0 0 0 0 0 0 0 0 0 0 0 0 0 0 0 0 0 0 0 0 0 0 0 0 0 0 0 0 0 0 0 0 0 0 0 0 0 0 0 0 0
1 0 0 0 0 0 0 0 0 0 0 0 0 0 0 0 0 0 0 0 0 0 0 0 0 0 0 0 0 0 0 0 0 0 0 0 0 2 1 0 4 3 2 0 0 0 0 0 0
3 0 0 0 0 0 0 0 0 0 0 0 0 0 0 0 0 0 0 0 0 0 0 0 0 0 0 0 0 0 0 0 0 0 0 0 0 0 5 6 5 11 11 11 4 3 0 0 0
3 0 0 0 0 0 0 0 0 0 0 0 0 0 0 0 0 0 0 0 0 0 0 0 0 0 0 0 0 0 0 0 0 1 5 0 0 0 0 0 0 0 4 4 0 0 0 3 3
2 0 0 0 0 0 0 0 0 0 0 0 0 0 0 0 0 0 0 0 0 0 0 0 0 0 0 0 0 0 0 0 0 0 0 0 0 0 0 0 0 0 0 0 1 2 5 8 5
0 0 0 0 0 0 0 0 0 0 0 0 0 0 0 0 0 0 0 0 0 0 0 0 0 0 0 0 0 0 0 0 0 0 0 0 0 0 0 0 0 0 1 4 12 23 23 28 15
0 0 0 0 0 0 0 0 0 0 0 0 0 0 0 0 0 0 0 0 0 0 0 0 0 0 0 0 0 0 0 0 0 0 0 0 0 0 0 0 0 0 5 17 32 41 56 62 37
0 0 0 0 0 0 0 0 0 0 0 0 0 0 0 0 0 0 0 0 0 0 0 0 0 0 0 0 0 0 0 0 0 0 0 0 0 0 0 0 0 0 0 14 31 56 76 112 108
0 0 0 0 0 0 0 0 0 0 0 0 0 0 0 0 0 0 0 0 0 0 0 0 0 0 0 0 0 0 0 0 0 0 0 0 0 0 0 0 0 0 0 0 0 12 82 140 150
0 0 0 0 0 0 0 0 0 0 0 0 0 0 0 0 0 0 0 0 0 0 0 0 0 0 0 0 0 0 0 0 0 0 0 0 0 0 0 0 0 0 0 0 0 0 0 3 15
0 0 0 0 0 0 0 0 0 0 0 0 0 0 0 0 0 0 0 0 0 0 0 0 0 0 0 0 0 0 0 0 0 0 0 0 0 0 0 0 0 0 0 0 0 0 0 0 0
0 0 0 0 0 0 0 0 0 0 0 0 0 0 0 0 0 0 0 0 0 0 0 0 0 0 0 0 0 0 0 0 0 0 0 0 0 0 0 0 0 0 0 0 0 0 0 0 0
0 0 0 0 0 0 0 0 0 0 0 0 0 0 0 0 0 0 0 0 0 0 0 0 0 0 0 0 0 0 0 0 0 0 0 0 0 0 0 0 0 0 0 0 0 0 0 0 0
0 0 0 0 0 0 0 0 0 0 0 0 0 0 0 0 0 0 0 0 0 0 0 0 0 0 0 0 0 0 0 0 0 0 0 0 0 0 0 0 0 0 0 0 0 0 0 0 0

GFSSGP_con_mucape_003.txt.gz
CAPE
12 0 0 0 0 0 0 0 0 54 24 15 7 7 1 0 0 0 0 31 48 63 137 378 744 641 440 218 44 9 6 0 0 17 3 33 28 25 22 22 15 20 10 2 4 9 2 32 31
0 0 0 0 0 0 0 0 0 14 24 20 23 8 1 0 0 2 11 46 90 125 285 352 878 793 563 264 37 12 3 0 0 10 24 42 34 21 20 3 3 6 5 1 7 5 1 3 20
0 0 0 0 0 0 0 0 0 1 17 28 13 2 0 0 0 11 11 63 109 224 325 413 1014 742 413 209 31 5 1 2 1 5 29 54 36 22 31 12 0 0 4 1 0 0 0 0 4
0 0 0 0 0 0 0 0 0 18 27 17 0 0 0 0 0 14 16 123 174 271 340 500 1245 770 488 148 49 3 1 1 0 20 30 76 39 23 20 0 0 0 0 0 0 0 0 0 0
0 0 0 0 0 0 0 0 0 8 11 3 0 0 1 0 10 9 42 133 160 229 315 729 1190 920 449 163 32 3 0 0 0 22 45 55 39 26 7 0 0 0 0 0 0 0 1 1 3
0 0 0 0 0 0 0 0 0 7 2 0 0 0 0 8 14 11 16 107 131 141 307 816 1122 1151 840 359 59 4 0 0 0 2 34 36 56 29 4 7 0 4 7 1 0 0 0 2 3
0 0 0 0 0 0 0 0 0 4 2 0 0 0 0 0 0 1 8 35 107 104 278 699 935 901 877 580 392 270 6 15 18 24 6 27 26 12 7 7 0 6 9 14 7 0 0 0 1
0 0 0 0 0 0 0 0 0 0 0 0 0 0 0 0 0 0 0 0 30 84 258 516 772 808 613 300 444 302 49 20 29 29 19 13 6 20 11 24 0 2 8 12 7 0 0 0 0
0 0 0 0 0 0 0 0 0 0 0 0 0 0 0 0 0 0 0 0 0 88 233 358 507 508 494 139 99 192 40 0 0 7 4 5 0 0 0 0 0 0 3 15 14 2 0 0 0
0 0 0 0 0 0 0 0 0 0 0 0 0 0 0 0 0 0 0 0 0 26 161 287 288 247 129 8 0 0 0 0 0 0 0 0 0 0 0 0 0 0 0 13 3 1 2 3 0
0 0 0 0 0 0 0 0 0 0 0 0 0 0 0 0 0 0 0 0 0 0 32 90 141 110 1 0 0 0 0 0 0 0 0 0 0 0 0 0 0 0 0 0 0 0 0 0 0
0 0 0 0 0 0 0 0 0 0 0 0 0 0 0 0 0 0 0 0 0 0 0 16 43 3 0 0 0 0 0 0 0 0 0 0 0 0 0 0 0 0 0 0 0 0 0 0 0
0 0 0 0 0 0 0 0 0 0 0 0 0 0 0 0 0 0 0 0 0 0 0 0 0 0 0 0 0 0 0 0 0 0 0 0 0 0 0 0 0 0 0 0 0 0 0 0 0
0 0 0 0 0 0 0 0 0 0 0 0 0 0 0 0 0 0 0 0 0 0 0 0 0 0 0 0 0 0 0 0 0 0 0 0 0 0 0 0 0 0 0 0 0 0 0 0 0
0 0 0 0 0 0 0 0 0 0 0 0 0 0 0 0 0 0 0 0 0 0 0 0 0 0 0 0 0 0 0 0 0 0 0 0 0 0 0 0 0 0 0 0 0 0 0 0 0
3 6 0 0 0 0 0 0 0 0 0 0 0 0 0 0 0 0 0 0 0 0 0 0 0 0 0 0 0 0 0 0 0 0 0 0 0 0 0 0 0 0 0 0 0 0 0 0 0
18 0 0 0 0 0 0 0 0 0 0 0 0 0 0 0 0 0 0 0 0 0 0 0 0 0 0 0 0 0 0 0 0 0 0 0 0 0 0 0 0 0 0 0 2 1 0 0 0
0 0 0 0 0 0 0 0 0 0 0 0 0 0 0 0 0 0 0 0 0 0 0 0 0 0 0 0 0 0 0 0 0 0 0 0 0 0 0 0 0 0 0 0 0 0 0 0 0
2 0 0 0 0 0 0 0 0 0 0 0 0 0 0 0 0 0 0 0 0 0 0 0 0 0 0 0 0 0 0 0 0 0 0 0 0 0 0 3 3 4 3 0 1 0 1 1 3
15 0 0 0 0 0 0 0 0 0 0 0 0 0 0 0 0 0 0 0 0 0 0 0 0 0 0 0 0 0 0 0 0 0 0 0 0 0 0 2 2 1 1 0 0 2 10 17 18
15 1 0 0 0 0 0 0 0 0 0 0 0 0 0 0 0 0 0 0 0 0 0 0 0 0 0 0 0 0 0 0 0 0 0 0 0 0 0 0 0 0 0 0 0 2 13 25 28
9 10 6 0 0 0 0 0 0 0 0 0 0 0 0 0 0 0 0 0 0 0 0 0 0 0 0 0 0 0 0 0 0 0 0 0 0 0 0 0 0 0 0 0 0 0 11 25 24
11 19 0 0 0 0 0 0 0 0 0 0 0 0 0 0 0 0 0 0 0 0 0 0 0 0 0 0 0 0 0 0 0 0 0 0 0 0 0 0 0 0 0 0 0 0 19 56 54
16 0 0 0 0 0 0 0 0 0 0 0 0 0 0 0 0 0 0 0 0 0 0 0 0 0 0 0 0 0 0 0 0 0 0 0 0 0 0 0 0 0 0 0 0 0 0 0 20
0 0 0 0 0 0 0 0 0 0 0 0 0 0 0 0 0 0 0 0 0 0 0 0 0 0 0 0 0 0 0 0 0 0 0 0 0 0 0 0 0 0 0 0 0 0 0 0 0
0 0 0 0 0 0 0 0 0 0 0 0 0 0 0 0 0 0 0 0 0 0 0 0 0 0 0 0 0 0 0 0 0 0 0 0 0 0 0 0 0 0 0 0 0 0 0 0 0
0 0 0 0 0 0 0 0 0 0 0 0 0 0 0 0 0 0 0 0 0 0 0 0 0 0 0 0 0 0 0 0 0 0 0 0 0 0 0 0 0 0 0 0 0 0 0 0 0
0 0 0 0 0 0 0 0 0 0 0 0 0 0 0 0 0 0 0 0 0 0 0 0 0 0 0 0 0 0 0 0 0 0 0 0 0 0 0 0 0 0 0 0 0 0 0 0 0
0 0 0 0 0 0 0 0 0 0 0 0 0 0 0 0 0 0 0 0 0 0 0 0 0 0 0 0 0 0 0 0 0 0 0 0 0 0 0 0 0 0 0 0 0 0 0 0 0
0 0 0 0 0 0 0 0 0 0 0 0 0 0 0 0 0 0 0 0 0 0 0 0 0 0 0 0 0 0 0 0 0 0 0 0 0 0 0 0 0 0 0 0 0 0 0 0 0

GFSSGP_con_mucape_006.txt.gz
CAPE
3 0 0 0 0 0 0 0 0 33 34 28 16 10 6 0 0 0 0 4 9 30 64 321 762 497 417 190 155 17 4 0 0 3 6 19 20 12 13 22 17 5 3 2 13 4 13 3 21
0 0 0 0 0 0 0 0 0 3 20 10 17 16 7 0 0 0 0 13 36 47 86 302 709 589 534 398 247 43 12 0 0 3 2 44 31 15 11 2 2 3 4 0 6 11 2 1 13
0 0 0 0 0 0 0 0 0 0 6 9 16 7 1 0 1 0 0 24 65 90 174 279 557 666 689 444 249 74 9 6 4 0 0 46 21 19 19 10 3 2 6 0 0 0 0 0 4
0 0 0 0 0 0 0 0 0 0 0 16 0 0 0 0 2 7 2 39 85 137 230 298 772 834 636 418 236 93 3 6 3 3 14 64 34 16 29 4 0 1 0 0 0 0 0 1 0
0 0 0 0 0 0 0 0 0 0 0 17 0 0 0 1 9 18 39 82 101 161 221 282 751 877 575 437 259 117 7 4 0 8 25 39 66 22 27 8 0 0 1 1 1 0 1 4 4
0 0 0 0 0 0 0 0 0 0 5 16 0 0 0 0 7 8 54 111 117 159 217 306 949 1014 833 468 264 142 0 0 0 0 10 43 55 42 17 1 0 0 4 10 12 9 3 1 6
0 0 0 0 0 0 0 0 0 0 13 23 0 0 0 0 0 0 28 85 116 128 202 370 781 802 833 634 486 311 28 31 0 0 29 5 26 24 5 9 13 2 9 8 21 29 22 8 4
0 0 0 0 0 0 0 0 0 0 6 13 0 0 0 0 0 0 0 21 82 118 152 332 632 674 593 458 498 440 332 99 55 37 31 9 9 5 9 21 19 2 9 10 14 24 20 10 1
0 0 0 0 0 0 0 0 0 0 0 0 0 0 0 0 0 0 0 0 21 60 121 213 409 622 577 470 230 349 231 67 31 18 6 6 0 0 0 0 0 0 0 11 9 12 22 23 8
0 0 0 0 0 0 0 0 0 0 0 0 0 7 0 0 0 0 0 0 0 9 91 158 270 385 464 425 228 109 20 0 0 0 0 0 0 0 0 0 0 5 14 15 10 17 33 23 0
0 0 0 0 0 0 0 0 0 0 0 0 0 2 1 0 0 0 0 0 0 0 16 117 172 225 226 201 110 2 0 0 0 0 0 0 0 0 0 0 0 0 0 0 0 0 0 0 0
0 0 0 0 0 0 0 0 0 0 0 0 0 0 0 0 0 0 0 1 0 0 0 13 82 162 114 54 2 0 0 0 0 0 0 0 0 0 0 0 0 0 0 0 0 0 0 0 0
0 0 0 0 0 0 0 0 0 0 0 0 0 0 0 0 0 0 0 0 0 0 0 0 1 40 45 8 0 0 0 0 0 0 0 0 0 0 0 0 0 0 0 0 0 0 0 0 0
0 0 0 0 0 0 0 0 0 0 0 0 0 0 0 0 0 0 0 0 0 0 0 0 0 0 2 0 0 0 0 0 0 0 0 0 0 0 0 0 0 0 0 0 0 0 0 0 0
9 0 0 0 0 0 0 0 0 0 0 0 0 0 0 0 0 0 0 0 0 0 0 0 0 0 0 0 0 0 0 0 0 0 0 0 0 0 0 0 0 0 0 0 0 0 0 0 0
21 10 0 0 0 0 0 0 0 0 0 0 0 0 0 0 0 0 0 0 0 0 0 0 0 0 0 0 0 0 0 0 0 0 0 0 0 0 0 0 0 0 0 0 0 0 0 0 0
20 0 0 0 0 0 0 0 0 0 0 0 0 0 0 0 0 0 0 0 0 0 0 0 0 0 0 0 0 0 0 0 0 0 0 0 0 0 0 0 0 0 0 0 2 3 11 10 6
0 0 0 0 0 0 0 0 0 0 0 0 0 0 0 0 0 0 0 0 0 0 0 0 0 0 0 0 0 0 0 0 0 0 0 0 0 0 0 0 0 2 1 0 0 1 3 8 3
15 0 0 0 0 0 0 0 0 0 0 0 0 0 0 0 0 0 0 0 0 0 0 0 0 0 0 0 0 0 0 0 0 0 0 0 0 0 0 0 0 0 0 0 0 0 0 0 0
26 21 1 0 0 0 0 0 0 0 0 0 0 0 0 0 0 0 0 0 0 0 0 0 0 0 0 0 0 0 0 0 0 0 0 0 0 0 0 0 0 0 0 0 0 0 0 0 2
1 12 0 0 0 0 0 0 0 0 0 0 0 0 0 0 0 0 0 0 0 0 0 0 0 0 0 0 0 0 0 0 0 0 0 0 0 0 0 0 0 0 0 0 0 1 7 13 4
7 1 14 12 6 0 0 0 0 0 0 0 0 0 0 0 0 0 0 0 0 0 0 0 0 0 0 0 0 0 0 0 0 0 0 0 0 0 0 0 0 0 0 0 0 0 0 2 8
0 4 33 28 7 0 0 0 0 0 0 0 0 0 0 0 0 0 0 0 0 0 0 0 0 0 0 0 0 0 0 0 0 0 0 0 0 0 0 0 0 0 0 0 0 0 0 0 0
0 20 8 20 1 0 0 0 0 0 0 0 0 0 0 0 0 0 0 0 0 0 0 0 0 0 0 0 0 0 0 0 0 0 0 0 0 0 0 0 0 0 0 0 0 0 0 0 0
14 5 4 0 0 0 0 0 0 0 0 0 0 0 0 0 0 0 0 0 0 0 0 0 0 0 0 0 0 0 0 0 0 0 0 0 0 0 0 0 0 0 0 0 0 0 0 0 0
38 0 0 0 0 0 0 0 0 0 0 0 0 0 0 0 0 0 0 0 0 0 0 0 0 0 0 0 0 0 0 0 0 0 0 0 0 0 0 0 0 0 0 0 0 0 0 0 0
6 0 0 0 0 0 0 0 0 0 0 0 0 0 0 0 0 0 0 0 0 0 0 0 0 0 0 0 0 0 0 0 0 0 0 0 0 0 0 0 0 0 0 0 0 0 0 0 0
0 0 0 0 0 0 0 0 0 0 0 0 0 0 0 0 0 0 0 0 0 0 0 0 0 0 0 0 0 0 0 0 0 0 0 0 0 0 0 0 0 0 0 0 0 0 0 0 0
0 0 0 0 0 0 0 0 0 0 0 0 0 0 0 0 0 0 0 0 0 0 0 0 0 0 0 0 0 0 0 0 0 0 0 0 0 0 0 0 0 0 0 0 0 0 0 0 0
0 0 0 0 0 0 0 0 0 0 0 0 0 0 0 0 0 0 0 0 0 0 0 0 0 0 0 0 0 0 0 0 0 0 0 0 0 0 0 0 0 0 0 0 0 0 0 0 0

GFSSGP_con_mucape_009.txt.gz
CAPE
0 0 0 0 0 0 0 0 0 0 8 24 13 0 0 0 0 0 0 0 0 23 34 301 778 538 573 294 154 30 13 0 0 0 7 2 7 3 4 8 5 4 3 1 3 3 13 3 12
0 0 0 0 0 0 0 0 0 0 0 11 6 0 0 0 0 0 0 0 2 32 77 270 866 520 524 272 252 116 26 0 0 3 5 10 22 8 5 2 1 1 2 0 1 14 9 2 12
0 0 0 0 0 0 0 0 0 0 0 9 9 4 0 0 0 0 0 8 42 45 109 267 542 652 587 438 366 183 49 26 0 0 17 38 37 0 2 3 0 0 0 0 0 1 1 0 0
0 0 0 0 0 0 0 0 0 0 0 0 9 16 2 2 4 5 0 16 72 92 156 294 633 686 901 474 289 154 98 12 4 0 0 24 47 12 8 0 0 0 0 0 0 0 1 0 5
0 0 0 0 0 0 0 0 0 0 0 0 22 10 7 8 0 2 28 38 95 145 209 257 473 817 611 405 302 132 96 19 3 0 21 27 76 39 11 5 0 0 0 2 5 4 1 2 11
0 0 0 0 0 0 0 0 0 0 0 0 4 0 2 5 4 0 38 82 90 171 231 250 544 1065 897 554 359 227 98 2 1 0 19 28 57 68 31 5 0 0 1 8 8 14 15 8 7
0 0 0 0 0 0 0 0 0 0 0 0 1 0 0 0 0 0 32 69 108 148 228 279 379 832 812 688 526 431 210 104 60 16 19 50 11 25 12 4 13 24 20 12 13 38 32 21 11
0 0 0 0 0 0 0 0 0 0 0 0 12 11 6 0 0 0 0 29 82 113 208 299 404 756 752 553 481 448 394 241 138 56 33 26 6 0 7 18 25 29 18 16 13 23 42 24 21
0 0 0 0 0 0 0 0 0 0 0 2 10 8 2 0 0 0 0 0 17 66 114 243 378 617 620 527 357 382 299 189 33 20 10 2 1 0 0 0 0 4 8 4 16 15 23 38 34
0 0 0 0 0 0 0 0 0 0 0 0 0 0 4 11 5 1 0 0 0 7 84 166 278 423 520 415 401 343 225 147 5 0 0 0 0 0 0 0 0 0 0 0 0 2 3 14 5
0 0 0 0 0 0 0 0 0 0 0 0 0 0 5 0 4 0 0 0 0 0 5 114 196 270 335 372 295 232 136 40 0 0 0 0 0 0 0 0 0 0 0 0 0 0 0 0 0
0 0 0 0 0 0 0 0 0 0 0 0 0 0 0 0 0 0 0 0 0 0 0 4 122 175 180 210 181 110 56 0 0 0 0 0 0 0 0 0 0 0 0 0 0 0 0 0 0
0 0 0 0 0 0 0 0 0 0 0 0 0 0 0 0 0 0 0 0 0 0 0 0 4 99 122 185 112 45 0 0 0 0 0 0 0 0 0 0 0 0 0 0 0 0 0 0 0
0 0 0 0 0 0 0 0 0 0 0 0 0 0 0 0 0 0 0 0 0 0 0 0 0 1 40 53 53 22 0 0 0 0 0 0 0 0 0 0 0 0 0 0 0 0 0 0 0
0 0 0 0 0 0 0 0 0 0 0 0 0 0 0 0 0 0 0 0 0 0 0 0 0 0 0 7 2 1 0 0 0 0 0 0 0 0 0 0 0 0 0 0 0 0 0 0 0
17 19 0 0 0 0 0 0 0 0 0 0 0 0 0 0 0 0 0 0 0 0 0 0 0 0 0 0 0 0 0 0 0 0 0 0 0 0 0 0 0 0 0 0 0 0 0 0 1
11 0 0 0 0 0 0 0 0 0 0 0 0 0 0 0 0 0 0 0 0 0 0 0 0 0 0 0 0 0 0 0 0 0 0 0 0 0 0 0 0 0 0 0 0 0 0 0 0
7 0 0 0 0 0 0 0 0 0 0 0 0 0 0 0 0 0 0 0 0 0 0 0 0 0 0 0 0 0 0 0 0 0 0 0 0 0 0 0 0 0 0 0 0 0 0 0 0
2 0 0 0 0 0 0 0 0 0 0 0 0 0 0 0 0 0 0 0 0 0 0 0 0 0 0 0 0 0 0 0 0 0 0 0 0 0 0 0 0 0 0 0 0 2 4 3 13
0 0 0 0 0 0 0 0 0 0 0 0 0 0 0 0 0 0 0 0 0 0 0 0 0 0 0 0 0 0 0 0 0 0 0 0 0 0 0 0 0 0 0 0 0 0 0 0 0
0 0 1 0 1 0 0 0 0 0 0 0 0 0 0 0 0 0 0 0 0 0 0 0 0 0 0 0 0 0 0 0 0 0 0 0 0 0 0 0 0 0 0 0 0 0 0 0 0
0 0 0 2 1 0 0 0 0 0 0 0 0 0 0 0 0 0 0 0 0 0 0 0 0 0 0 0 0 0 0 0 0 0 0 0 0 0 0 0 0 0 0 0 0 0 0 0 0
0 2 1 10 11 8 0 0 0 0 0 0 0 0 0 0 0 0 0 0 0 0 0 0 0 0 0 0 0 0 0 0 0 0 0 0 0 0 0 0 0 0 0 0 0 0 0 0 0
0 5 0 8 20 0 0 0 0 0 0 0 0 0 0 0 0 0 0 0 0 0 0 0 0 0 0 0 0 0 0 0 0 0 0 0 0 0 0 0 0 0 0 0 0 0 0 0 0
2 0 0 0 0 0 0 0 0 0 0 0 0 0 0 0 0 0 0 0 0 0 0 0 0 0 0 0 0 0 0 0 0 0 0 0 0 0 0 0 0 0 0 0 0 0 0 0 0
36 0 0 0 0 0 0 0 0 0 0 0 0 0 0 0 0 0 0 0 0 0 0 0 0 0 0 0 0 0 0 0 0 0 0 0 0 0 0 0 0 0 0 0 0 0 0 0 0
19 0 0 0 0 0 0 0 0 0 0 0 0 0 0 0 0 0 0 0 0 0 0 0 0 0 0 0 0 0 0 0 0 0 0 0 0 0 0 0 0 0 0 0 0 0 0 0 0
0 0 7 0 0 0 0 0 0 0 0 0 0 0 0 0 0 0 0 0 0 0 0 0 0 0 0 0 0 0 0 0 0 0 0 0 0 0 0 0 0 0 0 0 0 0 0 0 0
0 3 0 0 0 0 0 0 0 0 0 0 0 0 0 0 0 0 0 0 0 0 0 0 0 0 0 0 0 0 0 0 0 0 0 0 0 0 0 0 0 0 0 0 0 0 0 0 0
0 0 0 0 0 0 0 0 0 0 0 0 0 0 0 0 0 0 0 0 0 0 0 0 0 0 0 0 0 0 0 0 0 0 0 0 0 0 0 0 0 0 0 0 0 0 0 0 0

GFSSGP_con_mucape_012.txt.gz
CAPE
2 0 0 0 0 0 0 0 0 0 0 0 0 0 0 0 0 0 0 38 7 22 16 543 933 662 381 411 147 67 17 0 0 0 4 0 1 0 5 1 3 5 2 0 0 2 25 10 4
0 0 0 0 0 0 0 0 0 0 0 0 0 0 0 0 0 0 0 23 22 30 34 135 721 620 709 361 228 94 39 6 0 0 9 10 19 10 0 0 0 0 0 0 0 5 12 9 8
0 0 0 0 0 0 0 0 0 0 0 2 0 0 0 0 0 0 3 37 46 48 74 163 1022 642 660 316 286 190 90 31 0 0 13 25 39 6 8 1 0 0 0 0 0 0 2 0 0
0 0 0 0 0 0 0 0 0 0 0 0 0 7 5 4 0 1 13 47 60 63 101 306 901 690 807 625 367 220 130 65 30 1 0 13 66 31 14 1 0 0 0 0 0 0 0 1 1
0 0 0 0 0 0 0 0 0 0 0 0 0 0 5 8 5 0 46 67 65 83 108 107 524 671 649 533 301 192 150 45 16 0 7 33 36 154 20 4 0 0 0 3 8 10 8 2 0
0 0 0 0 0 0 0 0 0 0 0 0 0 0 0 3 9 16 95 86 74 115 133 80 343 765 879 589 386 155 171 73 23 0 20 23 43 92 92 13 3 2 11 12 7 25 23 21 16
0 0 0 0 0 0 0 0 0 0 0 0 0 4 0 0 3 36 117 90 112 125 162 116 140 494 889 795 651 406 245 125 65 0 0 61 28 19 23 15 12 33 33 15 12 28 36 41 35
0 0 0 0 0 0 0 0 0 0 0 0 0 15 4 0 0 4 66 96 130 174 214 206 203 430 568 541 477 491 408 299 245 181 73 18 0 0 0 3 11 10 18 4 0 7 18 27 30
0 0 0 0 0 0 0 0 0 0 0 0 0 1 1 0 0 0 5 37 95 151 250 319 275 381 510 462 373 381 313 232 141 57 4 0 0 4 0 0 0 0 0 0 0 0 3 19 14
0 0 0 0 0 0 0 0 0 0 0 0 0 3 4 0 1 0 1 0 13 80 171 274 380 395 507 410 410 356 262 217 131 21 3 0 0 1 0 0 0 0 0 0 0 0 0 1 1
0 0 0 0 0 0 0 0 0 0 0 0 0 0 1 0 0 0 0 0 0 3 46 150 343 417 472 509 454 367 306 235 134 40 3 0 0 0 0 0 0 0 0 0 0 0 0 0 0
0 0 0 0 0 0 0 0 0 0 0 0 0 0 0 0 0 0 0 0 0 0 0 24 166 352 452 483 475 364 318 247 163 45 0 0 0 0 0 0 0 0 0 0 0 0 0 0 1
0 0 0 0 0 0 0 0 0 0 0 0 0 0 0 0 0 0 0 0 0 3 14 14 26 182 352 429 412 376 272 172 90 35 0 0 0 0 0 0 0 0 0 0 0 0 1 1 1
2 1 0 0 0 0 0 0 0 0 0 0 0 0 0 0 0 0 0 0 0 0 0 0 4 21 152 308 366 326 266 142 55 6 0 0 0 0 0 0 0 0 0 0 0 0 0 0 0
39 15 7 0 0 0 0 0 0 0 0 0 0 0 0 0 0 0 0 0 0 0 0 0 0 0 47 171 259 267 212 56 40 2 0 0 0 0 0 0 0 1 1 0 0 0 2 6 7
64 61 57 0 1 0 0 0 0 0 0 0 0 0 0 0 0 0 0 0 0 0 0 0 0 0 0 71 107 86 35 21 4 0 0 0 0 0 0 0 2 2 0 0 5 10 8 9 12
100 46 34 11 1 0 0 0 0 0 0 0 0 0 0 0 0 0 0 0 0 0 0 0 0 0 0 2 5 0 0 0 0 0 0 0 0 0 0 0 2 0 0 0 2 2 4 5 7
16 37 15 22 0 0 0 0 0 0 0 0 0 0 0 0 0 0 0 0 0 0 0 0 0 0 0 0 4 0 1 2 1 1 0 0 0 0 0 0 0 0 0 0 0 0 0 0 2
0 0 18 7 0 0 0 0 0 0 0 0 0 0 0 0 0 0 0 0 0 0 0 0 0 0 3 34 30 0 0 0 0 0 0 0 0 0 0 0 0 0 0 0 0 0 0 0 0
26 0 3 10 0 0 0 0 0 0 0 0 0 0 0 0 0 0 0 0 0 0 0 0 0 0 1 6 0 0 0 0 0 0 0 0 0 0 0 0 0 0 0 0 0 0 0 0 0
0 0 1 5 0 3 0 0 0 0 0 0 0 0 0 0 0 0 0 0 0 0 0 0 0 0 0 0 0 0 0 0 0 0 0 0 0 0 0 0 0 0 0 0 0 0 0 0 0
4 10 1 5 31 28 0 0 0 0 0 0 0 0 0 0 0 0 0 0 0 0 0 0 0 0 0 0 0 0 0 0 0 0 0 0 0 0 0 0 0 0 0 0 0 0 0 0 0
11 22 13 25 9 0 2 0 0 0 0 0 0 0 0 0 0 0 0 0 0 0 0 0 0 0 0 0 0 0 0 0 0 0 0 0 0 0 0 0 0 0 0 0 0 0 0 0 0
23 1 0 3 0 0 1 0 0 0 0 0 0 0 0 0 0 0 0 0 0 0 0 0 0 0 0 0 0 0 0 0 0 0 0 0 0 0 0 0 0 0 0 0 0 0 0 0 0
31 12 32 0 0 1 0 0 0 0 0 0 0 0 0 0 0 0 0 0 0 0 0 0 0 0 0 0 0 0 0 0 0 0 0 0 0 0 0 0 0 0 0 0 0 0 0 0 0
0 32 13 0 0 0 0 0 0 0 0 0 0 0 0 0 0 0 0 0 0 0 0 0 0 0 0 0 0 0 0 0 0 0 0 0 0 0 0 0 0 0 0 0 0 0 0 0 0
7 0 0 0 0 0 0 0 0 0 0 0 0 0 0 0 0 0 0 0 0 0 0 0 0 0 0 0 0 0 0 0 0 0 0 0 0 0 0 0 0 0 0 0 0 0 0 0 0
4 1 0 0 0 0 0 0 0 0 0 0 0 0 0 0 0 0 0 0 0 0 0 0 0 0 0 0 0 0 0 0 0 0 0 0 0 0 0 0 0 0 0 0 0 0 0 0 0
1 0 0 0 0 0 0 0 0 0 0 0 0 0 0 0 0 0 0 0 0 0 0 0 0 0 0 0 0 0 0 0 0 0 0 0 0 0 0 0 0 0 0 0 0 0 0 0 0
0 0 0 0 0 0 0 0 0 0 0 0 0 0 0 0 0 0 0 0 0 0 0 0 0 0 0 0 0 0 0 0 0 0 0 0 0 0 0 0 0 0 0 0 0 0 0 0 0

GFSSGP_con_mucape_015.txt.gz
CAPE
17 0 0 0 0 0 0 0 10 0 0 0 0 0 0 0 0 0 0 15 0 0 48 264 943 777 436 427 203 77 12 0 0 0 4 0 0 0 0 0 0 11 7 0 0 9 7 17 14
0 0 0 0 0 0 0 0 0 0 0 0 0 0 0 0 0 0 37 13 0 0 52 171 1157 580 534 474 166 85 45 0 0 0 4 7 11 1 0 0 0 0 0 0 0 0 0 5 11
0 0 0 0 0 0 1 0 2 0 0 0 0 0 0 0 0 0 9 20 6 2 25 452 1160 739 790 446 203 110 73 21 0 0 0 26 28 25 12 1 0 0 0 0 0 0 0 0 0
0 0 0 0 0 0 0 0 0 0 0 0 0 0 0 0 0 23 32 20 22 23 56 620 1301 749 773 396 342 158 94 80 54 0 0 14 17 188 21 4 0 0 0 0 2 1 0 0 0
0 0 0 0 0 0 0 0 0 0 0 0 0 0 0 0 0 13 47 26 45 44 80 172 885 687 575 675 337 178 126 52 23 1 0 22 80 133 78 11 0 0 0 0 6 7 8 4 1
0 0 0 0 1 0 0 0 0 0 0 0 0 0 0 0 37 45 55 38 42 65 79 84 466 691 800 591 366 142 140 65 22 0 0 11 53 129 164 73 4 1 14 8 5 8 11 34 23
0 1 0 0 1 2 0 0 0 0 0 0 0 0 2 0 1 51 73 49 62 96 101 87 116 280 932 801 670 250 176 96 39 6 0 28 16 12 24 22 7 11 13 7 0 0 5 6 13
0 4 2 0 0 0 3 0 0 0 0 0 0 0 14 0 0 24 60 51 75 130 158 142 173 339 582 372 545 441 425 306 158 161 97 7 1 0 0 0 0 0 0 0 0 0 0 0 0
0 2 2 0 0 0 0 0 0 0 0 0 0 0 0 0 0 11 33 54 66 134 216 234 225 351 432 419 488 386 289 209 125 53 18 0 0 0 0 0 0 0 0 0 0 0 0 0 0
0 1 0 0 0 2 1 0 0 0 0 0 0 0 0 0 0 0 0 18 45 77 154 252 298 308 427 317 406 336 272 179 124 77 9 5 0 0 0 0 0 0 0 0 0 0 0 0 0
24 0 0 0 3 0 0 0 0 0 0 0 0 0 0 0 4 8 2 0 3 12 66 149 301 343 403 438 376 325 237 187 106 35 2 0 0 0 0 0 0 0 0 0 0 0 0 0 0
46 7 0 6 6 0 0 0 0 0 0 0 0 0 0 0 8 11 0 0 0 0 4 42 131 340 390 426 431 355 261 211 155 80 11 0 0 0 0 0 0 0 0 0 0 0 0 0 0
40 21 4 1 3 0 0 0 0 0 0 0 0 0 0 0 0 0 0 0 0 6 21 36 46 172 364 442 412 404 298 234 168 127 43 1 0 0 0 0 0 0 0 0 1 2 5 11 13
40 50 19 20 5 0 0 0 0 0 0 0 0 0 0 0 0 0 0 0 0 2 14 24 41 46 168 360 410 396 328 231 178 120 65 5 0 0 1 1 4 7 8 7 7 9 13 17 14
60 69 18 19 26 0 1 0 0 0 0 0 0 0 0 0 0 0 0 0 0 0 0 0 0 1 69 257 376 380 345 217 189 136 67 12 1 2 4 5 8 12 12 5 36 35 14 11 13
54 104 35 20 20 0 1 0 0 0 0 0 0 0 0 0 0 0 0 0 0 0 0 0 0 0 7 178 311 317 269 202 170 79 17 5 4 2 3 9 13 25 52 8 12 3 2 2 0
73 49 28 54 27 1 9 0 0 0 0 0 0 0 0 0 0 0 0 0 0 0 0 0 0 0 29 158 180 136 78 55 29 21 12 8 4 3 5 1 0 0 0 0 0 0 0 0 0
41 31 22 26 17 0 3 0 0 0 0 0 0 0 0 0 0 0 0 0 0 0 0 0 2 18 38 54 57 89 49 2 0 0 0 0 0 0 0 0 0 0 0 0 0 0 0 0 0
42 95 59 30 19 21 4 0 0 0 0 0 0 0 0 0 0 0 0 0 0 0 0 0 2 28 79 111 53 0 0 0 0 0 0 0 0 0 0 0 0 0 0 0 0 0 0 0 0
109 109 106 33 28 0 0 1 0 0 0 0 0 0 0 0 0 0 0 0 0 0 0 0 0 19 2 0 0 0 0 0 0 0 0 0 0 0 0 0 0 0 0 0 0 0 0 0 0
65 71 38 18 7 0 2 1 0 0 0 0 0 0 0 0 0 0 0 0 0 0 0 0 0 0 0 0 0 0 0 0 0 0 0 0 0 0 0 0 0 0 0 0 0 0 0 0 0
133 74 45 26 20 10 12 0 0 0 0 0 0 0 0 0 0 0 0 0 0 0 0 0 0 0 0 0 0 0 0 0 0 0 0 0 0 0 0 0 0 0 0 0 0 0 0 0 0
17 54 33 39 47 16 8 10 0 0 0 0 0 0 0 0 0 0 0 0 0 0 0 0 0 0 0 0 0 0 0 0 0 0 0 0 0 0 0 0 0 0 0 0 0 0 0 0 0
23 90 73 35 0 4 1 9 0 0 0 0 0 0 0 0 0 0 0 0 0 0 0 0 0 0 0 0 0 0 0 0 0 0 0 0 0 0 0 0 0 0 0 0 0 0 0 0 0
2 38 25 1 0 0 3 13 5 0 0 0 0 0 0 0 0 0 0 0 0 0 0 0 0 0 0 0 0 0 0 0 0 0 0 0 0 0 0 0 0 0 0 0 0 0 0 0 0
1 3 11 0 0 2 0 0 0 0 0 0 0 0 0 0 0 0 0 0 0 0 0 0 0 0 0 0 0 0 0 0 0 0 0 0 0 0 0 0 0 0 0 0 0 0 0 0 0
44 38 22 2 0 29 0 0 0 0 0 0 0 0 0 0 0 0 0 0 0 0 0 0 0 0 0 0 0 0 0 0 0 0 0 0 0 0 0 0 0 0 0 0 0 0 0 0 0
3 32 11 3 0 0 5 0 0 0 0 0 0 0 0 0 0 0 0 0 0 0 0 0 0 0 0 0 0 0 0 0 0 0 0 0 0 0 0 0 0 0 0 0 0 0 0 0 0
3 6 3 6 0 26 53 1 0 0 0 0 0 0 0 0 0 0 0 0 0 0 0 0 0 0 0 0 0 0 0 0 0 0 0 0 0 0 0 0 0 0 0 0 0 0 0 0 0
0 0 4 15 0 0 0 0 0 0 0 0 0 0 0 0 0 0 0 0 0 0 0 0 0 0 0 0 0 0 0 0 0 0 0 0 0 0 0 0 0 0 0 0 0 0 0 0 0

GFSSGP_con_mucape_018.txt.gz
CAPE
57 0 0 0 0 0 0 0 0 2 12 9 0 0 0 0 0 0 1 0 0 48 260 726 1357 927 568 588 207 51 17 0 0 0 0 0 0 0 0 0 0 0 9 0 0 3 12 17 11
1 0 0 0 0 0 0 0 5 0 0 0 0 14 0 0 0 3 39 0 0 60 90 142 1264 843 562 611 195 82 25 0 0 0 4 7 2 0 0 0 0 0 0 0 0 0 0 0 1
31 0 0 0 0 0 0 0 1 0 0 0 0 1 4 0 0 0 26 0 0 16 97 831 1449 1020 805 428 148 79 60 6 0 0 2 25 23 32 16 0 0 0 0 0 0 0 0 0 0
0 0 0 0 0 0 0 0 0 0 0 0 0 8 12 0 0 15 17 0 11 12 503 1090 1246 1172 1235 680 229 126 74 53 30 0 0 13 24 86 44 15 0 0 0 0 0 0 0 0 0
0 0 0 0 0 0 0 0 0 0 0 0 0 0 0 0 0 25 26 25 19 69 389 970 1443 1005 984 727 400 160 87 41 35 0 1 13 62 109 132 20 0 0 0 0 0 0 0 0 0
0 0 0 0 0 0 0 0 0 0 0 0 0 0 0 0 22 43 36 38 41 53 100 539 971 1036 791 760 361 208 107 45 16 0 0 4 16 71 143 62 1 0 0 0 0 0 0 1 13
0 0 0 0 0 0 2 0 0 0 0 0 0 0 2 0 0 59 48 39 56 51 77 84 288 633 1078 884 684 382 206 92 45 7 0 11 1 0 43 142 6 0 0 0 0 0 0 0 1
1 0 0 0 0 0 0 0 0 0 0 0 0 0 0 0 0 66 72 67 66 98 90 77 107 191 625 455 597 434 406 248 110 75 51 1 0 0 8 55 51 0 0 0 0 0 0 0 0
21 0 0 0 0 0 0 0 0 0 0 0 0 0 0 0 0 18 45 75 77 122 135 120 169 299 508 376 364 394 325 228 117 81 46 7 0 0 0 0 1 0 0 0 0 0 0 0 0
5 0 0 0 0 0 0 0 0 0 0 0 0 0 0 0 0 0 15 57 67 95 149 200 191 256 336 352 408 234 136 111 70 50 22 0 0 0 0 0 0 0 0 0 0 0 0 0 0
16 0 0 0 0 0 3 0 0 0 0 0 0 0 0 0 0 0 0 2 38 47 106 170 231 221 300 284 313 364 262 179 144 131 23 1 0 0 0 0 0 0 0 0 0 0 0 0 0
38 15 0 0 0 10 1 0 0 0 0 0 0 0 0 0 0 0 0 2 1 15 27 111 173 253 254 341 289 280 207 151 115 73 19 0 0 0 0 0 0 0 0 0 0 0 0 1 3
36 34 13 1 0 1 4 0 0 0 0 0 0 0 0 0 0 0 0 0 0 0 0 0 54 217 251 296 354 294 243 182 138 97 63 8 0 0 0 0 0 0 0 0 1 2 7 13 8
27 35 37 20 2 2 0 0 0 0 0 0 0 0 0 0 0 0 0 0 0 0 4 14 12 32 248 319 308 345 275 207 157 120 87 50 5 0 0 0 4 9 9 26 4 8 8 17 8
10 50 68 5 5 11 5 0 0 0 0 0 0 0 0 0 0 0 0 0 0 0 0 0 2 9 50 253 325 325 280 222 199 136 157 44 8 1 1 3 8 3 9 38 3 0 0 0 0
49 29 7 0 10 6 7 0 0 0 0 0 0 0 0 0 0 0 0 0 0 0 0 0 0 0 14 199 290 298 438 202 218 113 66 75 1 0 0 4 3 2 0 0 0 0 0 0 0
41 0 0 0 3 12 10 0 0 0 0 0 0 0 0 0 0 0 0 0 0 0 0 0 0 0 5 203 241 232 216 144 80 29 25 1 1 0 2 0 0 0 0 0 0 0 0 0 0
0 21 0 0 0 11 5 1 0 0 0 0 0 0 0 0 0 0 0 0 0 0 0 0 0 12 77 127 146 131 46 32 20 1 0 0 0 0 0 0 0 0 0 0 0 0 0 0 0
0 3 47 0 24 15 3 0 0 0 0 0 0 0 0 0 0 0 0 0 0 0 0 0 0 0 4 26 19 11 3 0 0 0 0 0 0 0 0 0 0 0 0 0 0 0 0 0 0
14 17 17 24 29 19 1 0 0 0 0 0 0 0 0 0 0 0 0 0 0 0 0 0 3 15 17 8 0 0 0 0 0 0 0 0 0 0 0 0 0 0 0 0 0 0 0 0 0
5 36 4 19 35 23 14 0 0 0 0 0 0 0 0 0 0 0 0 0 0 0 0 0 0 0 0 0 0 0 0 0 0 0 0 0 0 0 0 0 0 0 0 0 0 0 0 0 0
25 3 5 136 104 20 0 0 0 0 0 0 0 0 0 0 0 0 0 0 0 0 0 0 0 0 0 0 0 0 0 0 0 0 0 0 0 0 0 0 0 0 0 0 0 0 0 0 0
5 97 5 33 7 56 13 2 0 0 0 0 0 0 0 0 0 0 0 0 0 0 0 0 0 0 0 0 0 0 0 0 0 0 0 0 0 0 0 0 0 0 0 0 0 0 0 0 0
0 62 33 79 9 23 21 1 0 0 0 0 0 0 0 0 0 0 0 0 0 0 0 0 0 0 0 0 0 0 0 0 0 0 0 0 0 0 0 0 0 0 0 0 0 0 0 0 0
46 38 16 98 72 1 0 2 0 0 0 0 0 0 0 0 0 0 0 0 0 0 0 0 0 0 0 0 0 0 0 0 0 0 0 0 0 0 0 0 0 0 0 0 0 0 0 0 0
6 0 5 0 0 1 9 0 0 0 0 0 0 0 0 0 0 0 0 0 0 0 0 0 0 0 0 0 0 0 0 0 0 0 0 0 0 0 0 0 0 0 0 0 0 0 0 0 0
0 0 0 15 0 0 0 0 0 0 0 0 0 0 0 0 0 0 0 0 0 0 0 0 0 0 0 0 0 0 0 0 0 0 0 0 0 0 0 0 0 0 0 0 0 0 0 0 0
17 0 9 36 10 7 7 0 0 0 0 0 0 0 0 0 0 0 0 0 0 0 0 0 0 0 0 0 0 0 0 0 0 0 0 0 0 0 0 0 0 0 0 0 0 0 0 0 0
0 13 4 14 9 34 0 2 0 0 0 0 0 0 0 0 0 0 0 0 0 0 0 0 0 0 0 0 0 0 0 0 0 0 0 0 0 0 0 0 0 0 0 0 0 0 0 0 0
0 2 2 23 9 6 14 0 0 0 0 0 0 0 0 0 0 0 0 0 0 0 0 0 0 0 0 0 0 0 0 0 0 0 0 0 0 0 0 0 0 0 0 0 0 0 0 0 0

GFSSGP_con_mucape_021.txt.gz
CAPE
259 0 0 0 0 0 0 0 0 0 3 13 4 0 0 0 0 0 1 43 132 327 959 1299 1558 1182 626 669 138 58 12 0 0 0 0 0 0 3 0 0 0 0 0 0 0 0 9 14 4
191 0 0 0 0 0 0 0 0 0 0 0 5 0 1 0 0 9 19 22 163 479 773 918 1515 1175 741 751 113 41 1 0 0 0 0 6 0 8 0 0 0 0 0 0 0 0 0 0 0
15 0 0 0 0 0 0 0 0 0 0 0 0 0 10 2 0 36 26 20 142 232 295 676 1652 1195 833 605 114 47 13 0 0 0 1 21 20 27 5 1 0 0 0 0 0 0 0 0 0
0 0 0 0 0 0 0 0 0 0 0 0 0 0 1 3 0 13 0 7 122 118 183 1093 1530 1391 1396 635 122 73 36 6 0 0 0 2 19 63 44 15 0 0 0 0 0 0 0 0 0
0 0 0 0 0 0 0 0 0 0 0 0 0 1 0 0 0 0 0 24 197 463 701 983 1496 1356 1322 515 228 114 67 42 27 0 0 2 39 107 105 19 0 0 0 0 0 0 0 0 5
0 0 0 0 0 0 0 0 0 0 0 0 0 3 2 8 19 29 18 33 310 418 665 903 1270 1328 1273 906 440 212 93 24 12 0 0 0 0 33 197 35 4 0 0 0 0 0 0 2 6
0 0 0 0 0 0 0 0 0 0 0 0 0 0 0 0 1 20 18 38 247 342 485 740 738 770 968 976 635 436 176 76 34 5 0 17 0 0 57 155 42 1 6 1 0 0 0 0 0
0 0 0 0 0 0 0 0 0 0 0 0 0 0 0 0 8 60 29 38 82 99 146 382 467 555 753 556 552 406 365 194 119 54 15 0 0 0 24 195 135 16 2 0 0 0 0 0 0
40 2 0 0 0 0 0 0 0 0 0 0 0 0 0 0 1 53 25 43 84 100 122 115 150 273 526 449 452 323 315 197 103 54 27 0 0 0 0 0 0 60 0 0 0 0 0 3 0
55 0 0 0 0 0 0 0 0 0 0 0 0 0 0 0 0 0 8 31 62 117 140 146 152 238 411 404 370 279 151 120 62 23 8 0 0 0 0 0 0 0 0 1 0 0 34 3 0
24 3 0 0 0 0 0 0 0 0 0 0 0 0 0 0 0 0 0 1 48 96 155 171 190 322 451 490 414 257 180 152 98 83 35 24 0 0 0 0 0 0 0 0 0 0 0 0 0
26 21 1 0 0 0 0 0 0 0 0 0 0 0 0 0 0 0 0 0 0 62 126 209 220 236 310 401 351 274 268 215 171 114 61 16 1 0 0 0 0 0 0 0 0 0 1 1 10
5 0 12 1 0 0 0 0 0 0 0 0 0 0 0 0 0 0 0 0 0 18 73 168 229 256 272 345 332 282 291 223 149 105 81 31 1 0 1 1 0 0 0 2 7 3 9 2 7
1 12 0 0 8 0 0 0 0 0 0 0 0 0 0 0 0 0 0 0 0 0 22 138 114 252 266 300 339 266 250 270 170 103 107 79 31 27 23 11 3 7 6 11 7 7 3 0 0
0 0 1 0 3 11 1 0 0 0 0 0 0 0 0 0 0 0 0 0 0 0 3 6 8 85 270 271 289 302 400 237 218 195 145 70 44 36 36 16 5 16 4 4 1 0 0 0 0
0 15 0 0 2 3 31 1 0 0 0 0 0 0 0 0 0 0 0 0 0 0 0 15 10 14 139 278 266 277 324 341 259 238 160 160 84 37 15 2 16 0 0 0 0 0 0 0 0
0 0 0 0 0 10 31 1 0 0 0 0 0 0 0 0 0 0 0 0 0 0 0 0 0 0 30 255 301 225 249 317 115 132 7 16 1 0 0 0 0 0 0 0 0 0 0 0 0
0 0 0 0 0 2 7 6 0 0 0 0 0 0 0 0 0 0 0 0 0 0 0 0 0 0 115 265 252 115 117 183 81 4 0 0 0 0 0 0 0 0 0 0 0 0 0 0 0
0 0 0 0 10 13 0 0 0 0 0 0 0 0 0 0 0 0 0 0 0 0 0 0 23 82 181 191 175 104 96 74 0 0 0 0 0 0 0 0 0 0 0 0 0 0 0 0 0
0 0 0 0 0 28 8 12 0 0 0 0 0 0 0 0 0 0 0 0 0 0 0 0 0 36 80 95 79 55 6 0 0 0 0 0 0 0 0 0 0 0 0 0 0 0 0 0 0
0 0 0 0 0 5 15 0 0 0 0 0 0 0 0 0 0 0 0 0 0 0 0 0 0 0 0 0 0 0 0 0 0 0 0 0 0 0 0 0 0 0 0 0 0 0 0 0 0
0 0 0 0 33 13 46 14 0 0 0 0 0 0 0 0 0 0 0 0 0 0 0 0 0 1 0 0 0 0 0 0 0 0 0 0 0 0 0 0 0 0 0 0 0 0 0 0 0
0 0 0 7 8 0 33 35 0 0 0 0 0 0 0 0 0 0 0 0 0 0 0 0 0 0 0 0 0 0 0 0 0 0 0 0 0 0 0 0 0 0 0 0 0 0 0 0 0
0 0 0 25 55 34 1 32 0 0 0 0 0 0 0 0 0 0 0 0 0 0 0 0 0 0 0 0 0 0 0 0 0 0 0 0 0 0 0 0 0 0 0 0 0 0 0 0 0
33 0 0 23 21 0 0 0 0 0 0 0 0 0 0 0 0 0 0 0 0 0 0 0 0 0 0 0 0 0 0 0 0 0 0 0 0 0 0 0 0 0 0 0 0 0 0 0 0
3 0 0 0 0 1 1 15 0 0 0 0 0 0 0 0 0 0 0 0 0 0 0 0 0 0 0 0 0 0 0 0 0 0 0 0 0 0 0 0 0 0 0 0 0 0 0 0 0
0 7 0 9 1 12 1 6 0 0 0 0 0 0 0 0 0 0 0 0 0 0 0 0 0 0 0 0 0 0 0 0 0 0 0 0 0 0 0 0 0 0 0 0 0 0 0 0 0
88 38 0 0 24 9 0 1 5 0 0 0 0 0 0 0 0 0 0 0 0 0 0 0 0 0 0 0 0 0 0 0 0 0 0 0 0 0 0 0 0 0 0 0 0 0 0 0 0
6 7 0 0 2 24 23 12 1 0 0 0 0 0 0 0 0 0 0 0 0 0 0 0 0 0 0 0 0 0 0 0 0 0 0 0 0 0 0 0 0 0 0 0 0 0 0 0 0
6 0 0 19 21 9 0 4 0 0 0 0 0 0 0 0 0 0 0 0 0 0 0 0 0 0 0 0 0 0 0 0 0 0 0 0 0 0 0 0 0 0 0 0 0 0 0 0 0

GFSSGP_con_mucape_024.txt.gz
CAPE
315 0 0 0 0 0 0 0 0 0 0 0 9 9 8 0 0 0 17 54 146 789 1240 1419 1661 1571 712 550 84 29 0 0 0 0 2 6 10 16 3 0 0 0 0 0 0 0 0 3 0
601 0 0 0 0 0 0 0 0 0 0 0 3 18 0 0 0 1 40 133 348 870 1147 1150 1714 1274 802 627 89 28 1 0 0 0 0 1 11 14 0 0 0 0 0 0 0 0 0 0 0
0 0 0 0 0 0 0 0 0 0 0 0 0 4 1 0 3 5 30 177 372 699 1006 1024 1712 1474 1006 570 111 30 1 0 0 0 0 12 2 17 8 0 0 0 0 0 0 0 0 0 0
0 0 0 0 0 0 0 0 0 0 0 0 0 0 0 0 0 15 15 203 335 541 702 1151 1648 1584 1420 811 104 51 13 0 0 0 0 15 23 40 3 5 0 0 0 0 0 0 0 0 0
0 0 0 0 0 0 0 0 0 0 0 0 0 0 0 14 14 0 43 172 146 187 355 1076 1775 1589 1342 416 166 100 39 10 0 0 0 5 38 81 124 17 0 0 0 0 0 0 0 0 5
0 0 0 0 0 0 0 0 0 0 0 0 0 0 0 7 27 8 20 138 165 263 602 1090 1393 1591 1101 563 363 149 91 39 19 0 0 1 2 31 136 34 1 0 0 0 0 0 0 0 3
0 0 0 0 0 0 0 0 0 0 0 0 0 0 0 0 4 8 30 119 423 596 767 861 987 1105 908 937 652 435 158 33 29 0 0 7 0 4 152 114 52 4 0 7 1 0 0 0 0
0 0 0 0 0 0 0 0 0 0 0 0 0 0 0 0 19 11 22 241 390 543 574 798 664 729 778 683 587 474 299 187 132 65 17 18 2 0 21 413 284 56 26 13 6 0 0 0 0
2 3 0 0 0 0 0 0 0 0 0 0 0 0 0 0 29 20 9 158 347 370 347 558 551 494 545 528 360 340 281 152 114 48 10 0 0 0 0 32 22 153 56 12 0 0 1 48 38
16 8 0 0 0 0 0 0 0 0 0 0 0 0 0 0 9 9 30 16 118 153 153 254 277 292 435 453 356 198 146 76 14 3 0 0 0 0 0 0 3 57 89 48 9 18 128 73 0
10 6 0 0 0 0 0 0 0 0 0 0 0 0 0 0 0 0 1 38 77 140 170 175 159 149 246 376 316 273 116 76 35 19 4 4 0 0 0 0 0 0 0 0 0 0 0 0 0
0 0 1 18 1 0 0 0 0 0 0 0 0 0 0 0 0 0 0 0 1 58 210 218 211 212 274 423 440 338 204 133 84 59 52 31 25 0 0 0 0 0 0 0 0 0 6 2 3
0 0 0 1 9 1 0 0 0 0 0 0 0 0 0 0 0 0 0 0 0 0 112 236 254 274 341 515 509 372 276 223 176 133 99 61 20 0 0 1 5 9 25 26 2 3 6 6 1
0 0 0 0 0 2 2 0 0 0 0 0 0 0 0 0 0 0 0 0 0 0 0 204 278 295 373 462 418 341 294 328 180 121 62 88 64 22 18 15 12 47 56 20 35 11 1 0 0
0 0 0 0 0 0 0 0 0 0 0 0 0 0 0 0 0 0 0 0 0 0 12 110 230 312 304 387 403 338 439 331 222 237 223 168 50 28 31 38 5 2 2 3 1 0 0 0 0
0 0 0 0 0 0 0 0 0 0 0 0 0 0 0 0 0 0 0 0 0 0 0 101 209 252 304 338 366 327 349 384 242 198 168 96 48 52 33 1 1 0 0 0 0 0 0 0 0
0 0 0 0 0 0 0 0 0 0 0 0 0 0 0 0 0 0 0 0 0 0 0 8 13 30 268 303 327 284 384 326 294 181 187 3 12 2 2 0 0 0 0 0 0 0 0 0 0
0 0 0 0 0 0 0 0 0 0 0 0 0 0 0 0 0 0 0 0 0 0 0 0 1 14 216 297 312 253 190 236 314 155 22 0 0 0 0 0 0 0 0 0 0 0 0 0 0
0 0 0 0 0 0 0 0 0 0 0 0 0 0 0 0 0 0 0 0 0 0 0 0 0 0 162 275 347 254 76 152 158 132 7 0 0 0 0 0 0 0 0 0 0 0 0 0 0
0 0 0 0 0 14 0 0 0 0 0 0 0 0 0 0 0 0 0 0 0 0 0 0 0 0 96 241 335 280 75 13 97 7 0 0 0 0 0 0 0 0 0 0 0 0 0 0 0
0 0 0 0 0 0 0 0 0 0 0 0 0 0 0 0 0 0 0 0 0 0 0 2 8 50 146 247 265 218 139 98 0 0 0 0 0 0 0 0 0 0 0 0 0 0 0 0 0
0 0 0 0 0 0 23 0 0 0 0 0 0 0 0 0 0 0 0 0 0 0 0 1 20 64 110 140 134 66 17 0 0 0 0 0 0 0 0 0 0 0 0 0 0 0 0 0 0
0 0 0 0 0 0 0 0 0 0 0 0 0 0 0 0 0 0 0 0 0 0 0 0 0 0 0 0 0 0 0 0 0 0 0 0 0 0 0 0 0 0 0 0 0 0 0 0 0
0 0 0 0 0 0 0 0 0 0 0 0 0 0 0 0 0 0 0 0 0 0 0 0 0 0 0 0 0 0 0 0 0 0 0 0 0 0 0 0 0 0 0 0 0 0 0 0 0
0 0 0 0 0 0 0 0 0 0 0 0 0 0 0 0 0 0 0 0 0 0 0 0 0 0 0 0 0 0 0 0 0 0 0 0 0 0 0 0 0 0 0 0 0 0 0 0 0
0 0 0 0 0 0 28 0 0 0 0 0 0 0 0 0 0 0 0 0 0 0 0 0 0 0 0 0 0 0 0 0 0 0 0 0 0 0 0 0 0 0 0 0 0 0 0 0 0
0 0 0 0 0 0 1 0 0 0 0 10 0 0 1 0 0 0 0 0 0 0 0 0 0 0 0 0 0 0 0 0 0 0 0 0 0 0 0 0 0 0 0 0 0 0 0 0 0
29 6 0 0 0 0 2 9 0 0 0 47 0 12 14 0 0 0 0 0 0 0 0 0 0 0 0 0 0 0 0 0 0 0 0 0 0 0 0 0 0 0 0 0 0 0 0 0 0
0 0 22 2 0 0 0 0 0 0 1 16 62 46 5 0 0 0 0 0 0 0 0 0 0 0 0 0 0 0 0 0 0 0 0 0 0 0 0 0 0 0 0 0 0 0 0 0 0
0 0 0 0 0 0 0 0 0 55 37 39 30 23 0 0 0 0 0 0 0 0 0 0 0 0 0 0 0 0 0 0 0 0 0 0 0 0 0 0 0 0 0 0 0 0 0 0 0

GFSSGP_con_mucape_027.txt.gz
CAPE
252 0 0 0 0 0 0 0 0 0 0 0 0 3 16 17 0 0 39 59 126 326 1110 1229 1751 1610 844 360 64 13 0 0 0 0 21 30 10 17 5 1 0 0 0 0 0 6 10 0 0
4 0 0 0 0 0 0 0 0 0 0 0 0 0 10 15 15 10 53 77 388 930 1258 1161 1835 1458 784 479 93 23 0 0 0 0 12 24 25 17 0 0 0 0 0 0 0 0 0 0 0
0 0 0 0 0 0 0 0 0 0 0 0 0 0 0 8 18 14 43 190 792 1030 1185 1070 1866 1563 1130 623 134 47 1 0 0 0 5 8 28 23 4 0 0 0 0 0 0 0 0 0 0
0 0 0 0 0 0 0 0 0 0 0 0 0 0 0 0 12 36 83 314 672 917 1113 1141 1835 1613 1472 863 238 56 1 0 0 0 7 24 12 32 15 10 0 0 0 0 0 0 0 0 0
0 0 0 0 0 0 0 0 0 0 0 0 0 0 0 6 15 34 252 336 383 722 951 1139 1838 1686 1467 675 244 87 21 0 0 0 0 12 33 86 29 23 2 0 0 0 0 0 0 0 0
0 0 0 0 0 0 0 0 0 0 0 0 0 0 0 5 16 22 259 282 212 438 681 1151 1642 1602 1600 861 415 194 81 23 3 0 0 1 21 36 120 42 5 0 0 0 0 0 0 0 0
0 0 0 0 0 0 0 0 0 0 0 0 0 0 0 20 29 22 180 213 184 239 412 1055 1371 1369 1066 806 700 564 237 118 73 0 0 9 8 3 132 66 23 8 0 0 1 0 0 0 0
0 0 0 0 0 0 0 0 0 0 0 0 0 0 0 0 15 26 23 269 328 548 631 900 1094 1218 751 643 671 563 425 194 149 37 14 16 0 0 5 279 150 64 18 20 12 3 0 0 0
0 0 0 0 0 0 0 0 0 0 0 0 0 0 0 0 23 43 15 346 531 646 740 774 831 888 668 604 493 504 373 166 118 41 0 0 0 0 0 22 107 277 87 53 23 5 18 109 76
4 1 0 0 0 0 0 0 0 0 0 0 0 0 0 0 34 30 45 239 444 588 684 626 659 600 653 623 514 359 225 100 28 5 0 0 0 0 0 0 5 30 77 148 33 62 136 75 0
1 2 0 0 0 0 0 0 0 0 0 0 0 0 0 1 17 71 56 77 323 388 401 428 531 505 434 515 465 304 190 109 19 0 0 0 0 0 0 0 0 0 0 0 0 0 0 0 0
0 0 0 0 0 0 0 0 0 0 0 0 0 0 0 0 0 0 24 31 58 88 197 267 322 361 323 453 434 307 197 127 53 21 0 0 0 0 0 0 0 0 0 1 2 2 12 4 4
0 0 0 0 0 0 0 0 0 0 0 0 0 0 0 0 0 0 0 0 0 0 61 223 277 244 252 365 429 437 288 178 110 75 55 25 18 0 0 0 1 2 2 40 34 5 13 2 1
0 0 0 0 0 0 0 0 0 0 0 0 0 0 0 0 0 0 0 0 0 0 0 41 270 293 297 348 489 533 391 303 231 190 129 53 24 16 10 4 2 2 4 7 2 2 0 0 0
0 0 0 0 0 0 0 0 0 0 0 0 0 0 0 0 0 0 0 0 0 0 0 0 143 299 352 376 542 612 460 378 374 259 125 94 77 57 10 6 3 0 0 0 0 0 0 0 0
0 0 0 0 0 0 0 0 0 0 0 0 0 0 0 0 0 0 0 0 0 0 0 0 25 298 394 429 592 500 409 342 472 182 87 73 74 37 2 3 0 0 0 0 0 0 0 0 0
0 0 0 0 0 0 0 0 0 0 0 0 0 0 0 0 0 0 0 0 0 0 0 0 36 246 414 498 567 458 530 238 270 312 154 57 45 5 5 1 0 0 0 0 0 0 0 0 0
0 0 0 0 0 0 0 0 0 0 0 0 0 0 0 0 0 0 0 0 0 0 0 1 108 252 406 488 524 423 395 402 232 243 208 72 3 0 0 0 0 0 0 0 0 0 0 0 0
0 0 0 0 0 0 0 0 0 0 0 0 0 0 0 0 0 0 0 0 0 0 0 0 35 225 311 436 426 388 153 170 146 235 130 118 1 0 0 0 0 0 0 0 0 0 0 0 0
0 0 0 0 0 0 0 0 0 0 0 0 0 0 0 0 0 0 0 0 0 0 0 0 0 10 223 352 346 333 197 65 85 68 48 10 0 0 0 0 0 0 0 0 0 0 0 0 0
0 0 0 0 0 0 0 0 0 0 0 0 0 0 0 0 0 0 0 0 0 0 0 0 0 0 48 255 326 342 151 101 28 5 76 0 0 0 0 0 0 0 0 0 0 0 0 0 0
0 0 0 0 0 0 0 0 0 0 0 0 0 0 0 0 0 0 0 0 0 0 0 0 0 0 25 260 332 377 80 69 79 61 0 0 0 0 0 0 0 0 0 0 0 0 0 0 0
0 0 0 0 0 0 0 0 0 0 0 0 0 0 0 0 0 0 0 0 0 0 0 0 0 0 81 215 311 358 302 214 101 0 0 0 0 0 0 0 0 0 0 0 0 0 0 0 0
0 0 0 0 0 0 0 0 0 0 0 0 0 0 0 0 0 0 0 0 0 0 0 37 96 164 222 249 219 141 83 5 0 0 0 0 0 0 0 0 0 0 0 0 0 0 0 0 0
0 0 0 0 0 0 0 0 0 0 0 0 0 0 0 0 0 0 0 0 0 0 0 19 40 48 48 21 0 0 0 0 0 0 0 0 0 0 0 0 0 0 0 0 0 0 0 0 0
0 0 0 0 0 0 0 0 0 0 0 0 0 0 0 0 0 0 0 0 0 0 0 28 44 48 24 0 0 0 0 0 0 0 0 0 0 0 0 0 0 0 0 0 0 0 0 0 0
0 0 0 0 0 0 0 0 0 0 0 0 0 0 0 0 0 0 0 0 0 0 0 13 25 40 5 0 0 0 0 0 0 0 0 0 0 0 0 0 0 0 0 0 0 0 0 0 0
0 0 0 0 0 0 0 0 0 0 0 0 0 0 0 0 0 0 0 0 0 0 0 3 3 0 0 0 0 0 0 0 0 0 0 0 0 0 0 0 0 0 0 0 0 0 0 0 0
0 0 0 0 0 0 0 0 0 0 0 0 1 29 9 0 25 11 0 0 0 0 0 0 0 0 0 0 0 0 0 0 0 0 0 0 0 0 0 0 0 0 0 0 0 0 0 0 0
0 0 0 0 0 0 0 0 0 0 0 0 0 1 39 37 17 0 0 0 0 0 0 0 0 0 0 0 0 0 0 0 0 0 0 0 0 0 0 0 0 0 0 0 0 0 0 0 0

GFSSGP_con_mucape_030.txt.gz
CAPE
13 0 0 0 0 0 0 0 0 0 0 0 0 10 20 20 6 2 27 73 65 111 890 1113 1729 1517 798 239 69 14 0 0 0 0 17 72 42 11 15 1 0 0 0 0 0 19 21 0 0
0 0 0 0 0 0 0 0 0 0 0 0 0 10 10 20 19 23 61 82 168 325 862 871 1655 1712 845 377 103 21 0 0 0 0 32 26 22 19 0 0 0 0 0 0 0 0 0 0 0
0 0 0 0 0 0 0 0 0 0 0 0 0 0 0 7 16 16 29 104 568 993 1178 1013 1886 1753 1198 570 162 50 1 0 0 0 2 24 25 19 0 0 0 0 0 0 0 0 0 0 0
0 0 0 0 0 0 0 0 0 0 0 0 0 0 0 0 13 26 67 507 779 1115 1212 1301 1915 1838 1551 894 236 105 18 0 0 0 6 3 21 27 9 12 0 0 0 0 0 0 0 0 0
0 0 0 0 0 0 0 0 0 0 0 0 0 0 0 0 0 30 316 608 697 1007 1190 1312 1999 1741 1533 774 439 126 53 6 0 0 8 29 12 37 38 15 3 0 0 0 0 0 0 0 0
0 0 0 0 0 0 0 0 0 0 0 0 0 0 0 0 0 164 335 442 515 812 1051 1198 1757 1733 1666 1063 622 168 89 35 0 0 0 15 31 34 96 30 12 0 0 0 0 0 1 1 0
0 0 0 0 0 0 0 0 0 0 0 0 0 0 0 0 7 144 274 309 348 599 854 1124 1451 1478 1540 1140 745 568 213 108 61 0 0 11 27 18 109 60 16 0 0 0 5 5 2 0 0
0 0 0 0 0 0 0 0 0 0 0 0 0 0 0 0 13 21 244 290 294 405 657 1044 1342 1276 1223 745 722 649 521 312 225 53 37 22 0 0 10 92 81 67 20 19 28 15 0 0 5
0 2 0 0 0 0 0 0 0 0 0 0 0 0 0 0 0 29 30 279 383 471 565 879 1195 1186 1041 575 558 564 440 194 161 49 4 0 0 0 0 32 92 201 117 54 36 16 42 139 34
10 2 0 0 0 0 0 0 0 0 0 0 0 0 0 0 0 27 22 65 422 500 675 723 995 1003 977 611 578 464 314 151 56 19 0 0 0 0 0 0 0 16 23 45 9 8 0 0 0
0 2 0 0 0 0 0 0 0 0 0 0 0 0 0 0 29 34 8 66 234 401 645 779 823 832 854 685 598 487 304 180 42 1 0 0 0 0 0 0 0 0 0 0 0 0 0 1 0
0 0 0 0 0 0 0 0 0 0 0 0 0 0 0 0 24 66 51 26 57 221 463 690 755 728 714 682 624 535 306 198 74 3 0 0 0 0 0 0 0 0 0 1 0 0 5 5 3
0 0 0 0 0 0 0 0 0 0 0 0 0 0 0 0 0 0 0 0 0 0 31 211 412 563 584 554 533 496 332 222 128 55 11 3 1 1 0 0 0 1 2 6 6 2 2 2 0
0 0 0 0 0 0 0 0 0 0 0 0 0 0 0 0 0 0 0 0 0 0 0 0 94 320 436 449 432 483 461 330 201 191 150 94 64 1 38 2 4 9 2 2 0 0 0 0 0
0 0 0 0 0 0 0 0 0 0 0 0 0 0 0 0 0 0 0 0 0 0 0 0 5 130 328 300 362 545 610 468 361 270 175 108 28 30 2 53 9 0 0 0 0 0 0 0 0
0 0 0 0 0 0 0 0 0 0 0 0 0 0 0 0 0 0 0 0 0 0 0 0 0 50 231 335 370 553 709 593 498 360 191 79 63 22 21 4 0 0 0 0 0 0 0 0 0
0 0 0 0 0 0 0 0 0 0 0 0 0 0 0 0 0 0 0 0 0 0 0 0 0 0 135 342 416 584 771 583 503 302 157 111 85 17 5 0 0 0 0 0 0 0 0 0 0
0 0 0 0 0 0 0 0 0 0 0 0 0 0 0 0 0 0 0 0 0 0 0 0 0 5 117 347 467 677 665 373 335 252 197 257 112 20 0 0 0 0 0 0 0 0 0 0 0
0 0 0 0 0 0 0 0 0 0 0 0 0 0 0 0 0 0 0 0 0 0 0 0 0 32 192 385 532 683 645 268 307 272 200 153 74 62 0 0 0 0 0 0 0 0 0 0 0
0 0 0 0 0 0 0 0 0 0 0 0 0 0 0 0 0 0 0 0 0 0 0 0 0 66 213 402 548 639 614 241 249 269 172 102 22 11 0 0 0 0 0 0 0 0 0 0 0
0 0 0 0 0 0 0 0 0 0 0 0 0 0 0 0 0 0 0 0 0 0 0 0 0 71 266 426 557 576 545 212 78 89 62 17 39 0 0 0 0 0 0 0 0 0 0 0 0
0 0 0 0 0 0 0 0 0 0 0 0 0 0 0 0 0 0 0 0 0 0 0 0 0 0 82 290 438 466 424 134 59 82 8 14 6 0 0 0 0 0 0 0 0 0 0 0 0
0 0 0 0 0 0 0 0 0 0 0 0 0 0 0 0 0 0 0 0 0 0 0 0 0 0 0 131 313 393 370 175 8 54 5 8 0 0 0 0 0 0 0 0 0 0 0 0 0
0 0 0 0 0 0 0 0 0 0 0 0 0 0 0 0 0 0 0 0 0 0 0 0 0 0 0 2 197 254 280 153 163 81 58 0 0 0 0 0 0 0 0 0 0 0 0 0 0
0 0 0 0 0 0 0 0 0 0 0 0 0 0 0 0 0 0 0 0 0 0 6 3 0 0 0 91 291 308 315 217 155 109 0 0 0 0 0 0 0 0 0 0 0 0 0 0 0
0 0 0 0 0 0 0 0 0 0 0 0 0 0 0 0 0 0 0 0 0 0 17 52 83 118 105 297 323 233 115 53 3 0 0 0 0 0 0 0 0 0 0 0 0 0 0 0 0
4 0 0 0 0 0 0 0 0 0 0 0 0 0 0 0 0 0 0 0 0 0 17 91 149 218 209 134 98 4 0 0 0 0 0 0 0 0 0 0 0 0 0 0 0 0 0 0 0
5 0 0 0 0 0 0 0 0 0 0 0 0 0 0 0 0 0 0 0 0 0 13 60 95 92 67 26 0 0 0 0 0 0 0 0 0 0 0 0 0 0 0 0 0 0 0 0 0
0 0 0 0 0 0 0 0 0 0 0 0 0 0 0 0 0 0 0 0 0 0 13 43 78 90 73 11 0 0 0 0 0 0 0 0 0 0 0 0 0 0 0 0 0 0 0 0 0
0 0 0 0 3 0 0 0 0 0 0 0 0 0 0 0 0 0 0 0 0 0 13 47 61 41 32 0 0 0 0 0 0 0 0 0 0 0 0 0 0 0 0 0 0 0 0 0 0

GFSSGP_con_mucape_033.txt.gz
CAPE
0 0 0 0 0 0 0 0 0 0 0 0 0 1 15 12 18 12 5 62 54 343 1236 1325 1853 1556 683 205 68 20 0 0 0 0 0 81 23 10 11 4 0 0 0 0 4 31 23 17 7
0 0 0 0 0 0 0 0 0 0 0 0 0 0 14 33 19 17 79 72 127 764 1265 965 1812 1583 872 266 105 26 0 0 0 0 12 59 8 1 0 0 0 0 0 0 0 0 0 0 0
0 0 0 0 0 0 0 0 0 0 0 0 0 0 8 9 19 16 32 102 288 832 1104 865 1847 1701 1120 426 153 48 5 0 0 0 26 26 18 1 0 0 0 0 0 0 0 0 0 0 0
0 0 0 0 0 0 0 0 0 0 0 0 0 0 0 2 12 17 79 477 647 1044 1258 1372 1833 1717 1325 943 230 91 17 0 0 0 0 15 6 9 0 0 0 0 0 0 0 0 0 0 0
0 0 0 0 0 0 0 0 0 0 0 0 0 0 0 0 0 31 373 744 760 966 1262 1362 2070 1727 1559 842 357 167 53 0 0 0 1 6 20 34 28 15 1 0 0 0 0 0 0 0 0
0 0 0 0 0 0 0 0 0 0 0 0 0 0 0 0 11 296 619 811 880 1019 1283 1467 1794 1733 1616 1094 730 233 116 41 0 0 0 24 33 39 44 52 21 6 0 0 0 9 12 5 2
0 0 0 0 0 0 0 0 0 0 0 0 0 0 0 0 27 395 546 592 799 1039 1269 1394 1552 1470 1484 1191 915 567 208 178 48 4 0 15 35 14 111 122 37 15 0 2 16 10 3 0 0
0 0 0 0 0 0 0 0 0 0 0 0 0 0 0 0 30 293 337 355 482 799 1060 1336 1607 1525 1455 1141 786 668 497 285 209 58 15 14 6 0 55 90 59 46 16 14 26 18 7 15 27
0 0 0 0 0 0 0 0 0 0 0 0 0 0 0 0 39 152 281 410 472 563 832 1223 1484 1525 1344 1062 690 624 485 310 218 50 7 2 0 0 0 32 58 123 97 45 47 27 32 0 0
7 1 0 0 0 0 0 0 0 0 0 0 0 0 0 0 1 40 118 418 596 643 729 925 1306 1386 1210 877 765 685 480 300 131 68 4 0 0 0 0 0 0 0 0 0 0 0 0 0 0
0 0 0 0 0 0 0 0 0 0 0 0 0 0 0 0 0 25 50 64 373 556 731 796 1080 1148 1159 1023 741 668 506 282 110 49 2 0 0 0 0 0 0 0 0 0 0 0 0 0 0
0 0 0 0 0 0 0 0 0 0 0 0 0 0 0 0 0 51 95 60 92 283 629 851 851 969 1073 1055 808 692 474 283 110 33 0 0 0 0 0 0 0 0 0 0 0 0 0 1 2
0 0 0 0 0 0 0 0 0 0 0 0 0 0 0 0 0 0 2 36 59 80 149 547 838 905 861 910 865 683 517 302 173 53 9 1 0 0 0 0 0 0 1 1 1 1 0 0 0
0 0 0 0 0 0 0 0 0 0 0 0 0 0 0 0 0 0 0 0 0 0 0 17 439 826 805 849 797 705 547 332 193 93 52 96 34 20 3 2 5 3 0 0 0 0 0 0 0
0 0 0 0 0 0 0 0 0 0 0 0 0 0 0 0 0 0 0 0 0 0 0 0 9 416 682 812 694 603 508 408 272 162 137 124 51 2 8 6 8 4 0 1 0 0 0 0 0
0 0 0 0 0 0 0 0 0 0 0 0 0 0 0 0 0 0 0 0 0 0 0 0 0 121 415 644 579 437 610 537 421 303 221 127 47 25 6 2 2 0 0 0 0 0 0 0 0
0 0 0 0 0 0 0 0 0 0 0 0 0 0 0 0 0 0 0 0 0 0 0 0 0 73 203 443 431 362 601 714 570 478 330 90 99 18 3 0 0 0 0 0 0 0 0 0 0
0 0 0 0 0 0 0 0 0 0 0 0 0 0 0 0 0 0 0 0 0 0 0 0 0 54 164 197 384 401 537 831 762 583 316 123 101 50 21 3 0 0 0 0 0 0 0 0 0
0 0 0 0 0 0 0 0 0 0 0 0 0 0 0 0 0 0 0 0 0 0 0 0 0 26 54 166 367 424 564 779 636 459 196 251 214 76 10 5 0 0 0 0 0 0 0 0 0
0 0 0 0 0 0 0 0 0 0 0 0 0 0 0 0 0 0 0 0 0 0 0 0 0 16 47 136 359 470 540 537 339 265 276 323 82 129 4 0 0 0 0 0 0 0 0 0 0
0 0 0 0 0 0 0 0 0 0 0 0 0 0 0 0 0 0 0 0 0 0 0 0 0 34 63 168 369 509 611 351 278 277 290 221 93 45 40 0 0 0 0 0 0 0 0 0 0
0 0 0 0 0 0 0 0 0 0 0 0 0 0 0 0 0 0 0 0 0 0 0 0 0 15 70 210 429 570 681 375 273 240 154 90 24 6 5 0 0 0 0 0 0 0 0 0 0
0 0 0 0 0 0 0 0 0 0 0 0 0 0 0 0 0 0 0 0 0 0 0 0 0 2 113 300 445 615 627 300 208 95 90 238 11 0 0 0 0 0 0 0 0 0 0 0 0
0 0 0 0 0 0 0 0 0 0 0 0 0 0 0 0 0 0 0 0 0 0 0 0 0 0 48 286 491 634 571 371 156 102 38 46 2 1 0 0 0 0 0 0 0 0 0 0 0
0 0 0 0 0 0 0 0 0 0 0 0 0 0 0 0 0 0 0 0 0 0 0 0 0 0 0 33 283 420 526 369 86 157 33 15 22 0 0 0 0 0 0 0 0 0 0 0 0
0 0 0 0 0 0 0 0 0 0 0 0 0 0 0 0 0 0 0 0 0 0 0 0 0 0 0 0 81 278 417 207 182 98 81 32 0 0 0 0 0 0 0 0 0 0 0 0 0
0 0 0 0 0 0 0 0 0 0 0 0 0 0 0 0 0 0 0 0 0 0 0 0 0 0 0 0 77 253 182 188 116 62 40 0 0 0 0 0 0 0 0 0 0 0 0 0 0
0 0 0 0 0 0 0 0 0 0 0 0 0 0 0 0 0 0 0 0 0 0 0 0 0 4 28 93 49 162 315 121 47 2 0 0 0 0 0 0 0 0 0 0 0 0 0 0 0
0 0 0 0 0 0 0 0 0 0 0 0 0 0 0 0 0 0 0 0 0 0 0 0 58 202 188 44 306 285 63 4 0 0 0 0 0 0 0 0 0 0 0 0 0 0 0 0 0
0 0 0 0 0 0 0 0 0 0 1 0 0 0 0 0 0 0 0 0 0 0 0 0 174 226 293 307 225 13 0 0 0 0 0 0 0 0 0 0 0 0 0 0 0 0 0 0 0

GFSSGP_con_mucape_036.txt.gz
CAPE
0 0 0 0 0 0 0 0 0 0 0 0 0 0 0 0 35 45 60 225 207 553 1180 1464 1862 1393 665 230 38 2 0 0 0 0 0 87 55 31 22 4 0 0 0 0 15 38 30 12 5
0 0 0 0 0 0 0 0 0 0 0 0 0 0 0 4 8 97 129 205 290 873 1436 1330 1750 1500 647 223 62 26 10 0 0 0 3 51 3 15 4 0 0 0 0 0 0 0 1 1 0
0 0 0 0 0 0 0 0 0 0 0 0 0 0 1 8 35 93 174 273 445 1027 1174 1118 1843 1497 858 324 109 42 8 0 0 0 60 22 2 0 0 0 0 0 0 0 0 0 0 0 0
0 0 0 0 0 0 0 0 0 0 0 0 0 0 0 9 58 82 143 447 599 923 1137 1486 1803 1663 1178 733 169 66 11 0 0 0 11 16 0 0 0 0 0 0 0 0 0 0 0 0 0
0 0 0 0 0 0 0 0 0 0 0 0 0 0 0 29 28 80 455 632 657 874 1014 1270 1999 1786 1357 685 269 127 37 1 0 0 0 3 4 10 14 10 1 0 0 0 0 0 1 0 0
0 0 0 0 0 0 0 0 0 0 0 0 0 0 0 9 151 407 679 786 780 968 1084 1296 1516 1653 1534 1022 600 221 93 25 1 0 2 9 8 22 41 26 10 2 0 0 1 10 4 0 0
0 0 0 0 0 0 0 0 0 0 0 0 0 0 0 0 272 737 822 868 973 977 1198 1134 1122 1351 1299 1183 967 631 220 154 87 30 24 22 27 13 114 122 28 12 0 0 18 1 3 0 0
0 0 0 0 0 0 0 0 0 0 0 0 0 0 0 0 360 772 805 908 972 1026 1073 1086 1168 1273 1148 1238 895 671 516 342 150 65 32 26 0 2 104 156 63 33 1 3 18 1 5 31 24
0 0 0 0 0 0 0 0 0 0 0 0 0 0 0 0 216 698 784 857 952 938 1001 1094 1134 1204 966 940 875 594 476 298 201 39 18 4 21 0 4 37 66 94 55 18 27 11 0 0 0
0 0 0 0 0 0 0 0 0 0 0 0 0 0 0 0 141 612 741 816 908 979 998 1216 1244 1245 1132 859 1039 717 480 348 122 10 0 7 12 2 0 0 3 0 0 0 0 0 0 3 4
4 0 0 0 0 0 0 0 0 0 0 0 0 0 0 0 9 186 383 490 793 911 1117 1161 1423 1404 1364 1048 1040 845 613 425 179 30 0 0 0 0 0 0 0 0 0 5 3 7 0 0 0
0 0 0 0 0 0 0 0 0 0 0 0 0 0 0 0 0 36 237 330 413 827 1098 1183 1260 1491 1515 1238 994 901 716 602 289 51 14 3 0 0 0 0 0 0 4 16 0 0 0 0 0
0 0 0 0 0 0 0 0 0 0 0 0 0 0 0 0 0 0 0 312 349 522 762 1134 1355 1451 1616 1432 999 883 789 698 420 85 56 50 47 22 0 0 1 9 0 0 0 0 0 0 0
0 0 0 0 0 0 0 0 0 0 0 0 0 0 0 0 0 0 0 0 3 169 343 568 1178 1504 1573 1564 1222 1003 889 824 593 187 119 99 101 2 5 0 1 5 1 0 0 0 0 0 0
0 0 0 0 0 0 0 0 0 0 0 0 0 0 0 0 0 0 0 0 0 0 0 0 207 1024 1447 1546 1414 1171 1000 932 732 428 230 95 57 29 1 4 6 7 2 0 0 0 0 0 0
0 0 0 0 0 0 0 0 0 0 0 0 0 0 0 0 0 0 0 0 0 0 0 0 0 82 747 1135 1399 1259 1105 1068 918 589 253 107 93 24 11 3 0 0 0 0 0 0 0 0 0
0 0 0 0 0 0 0 0 0 0 0 0 0 0 0 0 0 0 0 0 0 0 0 0 0 0 61 631 1156 1235 1082 1187 1011 558 198 164 117 32 18 4 0 0 0 0 0 0 0 0 0
0 0 0 0 0 0 0 0 0 0 0 0 0 0 0 0 0 0 0 0 0 0 0 0 0 0 150 510 1011 1195 1141 1369 686 495 336 255 77 61 26 2 9 0 0 0 0 0 0 0 0
0 0 0 0 0 0 0 0 0 0 0 0 0 0 0 0 0 0 0 0 0 0 0 0 0 7 305 579 908 1089 789 561 667 686 592 402 170 98 118 11 0 0 0 0 0 0 0 0 0
0 0 0 0 0 0 0 0 0 0 0 0 0 0 0 0 0 0 0 0 0 0 0 0 0 115 417 563 404 232 382 515 617 621 546 398 204 105 32 8 0 0 0 0 0 0 0 0 0
0 0 0 0 0 0 0 0 0 0 0 0 0 0 0 0 0 0 0 0 0 0 0 0 13 272 390 283 188 50 344 573 560 559 347 274 211 166 16 10 6 0 0 0 0 0 0 0 0
0 0 0 0 0 0 0 0 0 0 0 0 0 0 0 0 0 0 0 0 0 0 0 0 35 158 223 35 11 74 353 570 553 442 264 217 256 123 25 12 5 0 0 0 0 0 0 0 0
0 0 0 0 0 0 0 0 0 0 0 0 0 0 0 0 0 0 0 0 0 0 0 0 0 24 0 13 47 176 465 642 629 394 193 203 228 36 11 0 0 0 0 0 0 0 0 0 0
0 0 0 0 0 0 0 0 0 0 0 0 0 0 0 0 0 0 0 0 0 0 0 0 0 0 0 6 109 331 520 662 731 330 243 222 160 22 0 0 0 0 0 0 0 0 0 0 0
0 0 0 0 0 0 0 0 0 0 0 0 0 0 0 0 0 0 0 0 0 0 0 0 0 0 0 6 181 401 600 732 520 290 309 189 43 49 0 0 0 0 0 0 0 0 0 0 0
0 0 0 0 0 0 0 0 0 0 0 0 0 0 0 0 0 0 0 0 0 0 0 0 0 0 0 0 138 455 656 731 620 405 165 16 7 3 4 0 0 0 0 0 0 0 0 0 0
0 0 0 0 0 0 0 0 0 0 0 0 0 0 0 0 0 0 0 0 0 0 0 0 0 0 0 0 44 372 320 447 562 327 99 248 64 2 0 0 0 0 0 0 0 0 0 0 0
0 0 0 0 0 0 0 0 0 0 0 0 0 0 0 0 0 0 0 0 0 0 0 0 0 0 0 0 0 190 274 344 306 311 155 65 9 16 0 0 0 0 0 0 0 0 0 0 0
0 0 0 0 0 0 0 0 0 0 0 0 0 0 0 0 0 0 0 0 0 0 0 0 0 0 0 0 0 161 219 306 342 231 191 2 3 0 0 0 0 0 0 0 0 0 0 0 0
0 0 0 0 0 0 0 0 0 0 0 0 0 0 0 0 0 0 0 0 0 0 0 0 0 0 0 0 18 180 235 104 95 330 12 0 0 0 0 0 0 0 0 0 0 0 0 0 0

GFSSGP_con_mucape_039.txt.gz
CAPE
10 0 0 0 0 0 0 0 0 0 0 0 0 0 0 0 39 69 85 215 232 831 852 1265 1807 1243 670 333 42 0 0 0 0 4 110 53 44 19 7 0 0 0 0 1 29 45 42 7 3
0 0 0 0 0 0 0 0 0 0 0 0 0 0 0 5 1 132 183 205 277 813 1057 1337 1670 1332 649 157 31 18 0 0 0 0 39 15 0 1 0 0 0 0 0 0 0 3 2 0 1
0 0 0 0 0 0 0 0 0 0 0 0 0 0 0 26 14 130 295 257 465 835 1215 1634 1731 1322 750 143 71 35 22 0 0 0 34 0 0 0 0 0 0 0 0 0 0 0 0 0 0
0 0 0 0 0 0 0 0 0 0 0 0 0 0 0 0 56 144 327 307 670 876 1194 1514 1720 1399 1043 463 108 48 0 0 0 61 24 9 2 0 0 0 0 0 0 0 0 0 0 0 0
0 0 0 0 0 0 0 0 0 0 0 0 0 0 0 10 61 298 417 360 707 828 1214 1517 1823 1565 1186 513 171 74 3 0 0 18 6 0 0 0 0 0 0 0 0 0 0 0 0 0 0
0 0 0 0 0 0 0 0 0 0 0 0 0 0 6 105 154 405 534 464 592 779 971 1263 1682 1576 1337 834 404 125 39 0 0 0 0 0 8 15 18 9 1 0 0 0 0 6 1 0 0
0 0 0 0 0 0 0 0 0 0 0 0 0 0 6 6 433 580 598 556 629 794 901 1269 1310 1303 1227 1079 856 556 135 106 44 51 31 39 27 6 15 51 22 2 0 0 13 0 0 0 0
0 0 0 0 0 0 0 0 0 0 0 0 0 0 0 35 585 641 600 717 740 765 848 1039 1125 1395 1174 981 930 757 559 279 188 126 88 63 0 2 401 238 60 10 0 0 9 0 27 0 0
0 11 0 0 0 0 0 0 0 0 0 0 0 0 0 0 522 640 667 795 835 796 855 893 952 1139 1250 1181 905 650 542 351 177 64 42 7 16 2 49 46 127 64 46 14 4 0 0 0 0
2 2 0 0 0 0 0 0 0 0 0 0 0 0 0 0 196 592 670 752 849 881 812 943 984 1023 897 1016 1009 719 429 241 71 0 0 12 13 5 7 34 69 49 0 0 0 0 0 0 8
0 6 0 0 0 0 0 0 0 0 0 0 0 0 0 0 1 352 590 598 749 891 1004 1091 1181 1106 934 747 1259 846 683 418 222 25 0 0 4 0 0 0 0 0 0 3 0 2 0 0 0
0 0 0 0 0 0 0 0 0 0 0 0 0 0 0 0 0 19 144 358 452 744 1029 1116 1321 1381 1205 1047 809 866 838 560 377 66 0 0 0 0 0 0 3 1 3 13 30 0 0 0 0
0 0 0 0 0 0 0 0 0 0 0 0 0 0 0 0 0 0 0 140 238 439 799 1087 1215 1538 1536 1333 968 860 726 636 508 147 10 3 1 2 0 1 2 11 4 0 0 0 0 0 0
2 0 0 0 0 0 0 0 0 0 0 0 0 0 0 0 0 0 0 0 197 282 515 784 1152 1379 1637 1554 1288 979 845 751 896 248 119 74 77 81 25 23 2 0 0 0 0 0 0 0 0
1 0 0 0 0 0 0 0 0 0 0 0 0 0 0 0 0 0 0 0 0 8 165 297 734 1192 1426 1594 1551 1180 1037 957 919 447 199 167 204 90 55 0 0 0 1 0 0 0 0 0 0
0 0 0 0 0 0 0 0 0 0 0 0 0 0 0 0 0 0 0 0 0 0 0 0 0 419 1060 1261 1533 1288 1152 1077 1270 655 451 294 183 60 16 6 0 0 0 0 0 0 0 0 0
0 0 0 0 0 0 0 0 0 0 0 0 0 0 0 0 0 0 0 0 0 0 0 0 0 0 192 822 1154 1348 1214 1210 1401 917 655 398 139 54 12 8 0 0 0 0 0 0 0 0 0
0 0 0 0 0 0 0 0 0 0 0 0 0 0 0 0 0 0 0 0 0 0 0 0 0 0 0 145 635 1252 1328 1217 1089 1055 743 397 118 69 21 4 15 0 0 0 0 0 0 0 0
0 0 0 0 0 0 0 0 0 0 0 0 0 0 0 0 0 0 0 0 0 0 0 0 0 0 0 209 621 1223 1478 1330 1216 1083 625 332 189 102 109 25 54 14 0 0 0 0 0 0 0
0 0 0 0 0 0 0 0 0 0 0 0 0 0 0 0 0 0 0 0 0 0 0 0 0 0 17 376 767 1152 1009 1079 1139 1136 496 490 363 289 189 118 67 19 0 0 0 0 0 0 0
0 0 0 0 0 0 0 0 0 0 0 0 0 0 0 0 0 0 0 0 0 0 0 0 0 6 137 454 846 887 879 819 839 838 484 515 489 364 261 130 62 0 7 0 0 0 0 0 0
0 0 0 0 0 0 0 0 0 0 0 0 0 0 0 0 0 0 0 0 0 0 0 0 0 21 310 728 643 452 372 403 338 379 409 542 400 249 201 74 69 70 3 0 0 0 0 0 0
0 0 0 0 0 0 0 0 0 0 0 0 0 0 0 0 0 0 0 0 0 0 0 0 0 38 395 561 454 114 3 0 55 297 451 492 277 222 157 81 14 4 0 0 0 0 0 0 0
0 0 0 0 0 0 0 0 0 0 0 0 0 0 0 0 0 0 0 0 0 0 0 4 0 55 254 437 22 0 8 0 55 357 502 404 281 152 128 61 2 0 0 0 0 0 0 0 0
0 0 0 0 0 0 0 0 0 0 0 0 0 0 0 0 0 0 0 0 0 0 0 0 0 22 86 13 2 0 16 0 79 436 442 469 262 170 181 12 2 0 0 0 0 0 0 0 0
0 0 0 0 0 0 0 0 0 0 0 0 0 0 0 0 0 0 0 0 0 0 0 0 0 0 0 0 0 51 0 9 289 528 688 376 262 226 16 2 9 0 0 0 0 0 0 0 0
0 0 0 0 0 0 0 0 0 0 0 0 0 0 0 0 0 0 0 0 0 0 0 0 0 0 0 0 0 0 0 185 496 572 547 366 389 193 9 0 1 0 0 0 0 0 0 0 0
0 0 0 0 0 0 0 0 0 0 0 0 0 0 0 0 0 0 0 0 0 0 0 0 0 0 0 0 0 0 13 494 539 637 564 379 212 18 11 44 2 0 0 0 0 0 0 0 0
0 0 0 0 0 0 0 0 0 0 0 0 0 0 0 0 0 0 0 0 0 0 0 1 1 0 0 0 0 0 165 542 418 422 442 245 179 47 29 2 0 0 0 0 0 0 0 0 0
0 0 0 0 0 0 0 0 0 0 0 0 0 6 0 0 0 0 0 0 0 0 6 4 1 0 0 0 0 2 139 96 173 233 206 144 22 15 1 0 0 0 0 0 0 0 0 0 0

GFSSGP_con_mucape_042.txt.gz
CAPE
40 0 0 0 0 0 0 0 0 0 0 0 0 0 0 0 23 78 186 149 978 838 1070 1497 1639 1257 628 304 70 6 0 0 28 148 88 33 31 13 0 0 0 0 0 16 39 53 39 18 3
0 0 0 0 0 0 0 0 0 0 0 0 0 0 0 0 85 43 250 169 932 794 895 1115 1557 1274 603 134 24 0 0 0 0 0 157 48 24 1 0 0 0 0 0 0 0 0 6 0 2
0 0 0 0 0 0 0 0 0 0 0 0 0 0 0 25 3 136 269 219 851 826 945 1226 1484 1220 567 75 55 27 0 0 0 0 23 6 4 0 0 0 0 0 0 0 0 0 0 0 0
0 0 0 0 0 0 0 0 0 0 0 0 0 0 0 0 0 282 183 314 683 1006 1334 1333 1450 1227 752 470 71 32 0 0 0 21 25 0 0 0 0 0 0 0 0 0 0 0 0 0 0
0 0 0 0 0 0 0 0 0 0 0 0 0 0 10 21 120 269 193 439 649 1434 1454 1297 1505 1292 898 309 93 35 0 0 66 81 3 0 0 0 0 0 0 0 0 0 0 0 0 0 0
0 0 0 0 0 0 0 0 0 0 0 0 0 0 64 38 173 288 270 461 673 1507 1357 1143 1334 1275 1057 597 294 89 19 0 49 58 13 0 0 2 7 3 0 0 0 0 0 0 0 0 0
0 0 0 0 0 0 0 0 0 0 0 0 0 0 36 88 321 439 323 343 607 1181 1357 1098 1121 1066 965 751 595 364 154 61 76 91 76 97 66 16 41 29 6 0 0 0 0 0 0 0 0
0 0 0 0 0 0 0 0 0 0 0 0 0 0 35 219 481 508 423 448 525 775 1150 1137 1086 979 831 628 697 516 322 181 89 155 143 32 0 0 239 189 85 0 0 0 0 0 0 0 0
0 0 0 0 0 0 0 0 0 0 0 0 0 0 0 210 471 477 489 589 539 722 813 1147 1243 1119 893 660 644 573 429 200 116 67 30 0 0 22 72 49 85 73 19 7 2 0 0 0 0
0 0 0 0 0 0 0 0 0 0 0 0 0 0 0 0 342 525 523 620 642 644 718 785 1091 1279 1088 986 637 425 323 101 31 2 0 0 0 23 80 38 84 142 55 18 0 0 0 0 0
0 0 0 0 0 0 0 0 0 0 0 0 0 0 0 0 1 368 452 535 638 668 646 716 789 1065 1111 1174 889 529 322 158 35 1 0 0 0 0 7 5 23 2 0 0 0 2 0 0 0
0 0 0 0 0 0 0 0 0 0 0 0 0 0 0 0 0 0 253 383 550 701 751 834 840 880 765 1163 951 822 487 378 188 74 0 0 0 0 0 0 0 0 0 0 2 0 0 0 0
0 0 0 0 0 0 0 0 0 0 0 0 0 0 0 0 0 0 0 31 245 548 812 898 995 1097 967 828 1032 760 499 448 390 223 0 0 0 0 0 0 0 0 3 0 0 0 0 0 0
1 0 0 0 0 0 0 0 0 0 0 0 0 0 0 0 0 0 0 0 2 93 748 958 978 1298 1288 1098 898 878 756 643 391 337 49 0 0 0 0 0 0 0 0 0 0 0 0 0 0
9 0 0 0 0 0 0 0 0 0 0 0 0 0 0 0 0 0 0 0 0 39 340 665 951 1136 1445 1373 1220 860 799 846 566 402 235 22 27 34 6 7 3 0 0 0 0 0 0 0 0
0 0 0 0 0 0 0 0 0 0 0 0 0 0 0 0 0 0 0 0 0 0 35 293 720 1000 1248 1472 1390 1166 1008 772 753 495 392 137 231 142 62 33 0 0 0 0 0 0 0 0 0
1 0 0 0 0 0 0 0 0 0 0 0 0 0 0 0 0 0 0 0 0 0 0 0 163 888 1134 1273 1456 1346 1125 962 818 627 542 262 340 231 30 11 0 0 0 0 0 0 0 0 0
0 0 0 0 0 0 0 0 0 0 0 0 0 0 0 0 0 0 0 0 0 0 0 0 0 4 173 949 1139 1350 1202 1049 866 720 585 456 401 189 58 0 0 0 0 0 0 0 0 0 0
2 0 0 0 0 0 0 0 0 0 0 0 0 0 0 0 0 0 0 0 0 0 0 0 0 0 0 1 598 1102 1168 1055 1121 843 800 603 480 257 151 33 0 0 0 10 0 0 0 0 0
0 0 0 0 0 0 0 0 0 0 0 0 0 0 0 0 0 0 0 0 0 0 0 0 0 0 0 0 4 429 1068 1195 1094 1010 843 738 493 337 194 109 84 19 0 0 5 0 0 0 0
0 0 0 0 0 0 0 0 0 0 0 0 0 0 0 0 0 0 0 0 0 0 0 0 0 0 0 0 87 463 1043 1026 1167 1166 1030 861 633 423 270 220 206 129 20 0 2 0 0 0 0
0 0 0 0 0 0 0 0 0 0 0 0 0 0 0 0 0 0 0 0 0 0 0 0 0 0 0 0 221 550 965 983 1100 1096 890 806 657 423 371 309 262 162 61 28 6 0 0 0 0
0 0 0 0 0 0 0 0 0 0 0 0 0 0 0 0 0 0 0 0 0 0 0 0 0 0 0 0 385 553 793 915 925 856 787 725 686 382 384 301 230 142 94 4 0 0 0 0 0
0 0 0 0 0 0 0 0 0 0 0 0 0 0 0 0 0 0 0 0 0 0 0 0 0 0 9 163 635 738 876 754 790 669 547 506 476 348 392 235 217 140 49 12 0 0 0 0 0
0 0 0 0 0 0 0 0 0 0 0 0 0 0 0 0 0 0 0 0 0 0 0 0 0 0 117 449 456 552 603 389 222 158 243 193 283 393 344 260 213 251 0 0 0 0 0 0 0
0 0 0 0 0 0 0 0 0 0 0 0 0 0 0 0 0 0 0 0 0 0 0 0 0 4 189 375 411 382 169 32 0 0 0 35 269 360 316 211 145 60 0 0 0 0 0 0 0
0 0 0 0 0 0 0 0 0 0 0 0 0 0 0 0 0 0 0 0 0 0 0 0 0 11 182 339 385 125 0 0 0 0 5 190 465 338 297 218 167 10 4 0 0 0 0 0 0
0 0 0 0 0 0 0 0 0 0 0 0 0 0 0 0 0 0 0 0 0 0 0 0 0 7 98 199 41 2 2 15 0 0 181 357 353 370 356 172 5 6 0 0 0 0 0 0 0
0 0 0 0 0 0 0 0 0 0 0 0 0 0 0 0 0 0 0 0 0 0 0 0 18 44 61 28 8 1 30 13 0 32 233 399 375 201 263 40 5 5 2 0 0 0 0 0 0
0 0 0 0 0 0 0 0 0 0 0 0 0 0 0 0 0 0 0 0 0 6 23 25 92 25 27 16 5 29 34 12 21 168 288 166 337 51 56 61 1 2 6 0 0 0 0 0 0

GFSSGP_con_mucape_045.txt.gz
CAPE
11 0 0 0 0 0 0 0 0 0 0 0 0 0 0 0 1 17 33 304 488 917 1039 1187 1538 1294 936 492 393 340 313 369 353 176 30 17 5 0 0 0 1 10 29 33 60 45 36 32 18
0 0 0 0 0 0 0 0 0 0 0 0 0 0 0 45 17 100 677 688 673 976 1078 1062 1416 1187 583 241 69 38 29 34 178 199 64 34 3 0 0 0 0 0 3 4 1 2 3 0 0
0 0 0 0 0 0 0 0 0 0 0 0 0 0 0 9 6 156 372 917 897 985 1090 1094 1377 1128 551 158 53 29 1 0 0 354 73 18 1 3 0 0 0 0 0 0 0 0 0 0 0
0 0 0 0 0 0 0 0 0 0 0 0 0 0 0 0 136 183 609 1063 917 905 1018 1227 1309 941 545 435 137 27 0 0 6 76 16 0 0 4 0 0 0 0 0 0 0 0 0 0 0
0 0 0 0 0 0 0 0 0 0 0 0 0 0 0 166 271 175 514 956 929 998 964 1063 1280 922 733 505 212 28 0 2 59 25 0 0 1 3 0 0 0 0 0 0 0 0 0 0 0
0 0 0 0 0 0 0 0 0 0 0 0 0 0 20 157 170 239 381 947 1175 1189 973 1005 1051 922 790 529 261 105 40 203 467 211 27 3 2 1 0 0 0 0 0 0 1 0 0 0 0
0 0 0 0 0 0 0 0 0 0 0 0 0 0 40 136 265 224 430 1294 1343 1373 1246 993 829 707 645 526 384 198 114 341 312 217 86 53 110 75 12 0 0 0 0 0 0 0 0 0 0
0 0 0 0 0 0 0 0 0 0 0 0 0 0 165 222 411 259 428 1402 1495 1357 1069 950 854 706 533 390 415 243 130 189 255 246 156 30 0 46 215 97 26 0 0 0 0 0 0 0 0
0 0 0 0 0 0 0 0 0 0 0 0 0 0 246 362 491 377 310 893 1350 1320 997 884 886 758 572 404 321 304 228 111 134 83 19 0 0 0 25 21 69 45 5 0 0 0 0 0 0
0 0 0 0 0 0 0 0 0 0 0 0 0 0 288 345 456 436 453 469 852 1150 1067 911 873 711 645 573 404 200 79 25 13 27 8 0 0 22 132 42 45 148 128 71 5 0 0 0 0
0 0 0 0 0 0 0 0 0 0 0 0 0 0 0 239 407 493 568 526 532 709 1116 1077 1031 879 802 696 444 296 165 38 13 10 8 0 4 36 60 40 40 50 17 1 3 0 0 0 0
0 0 0 0 0 0 0 0 0 0 0 0 0 0 0 0 73 401 457 573 605 572 661 944 1303 1106 963 908 636 470 306 98 20 0 0 2 8 83 47 18 0 0 0 0 0 0 0 0 0
0 0 0 0 0 0 0 0 0 0 0 0 0 0 0 0 0 0 94 301 532 664 634 670 1033 1068 1161 1129 938 646 465 196 173 112 0 0 2 6 2 0 0 0 0 0 0 0 0 0 0
0 0 0 0 0 0 0 0 0 0 0 0 0 0 0 0 0 0 0 0 56 405 718 664 708 960 1236 1161 1018 776 578 326 350 338 216 0 4 5 0 0 0 0 0 0 0 0 0 0 0
0 0 0 0 0 0 0 0 0 0 0 0 0 0 0 0 0 0 0 0 0 0 601 782 877 937 938 1103 986 928 751 581 461 464 341 140 0 0 0 0 0 0 0 0 0 0 0 0 0
0 0 0 0 0 0 0 0 0 0 0 0 0 0 0 0 0 0 0 0 0 0 0 837 926 1126 1224 1147 1173 1061 940 830 633 599 413 249 12 8 3 2 0 1 0 0 0 0 0 0 0
0 0 0 0 0 0 0 0 0 0 0 0 0 0 0 0 0 0 0 0 0 0 0 505 963 1032 1394 1426 1327 1280 921 899 752 663 541 444 97 93 119 65 37 7 0 0 0 0 0 0 0
0 0 0 0 0 0 0 0 0 0 0 0 0 0 0 0 0 0 0 0 0 0 0 0 580 950 1299 1503 1504 1416 1215 949 791 733 616 542 248 187 199 140 86 2 0 0 0 0 0 0 0
0 0 0 0 0 0 0 0 0 0 0 0 0 0 0 0 0 0 0 0 0 0 0 0 0 698 998 1279 1454 1441 1427 1276 931 988 811 567 391 308 352 185 83 31 8 0 0 0 0 0 0
1 0 0 0 0 0 0 0 0 0 0 0 0 0 0 0 0 0 0 0 0 0 0 0 0 56 959 1125 1228 1382 1439 1297 1221 798 837 670 582 413 387 220 176 85 58 6 0 0 0 0 0
0 0 0 0 0 0 0 0 0 0 0 0 0 0 0 0 0 0 0 0 0 0 0 0 0 0 190 725 721 958 1193 1134 1073 856 777 662 636 549 476 291 235 131 138 79 32 3 2 7 0
0 0 0 0 0 0 0 0 0 0 0 0 0 0 0 0 0 0 0 0 0 0 0 0 0 0 0 0 4 70 696 929 1098 934 824 777 771 691 528 373 238 203 209 182 75 1 0 0 0
0 0 0 0 0 0 0 0 0 0 0 0 0 0 0 0 0 0 0 0 0 0 0 0 0 0 0 0 0 7 294 803 939 951 890 864 785 660 521 318 276 246 268 207 178 92 9 0 0
0 0 0 0 0 0 0 0 0 0 0 0 0 0 0 0 0 0 0 0 0 0 0 0 0 0 0 0 5 15 102 585 825 804 807 742 721 490 348 349 258 310 259 178 143 45 23 0 0
0 0 0 0 0 0 0 0 0 0 0 0 0 0 0 0 0 0 0 0 0 0 0 0 0 0 0 0 8 41 129 593 885 610 572 518 475 493 409 241 283 282 190 146 118 33 1 0 0
0 0 0 0 0 0 0 0 0 0 0 0 0 0 0 0 0 0 0 0 0 0 0 0 0 0 0 6 35 219 390 561 779 525 397 341 324 325 207 208 394 269 222 179 128 1 5 1 0
0 0 0 0 0 0 0 0 0 0 0 0 0 0 0 0 0 0 0 0 0 0 0 0 0 0 0 128 277 557 680 722 646 419 414 356 263 210 127 60 426 285 217 156 47 5 4 0 0
0 0 0 0 0 0 0 0 0 0 0 0 0 0 0 0 0 0 0 0 0 0 0 0 0 0 132 333 366 534 657 667 483 343 270 81 37 70 42 257 181 277 148 59 26 8 0 0 0
0 0 0 0 0 0 0 0 0 0 0 0 0 0 0 0 0 0 0 0 0 0 0 0 0 0 234 207 319 352 476 346 317 234 45 10 20 77 174 280 283 152 109 19 14 1 0 0 0
0 0 0 0 0 0 0 0 0 0 0 0 0 0 0 0 0 0 14 0 0 0 14 36 0 83 254 220 193 311 329 271 185 36 43 9 73 144 137 261 162 100 46 18 1 0 1 0 0

GFSSGP_con_mucape_048.txt.gz
CAPE
6 0 0 0 0 0 0 0 0 0 0 0 0 0 0 0 2 0 88 212 635 865 996 1008 1349 1361 1513 1121 971 860 753 750 408 160 14 9 1 0 0 7 32 77 56 44 38 48 43 38 17
0 0 0 0 0 0 0 0 0 0 0 0 0 0 0 0 58 176 303 456 709 775 890 872 1354 1325 1042 813 668 585 633 594 389 136 23 11 0 0 0 2 15 19 31 44 27 8 5 1 0
0 0 0 0 0 0 0 0 0 0 0 0 0 0 0 0 2 214 366 551 748 858 906 942 1324 1163 670 445 313 189 182 380 361 286 115 8 1 0 0 0 4 11 8 4 1 0 0 0 0
0 0 0 0 0 0 0 0 0 0 0 0 0 0 0 0 79 180 611 696 814 921 917 1143 1288 1066 664 392 242 75 51 52 299 387 92 3 3 0 0 0 0 0 0 0 0 0 0 0 0
0 0 0 0 0 0 0 0 0 0 0 0 0 0 0 31 72 725 797 787 797 923 911 1031 1302 824 522 354 172 89 43 22 444 118 56 0 3 0 0 0 0 0 0 0 0 0 0 0 0
0 0 0 0 0 0 0 0 0 0 0 0 0 0 0 100 152 950 989 896 817 884 881 929 897 730 715 494 261 166 170 382 358 186 15 1 8 1 0 0 0 1 3 4 2 0 0 0 0
0 0 0 0 0 0 0 0 0 0 0 0 0 0 49 114 130 850 1037 958 905 869 810 869 592 547 610 515 335 230 317 452 476 306 141 79 90 27 0 0 0 0 2 2 0 0 0 0 0
0 0 0 0 0 0 0 0 0 0 0 0 0 0 50 151 126 404 990 1054 1033 1069 964 821 580 502 421 322 300 237 461 556 436 354 201 142 111 127 70 17 0 0 0 1 0 0 0 0 0
0 0 0 0 0 0 0 0 0 0 0 0 0 0 5 178 145 456 1238 1267 1277 1272 1219 986 750 501 401 303 176 192 222 303 269 173 54 41 37 72 106 21 31 32 15 13 4 11 8 0 0
0 0 0 0 0 0 0 0 0 0 0 0 0 33 223 311 268 148 1291 1448 1476 1454 1202 872 653 536 403 330 232 102 48 83 82 41 16 15 5 0 31 52 55 166 130 121 25 13 0 0 0
0 0 0 0 0 0 0 0 0 0 0 0 0 143 260 314 430 255 692 1350 1455 1339 1065 815 712 607 457 388 258 129 53 13 41 25 15 0 0 34 193 115 51 56 81 16 15 1 0 0 0
0 0 0 0 0 0 0 0 0 0 0 0 0 0 0 147 387 400 349 850 1057 1254 1090 938 841 720 594 506 387 219 78 19 6 35 19 0 0 74 188 118 61 43 35 0 0 0 0 0 0
0 0 0 0 0 0 0 0 0 0 0 0 0 0 0 0 0 308 409 430 686 862 1128 1144 984 930 830 740 621 409 282 147 34 0 10 14 6 31 146 131 57 1 0 0 0 0 0 0 0
0 0 0 0 0 0 0 0 0 0 0 0 0 0 0 0 0 0 108 390 466 553 672 1009 1179 1101 1019 946 826 617 555 417 241 0 0 0 7 25 152 82 11 0 0 0 0 0 0 0 0
0 0 0 0 0 0 0 0 0 0 0 0 0 0 0 0 0 0 0 0 49 163 595 682 1127 1332 1179 1086 1061 880 770 630 389 130 43 12 0 56 145 4 0 0 0 2 0 0 0 0 0
4 0 0 0 0 0 0 0 0 0 0 0 0 0 0 0 0 0 0 0 0 0 0 421 734 987 1273 1228 1284 1137 857 855 565 353 331 251 111 12 25 0 0 4 0 0 0 0 0 0 0
0 0 0 0 0 0 0 0 0 0 0 0 0 0 0 0 0 0 0 0 0 0 0 0 443 767 973 1232 1327 1287 989 962 842 621 570 462 328 20 0 0 8 13 12 18 11 0 0 0 0
0 0 0 0 0 0 0 0 0 0 0 0 0 0 0 0 0 0 0 0 0 0 0 0 147 697 878 971 1077 1191 1041 987 1012 880 700 708 484 198 15 21 31 29 34 39 1 0 0 0 0
0 0 0 0 0 0 0 0 0 0 0 0 0 0 0 0 0 0 0 0 0 0 0 0 0 351 873 890 848 851 1015 978 1074 1068 904 854 758 493 154 97 123 77 58 14 4 0 0 0 0
0 0 0 0 0 0 0 0 0 0 0 0 0 0 0 0 0 0 0 0 0 0 0 0 0 0 547 959 1080 1010 1038 1111 1095 967 879 889 726 543 306 167 227 221 100 34 17 1 0 0 0
0 0 0 0 0 0 0 0 0 0 0 0 0 0 0 0 0 0 0 0 0 0 0 0 0 0 30 746 1107 1163 1077 884 937 915 773 831 699 567 375 292 344 393 157 105 61 35 19 31 0
0 0 0 0 0 0 0 0 0 0 0 0 0 0 0 0 0 0 0 0 0 0 0 0 0 0 0 311 860 958 783 738 793 953 854 744 722 568 427 356 462 423 232 181 126 150 72 36 1
0 0 0 0 0 0 0 0 0 0 0 0 0 0 0 0 0 0 0 0 0 0 0 0 0 0 0 0 149 783 844 641 706 925 910 724 598 547 525 426 422 400 279 246 183 261 141 102 47
0 0 0 0 0 0 0 0 0 0 0 0 0 0 0 0 0 0 0 0 0 0 0 0 0 0 0 0 0 2 338 799 735 780 771 681 592 558 404 403 480 466 299 247 184 234 153 116 82
0 0 0 0 0 0 0 0 0 0 0 0 0 0 0 0 0 0 0 0 0 0 0 0 0 0 0 0 0 0 14 356 757 735 746 647 511 489 341 227 208 250 220 177 190 160 141 86 58
0 0 0 0 0 0 0 0 0 0 0 0 0 0 0 0 0 0 0 0 0 0 0 0 0 0 0 0 0 0 0 19 128 556 707 655 511 242 204 149 149 175 140 170 394 142 211 76 39
0 0 0 0 0 0 0 0 0 0 0 0 0 0 0 0 0 0 0 0 0 0 0 0 0 0 0 0 0 0 0 0 14 199 584 447 357 131 109 98 104 141 201 175 244 128 81 22 30
0 0 0 0 0 0 0 0 0 0 0 0 0 0 0 0 0 0 0 0 0 0 0 0 0 0 0 0 0 0 0 1 46 105 343 286 101 75 75 87 128 200 184 124 94 201 35 11 6
0 0 0 0 0 0 0 0 0 0 0 0 0 0 0 0 0 0 0 0 0 0 0 0 0 0 0 0 0 0 0 67 187 171 220 195 53 91 128 175 115 244 19 107 107 11 5 0 2
0 0 0 0 0 0 0 0 0 0 0 0 0 0 0 0 0 0 0 0 0 0 0 3 8 12 8 15 31 38 406 303 353 339 162 116 179 164 97 44 96 25 167 25 103 0 0 2 0

GFSSGP_con_mucape_051.txt.gz
CAPE
0 0 0 0 0 0 0 0 0 0 0 0 0 0 0 0 0 0 49 357 541 885 1035 1247 1665 1661 1575 1415 1224 1337 1120 858 517 69 15 5 0 0 0 10 13 61 14 12 71 76 78 55 33
0 0 0 0 0 0 0 0 0 0 0 0 0 0 0 0 21 66 239 341 764 856 928 857 1484 1544 1601 1210 1018 839 595 438 323 153 62 5 0 0 1 10 31 83 51 60 61 25 12 8 3
0 0 0 0 0 0 0 0 0 0 0 0 0 0 0 0 3 130 148 649 769 788 734 672 1250 1594 1306 1014 874 811 778 593 362 189 61 6 1 0 0 6 20 28 20 19 4 0 0 1 0
0 0 0 0 0 0 0 0 0 0 0 0 0 0 0 0 10 123 467 685 644 789 731 933 1218 1335 1218 954 673 595 658 665 419 243 96 1 3 0 0 3 10 11 7 4 0 0 0 0 0
0 0 0 0 0 0 0 0 0 0 0 0 0 0 0 0 57 435 639 627 659 802 803 951 1266 1014 655 421 301 292 208 371 480 458 116 28 0 0 0 0 0 0 0 0 0 0 0 0 0
0 0 0 0 0 0 0 0 0 0 0 0 0 0 0 0 544 591 710 638 696 764 865 895 1010 846 570 370 268 222 252 348 857 420 112 35 0 0 0 0 0 0 0 0 0 0 0 0 0
0 0 0 0 0 0 0 0 0 0 0 0 0 0 0 52 672 810 715 676 739 802 824 870 642 445 552 508 336 282 296 430 575 414 168 153 62 0 0 0 0 2 2 2 0 0 0 0 0
0 0 0 0 0 0 0 0 0 0 0 0 0 0 0 122 667 931 844 760 807 814 777 812 507 441 451 369 317 260 306 533 437 290 220 188 125 78 8 0 4 1 9 1 0 0 0 0 0
0 0 0 0 0 0 0 0 0 0 0 0 0 0 0 114 564 1056 1091 995 874 816 782 731 486 444 364 272 161 238 410 485 419 259 115 90 73 93 31 0 17 48 30 31 17 14 15 3 0
0 0 0 0 0 0 0 0 0 0 0 0 0 0 8 100 669 970 1073 1356 1648 1006 861 766 758 628 339 242 138 124 282 356 276 160 85 75 73 104 111 22 30 135 154 178 61 66 35 0 0
0 0 0 0 0 0 0 0 0 0 0 0 0 105 127 164 254 859 1033 1096 1403 1818 1087 1442 843 660 384 245 128 66 77 208 168 80 56 50 73 86 135 151 55 58 81 57 79 11 0 0 0
0 0 0 0 0 0 0 0 0 0 0 0 0 54 259 254 213 255 979 1147 1352 1686 1570 1273 909 643 405 245 157 55 19 49 109 72 42 56 53 14 68 122 138 63 71 14 1 0 0 0 0
0 0 0 0 0 0 0 0 0 0 0 0 0 0 91 197 306 361 269 768 1224 1418 1471 1313 947 722 549 389 222 134 78 10 26 28 27 25 15 0 99 177 177 106 55 2 0 0 0 0 0
0 0 0 0 0 0 0 0 0 0 0 0 0 0 0 0 0 0 357 385 618 1229 1393 1275 1034 862 730 652 533 417 340 134 47 9 28 29 16 2 105 177 153 110 32 1 0 0 0 0 0
0 0 0 0 0 0 0 0 0 0 0 0 0 0 0 0 0 0 0 24 442 525 851 1215 1150 1015 886 821 783 721 636 287 340 236 98 9 23 8 44 138 186 110 0 3 3 0 0 0 0
0 0 0 0 0 0 0 0 0 0 0 0 0 0 0 0 0 0 0 0 4 233 323 268 941 1069 1065 1016 949 839 781 582 636 504 184 0 0 0 20 64 186 20 0 0 9 0 0 0 0
10 0 0 0 0 0 0 0 0 0 0 0 0 0 0 0 0 0 0 0 0 0 0 0 71 1057 1092 1137 1083 979 921 778 794 676 392 78 66 41 0 68 140 1 10 8 14 3 2 0 0
0 0 0 0 0 0 0 0 0 0 0 0 0 0 0 0 0 0 0 0 0 0 0 0 0 256 952 1033 1079 1032 1042 1037 975 861 679 326 277 241 102 35 42 0 11 11 9 15 4 0 0
0 0 0 0 0 0 0 0 0 0 0 0 0 0 0 0 0 0 0 0 0 0 0 0 0 27 397 729 918 968 931 1002 1146 954 828 673 551 443 294 109 35 12 41 27 27 22 0 0 0
0 0 0 0 0 0 0 0 0 0 0 0 0 0 0 0 0 0 0 0 0 0 0 0 0 0 213 501 756 825 712 746 927 1013 920 866 723 670 468 212 115 67 89 89 69 31 0 0 0
0 0 0 0 0 0 0 0 0 0 0 0 0 0 0 0 0 0 0 0 0 0 0 0 0 0 6 463 656 758 720 610 654 751 877 1039 942 758 510 246 173 126 140 179 133 76 38 9 3
0 0 0 0 0 0 0 0 0 0 0 0 0 0 0 0 0 0 0 0 0 0 0 0 0 0 0 2 618 678 749 726 528 519 769 938 952 951 717 427 288 222 188 232 243 125 82 82 43
0 0 0 0 0 0 0 0 0 0 0 0 0 0 0 0 0 0 0 0 0 0 0 0 0 0 0 0 13 662 805 676 562 478 593 853 834 842 776 568 319 216 249 233 291 173 105 106 201
0 0 0 0 0 0 0 0 0 0 0 0 0 0 0 0 0 0 0 0 0 0 0 0 0 0 0 0 0 114 563 666 707 649 534 547 739 668 611 590 404 277 254 262 295 162 148 173 242
0 0 0 0 0 0 0 0 0 0 0 0 0 0 0 0 0 0 0 0 0 0 0 0 0 0 0 0 0 0 18 403 569 645 618 450 475 536 632 577 518 360 244 180 145 121 150 172 199
0 0 0 0 0 0 0 0 0 0 0 0 0 0 0 0 0 0 0 0 0 0 0 0 0 0 0 0 0 0 0 10 47 254 489 484 468 435 558 506 459 384 196 81 106 96 116 77 129
0 0 0 0 0 0 0 0 0 0 0 0 0 0 0 0 0 0 0 0 0 0 0 0 0 0 0 0 0 0 0 0 0 41 201 368 308 535 465 411 285 82 68 39 45 94 74 37 56
0 0 0 0 0 0 0 0 0 0 0 0 0 0 0 0 0 0 0 0 0 0 0 0 0 0 0 0 0 0 0 0 0 0 24 175 254 303 388 315 113 64 46 45 56 124 89 90 24
0 0 0 0 0 0 0 0 0 0 0 0 0 0 0 0 0 0 0 0 0 0 0 0 0 0 0 0 0 0 0 0 0 0 0 47 127 127 125 113 57 52 43 47 57 144 106 9 28
0 0 0 0 0 0 0 0 0 0 0 0 0 0 0 0 0 0 0 0 0 0 0 0 0 0 11 22 0 0 0 0 0 0 0 28 80 109 108 88 38 28 27 106 117 88 116 2 9

GFSSGP_con_mucape_054.txt.gz
CAPE
3 0 0 0 0 0 0 0 0 0 0 0 0 0 0 0 0 0 13 261 255 643 1160 1380 2012 1983 1955 1965 1530 1489 1008 641 175 87 37 0 0 0 0 1 10 33 2 32 84 79 70 57 20
0 0 0 0 0 0 0 0 0 0 0 0 0 0 0 0 12 34 197 317 561 924 1078 1253 1892 1922 1869 1576 1330 1084 767 496 312 108 57 0 0 0 2 47 68 36 5 67 63 35 16 5 0
0 0 0 0 0 0 0 0 0 0 0 0 0 0 0 0 2 76 129 442 808 972 864 1017 1828 1872 1842 1592 1307 931 710 422 336 159 76 6 0 0 1 11 84 69 33 13 3 0 0 0 0
0 0 0 0 0 0 0 0 0 0 0 0 0 0 0 0 1 98 344 765 831 843 712 850 1490 1852 1856 1555 1339 989 780 639 331 151 62 4 2 0 2 1 35 25 14 4 1 0 0 0 0
0 0 0 0 0 0 0 0 0 0 0 0 0 0 0 0 75 324 688 755 685 713 624 839 1409 1662 1349 1132 965 969 932 768 430 252 103 55 0 0 0 3 3 3 3 1 0 0 0 0 2
0 0 0 0 0 0 0 0 0 0 0 0 0 0 0 9 302 564 685 673 553 636 756 758 923 1097 1060 816 689 612 630 770 687 511 132 49 0 0 0 0 0 0 0 0 0 0 0 0 0
0 0 0 0 0 0 0 0 0 0 0 0 0 0 0 0 450 662 644 642 618 710 808 805 640 622 638 566 491 451 448 509 766 659 301 115 10 0 0 0 0 0 0 0 0 0 0 1 2
0 0 0 0 0 0 0 0 0 0 0 0 0 0 0 44 669 759 697 688 654 767 744 754 565 412 334 307 335 324 338 459 662 474 230 142 34 14 0 20 27 2 3 1 0 0 1 15 0
0 0 0 0 0 0 0 0 0 0 0 0 0 0 0 38 841 803 724 740 884 755 705 704 508 322 303 277 175 225 257 407 302 172 110 90 22 5 0 0 12 69 44 5 6 18 32 4 0
0 0 0 0 0 0 0 0 0 0 0 0 0 0 0 423 929 978 1258 1412 1392 1380 1465 608 535 317 272 243 160 117 179 273 226 141 95 94 77 72 32 2 26 120 132 139 66 99 61 0 0
0 0 0 0 0 0 0 0 0 0 0 0 0 0 0 498 948 1245 1693 966 960 1110 1611 1468 549 492 497 270 145 92 147 273 252 203 102 85 102 105 132 84 28 58 87 102 87 75 0 0 0
0 0 0 0 0 0 0 0 0 0 0 0 0 0 94 166 479 902 1010 1006 1042 1163 1094 1382 1161 718 626 404 186 78 64 224 316 200 142 94 102 110 137 171 129 59 48 49 47 0 0 0 0
0 0 0 0 0 0 0 0 0 0 0 0 0 0 139 201 267 277 404 827 1218 1501 1600 1671 1431 1101 711 536 301 110 27 91 204 199 125 65 58 77 72 49 121 125 40 30 6 0 0 0 0
0 0 0 0 0 0 0 0 0 0 0 0 0 0 5 222 249 279 341 351 708 1025 1265 1357 1462 1579 874 658 449 266 143 89 69 128 131 57 44 44 22 59 109 137 79 22 0 0 0 0 0
0 0 0 0 0 0 0 0 0 0 0 0 0 0 0 1 61 67 7 27 460 459 1000 1225 1584 1610 1155 787 637 485 382 264 267 100 14 49 33 24 9 52 120 131 90 13 0 0 0 0 0
0 0 0 0 0 0 0 0 0 0 0 0 0 0 0 0 0 0 0 0 0 12 269 794 1019 1219 1181 954 818 615 571 546 538 366 214 222 92 24 7 18 103 107 102 15 0 0 0 0 0
0 0 0 0 0 0 0 0 0 0 0 0 0 0 0 0 0 0 0 0 0 0 0 110 475 934 1081 1054 995 844 700 625 732 643 456 504 353 9 0 0 35 96 110 0 0 0 2 0 0
0 0 0 0 0 0 0 0 0 0 0 0 0 0 0 0 0 0 0 0 0 0 0 0 0 412 905 912 961 920 820 841 807 814 687 660 555 87 0 9 12 53 144 0 9 0 7 0 0
0 0 0 0 0 0 0 0 0 0 0 0 0 0 0 0 0 0 0 0 0 0 0 0 0 0 480 739 864 792 1283 903 912 1029 870 831 719 383 104 132 43 47 130 0 0 0 3 0 0
0 0 0 0 0 0 0 0 0 0 0 0 0 0 0 0 0 0 0 0 0 0 0 0 0 0 0 433 659 640 601 1181 842 897 942 877 875 712 362 323 172 71 89 21 13 33 17 2 1
0 0 0 0 0 0 0 0 0 0 0 0 0 0 0 0 0 0 0 0 0 0 0 0 0 0 0 34 402 598 707 608 913 770 812 942 902 849 648 513 415 118 59 46 59 77 59 55 39
0 0 0 0 0 0 0 0 0 0 0 0 0 0 0 0 0 0 0 0 0 0 0 0 0 0 0 0 180 298 334 420 531 752 762 811 829 897 823 686 625 289 122 65 108 127 111 60 42
0 0 0 0 0 0 0 0 0 0 0 0 0 0 0 0 0 0 0 0 0 0 0 0 0 0 0 0 0 318 326 361 419 468 648 708 715 794 792 696 653 473 206 109 157 155 92 101 132
0 0 0 0 0 0 0 0 0 0 0 0 0 0 0 0 0 0 0 0 0 0 0 0 0 0 0 0 0 20 276 322 438 574 593 627 662 727 687 626 653 457 244 234 201 140 115 118 142
0 0 0 0 0 0 0 0 0 0 0 0 0 0 0 0 0 0 0 0 0 0 0 0 0 0 0 0 0 0 6 181 391 420 543 531 400 456 621 568 484 433 405 312 238 154 103 63 87
0 0 0 0 0 0 0 0 0 0 0 0 0 0 0 0 0 0 0 0 0 0 0 0 0 0 0 0 0 0 0 0 90 255 235 357 426 371 360 539 420 364 301 332 298 151 77 44 87
0 0 0 0 0 0 0 0 0 0 0 0 0 0 0 0 0 0 0 0 0 0 0 0 0 0 0 0 0 0 0 0 0 13 56 122 204 238 326 307 570 399 366 347 218 96 51 56 54
0 0 0 0 0 0 0 0 0 0 0 0 0 0 0 0 0 0 0 0 0 0 0 0 0 0 0 0 0 0 0 0 0 0 0 15 39 63 154 207 216 274 321 219 110 55 45 67 48
0 0 0 0 0 0 0 0 0 0 0 0 0 0 0 0 0 0 0 0 0 0 0 0 0 0 0 0 0 0 0 0 0 0 0 0 0 2 37 130 138 138 125 190 72 44 31 26 20
0 0 0 0 0 0 0 0 0 0 0 0 0 0 0 0 0 0 0 0 0 0 0 0 0 0 0 0 0 2 0 0 0 0 0 0 0 0 2 72 52 37 49 86 56 46 26 152 15

GFSSGP_con_mucape_057.txt.gz
CAPE
11 0 0 0 0 0 0 0 0 0 0 0 0 0 0 0 0 0 6 298 162 649 1201 1160 1976 2039 2204 2280 2061 1593 1280 565 287 107 52 55 2 0 3 12 6 0 4 49 84 74 56 17 0
0 0 0 0 0 0 0 0 0 0 0 0 0 0 0 0 1 59 335 345 368 1003 985 1093 2025 2212 2325 2090 1615 1337 1006 499 334 121 25 2 0 0 25 97 52 6 58 115 95 39 9 0 0
0 0 0 0 0 0 0 0 0 0 0 0 0 0 0 0 0 131 123 523 769 1053 1049 1453 2073 2192 2052 1902 1634 1352 999 685 417 215 59 0 0 0 58 175 106 108 92 26 11 4 0 0 0
0 0 0 0 0 0 0 0 0 0 0 0 0 0 0 0 0 66 342 827 984 1022 1024 1551 1889 2131 2009 1832 1597 1272 870 451 343 206 9 0 0 0 46 54 122 124 12 0 0 0 0 0 0
0 0 0 0 0 0 0 0 0 0 0 0 0 0 0 0 84 398 791 915 928 925 802 979 1684 1875 1945 1764 1523 1317 1077 832 394 255 79 23 1 0 5 3 39 40 0 1 0 0 0 0 2
0 0 0 0 0 0 0 0 0 0 0 0 0 0 0 41 332 1041 893 774 879 823 712 792 1104 1556 1520 1502 1453 1352 1310 1161 626 379 147 61 0 0 2 1 3 0 2 0 0 0 0 0 0
0 0 0 0 0 0 0 0 0 0 0 0 0 0 0 0 373 1237 915 846 719 770 737 731 776 871 907 950 864 850 885 956 767 686 356 97 6 0 0 0 0 0 0 0 0 0 0 1 0
0 0 0 0 0 0 0 0 0 0 0 0 0 0 0 0 697 1302 742 706 642 749 766 707 629 621 598 501 433 420 428 451 608 577 266 54 0 0 0 0 2 2 3 4 1 4 10 6 0
0 0 0 0 0 0 0 0 0 0 0 0 0 0 0 36 1158 1489 1105 1013 1295 772 730 661 524 486 385 326 247 248 255 261 569 324 159 42 3 0 0 0 47 95 36 1 6 11 46 0 0
0 0 0 0 0 0 0 0 0 0 0 0 0 0 61 805 1284 1594 1259 884 1156 869 670 553 533 388 291 206 204 188 185 186 429 207 166 127 70 38 3 0 27 144 127 112 77 104 1 0 0
0 0 0 0 0 0 0 0 0 0 0 0 0 0 27 1100 1276 1311 1557 719 1017 862 1175 958 556 378 264 216 190 135 176 276 289 189 144 140 109 105 93 50 37 93 77 105 127 113 0 0 0
0 0 0 0 0 0 0 0 0 0 0 0 0 0 0 172 952 1147 1338 1368 1420 1557 1140 1222 651 459 310 328 257 143 108 192 257 218 126 120 118 118 156 148 88 96 95 105 90 30 0 0 0
0 0 0 0 0 0 0 0 0 0 0 0 0 0 0 33 130 266 733 1055 1206 1352 1379 1510 1385 968 488 474 416 259 107 139 212 198 148 102 88 84 94 152 166 111 72 56 41 0 0 0 0
0 0 0 0 0 0 0 0 0 0 0 0 0 0 0 0 115 179 237 236 711 797 854 1183 1199 1240 894 572 486 436 226 108 136 178 187 129 83 60 51 60 77 129 84 40 9 0 0 0 0
0 0 0 0 0 0 0 0 0 0 0 0 0 0 0 0 38 152 228 199 160 578 927 919 692 1437 1523 1253 738 582 491 277 162 112 125 143 89 21 23 29 25 79 81 46 0 0 0 0 0
0 0 0 0 0 0 0 0 0 0 0 0 0 0 0 0 0 34 95 70 36 0 88 814 802 654 1150 1367 1236 798 594 382 342 277 245 142 84 45 11 15 25 47 68 70 1 0 0 0 0
0 0 0 0 0 0 0 0 0 0 0 0 0 0 0 0 0 0 0 5 0 0 0 0 666 869 915 1128 1130 1022 756 572 421 405 428 470 176 194 134 13 7 25 74 68 36 0 0 0 0
0 0 0 0 0 0 0 0 0 0 0 0 0 0 0 0 0 0 0 0 0 0 0 0 0 626 970 858 1318 844 684 539 550 516 547 610 537 379 296 164 0 0 59 93 59 0 0 0 0
0 0 0 0 0 0 0 0 0 0 0 0 0 0 0 0 0 0 0 0 0 0 0 0 0 0 508 627 556 1328 551 492 588 591 704 708 736 608 531 428 19 0 1 71 86 0 0 2 3
0 0 0 0 0 0 0 0 0 0 0 0 0 0 0 0 0 0 0 0 0 0 0 0 0 0 0 340 590 624 546 660 422 652 804 720 830 801 650 583 188 51 25 16 97 6 0 9 8
0 0 0 0 0 0 0 0 0 0 0 0 0 0 0 0 0 0 0 0 0 0 0 0 0 0 0 0 463 367 399 363 524 416 1081 681 707 862 785 706 464 194 133 68 101 48 9 19 27
0 0 0 0 0 0 0 0 0 0 0 0 0 0 0 0 0 0 0 0 0 0 0 0 0 0 0 0 7 214 230 331 308 442 407 518 532 783 818 776 720 443 286 193 95 106 38 42 39
6 0 0 0 0 0 0 0 0 0 0 0 0 0 0 0 0 0 0 0 0 0 0 0 0 0 0 0 0 90 232 324 416 388 460 380 422 667 840 791 756 676 530 420 223 113 42 55 54
7 0 0 0 0 0 0 0 0 0 0 0 0 0 0 0 0 0 0 0 0 0 0 0 0 0 0 0 0 5 126 275 175 244 307 420 448 504 659 712 747 699 569 435 427 247 142 81 83
0 0 0 0 0 0 0 0 0 0 0 0 0 0 0 0 0 0 0 0 0 0 0 0 0 0 0 0 0 0 0 29 100 119 214 254 264 435 477 544 535 623 597 409 474 337 250 153 103
0 0 0 0 0 0 0 0 0 0 0 0 0 0 0 0 0 0 0 0 0 0 0 0 0 0 0 0 0 0 0 0 0 28 48 117 173 209 327 376 362 502 543 431 384 136 103 198 171
0 0 0 0 0 0 0 0 0 0 0 0 0 0 0 0 0 0 0 0 0 0 0 0 0 0 0 0 0 0 0 0 0 0 0 54 80 141 172 233 204 326 467 411 319 135 119 244 141
0 0 0 0 0 0 0 0 0 0 0 0 0 0 0 0 0 0 0 0 0 0 0 0 0 0 0 0 0 0 0 0 0 0 0 0 5 37 51 33 85 158 239 297 380 340 293 127 115
0 0 0 0 0 0 0 0 0 0 0 0 0 0 0 0 0 0 0 0 0 0 0 0 0 0 0 0 0 0 0 0 0 0 0 0 0 0 7 16 2 4 36 72 245 341 289 239 135
0 0 0 0 0 0 0 0 0 0 0 0 0 0 0 0 0 0 0 0 0 0 0 0 0 0 0 0 0 0 0 0 0 0 0 1 0 0 0 1 2 18 30 27 97 255 162 192 104

GFSSGP_con_mucape_060.txt.gz
CAPE
87 0 0 0 0 0 0 0 0 0 0 0 0 0 0 0 0 23 222 624 357 948 1172 1462 2179 2195 2468 2360 2170 1759 1305 834 527 385 215 42 0 0 0 0 4 6 19 78 66 58 2 0 0
48 0 0 0 0 0 0 0 0 0 0 0 0 0 0 0 3 491 656 661 683 1208 1120 978 2067 2249 2437 2186 1922 1527 958 703 363 77 19 0 0 0 0 9 17 11 70 108 54 11 0 0 0
4 0 0 0 0 0 0 0 0 0 0 0 0 0 0 0 41 539 644 628 956 1117 954 1137 2197 2425 2421 2013 1725 1475 1125 631 339 62 9 0 0 48 163 72 100 144 88 33 14 0 0 0 0
0 0 0 0 0 0 0 0 0 0 0 0 0 0 0 0 49 443 829 602 949 1030 1067 1472 2230 2358 2205 1978 1654 1318 872 511 459 259 2 0 0 47 132 119 85 41 23 5 5 0 0 0 4
0 0 1 0 0 0 0 0 0 0 0 0 0 0 0 126 391 710 1002 899 1035 1000 1053 1259 2144 2311 2109 1908 1712 1452 1059 703 614 232 18 1 0 1 51 64 61 30 0 0 0 0 0 0 5
0 0 1 0 0 0 0 0 0 0 0 0 0 0 0 283 727 992 1117 1049 1048 984 861 948 1391 1934 1929 1827 1644 1443 1338 1088 668 361 122 50 0 0 26 13 34 15 0 0 0 0 0 2 1
2 0 0 0 0 0 0 0 0 0 0 0 0 0 0 234 894 886 979 1127 1204 1024 669 726 809 927 1310 1439 1435 1457 1370 1038 732 465 317 109 3 0 0 1 0 0 0 0 0 0 0 1 0
0 2 0 0 0 0 0 0 0 0 0 0 0 0 0 16 758 981 1354 1194 1156 988 581 614 761 804 751 858 668 706 740 777 701 484 241 37 0 0 0 0 0 0 0 0 0 1 3 3 0
0 0 0 0 0 0 0 0 0 0 0 0 0 0 3 20 624 1272 1235 1082 748 805 634 626 554 590 635 545 501 304 298 325 470 338 146 68 0 0 0 1 38 98 38 10 9 24 40 0 0
0 0 0 0 0 0 0 0 0 0 0 0 0 0 283 403 1213 1198 1690 988 830 627 763 667 596 446 317 198 203 137 108 98 61 375 157 162 10 0 0 0 60 122 118 96 72 124 0 0 0
0 0 0 0 0 0 0 0 0 0 0 0 0 0 238 422 689 818 812 1042 646 586 718 611 705 508 334 139 105 133 134 87 114 343 246 213 84 21 0 0 6 45 47 23 77 95 2 0 0
0 0 0 0 0 0 0 0 0 0 0 0 0 0 0 460 986 933 664 625 714 758 596 716 588 721 513 268 183 169 139 126 95 182 182 186 142 61 65 78 25 20 25 45 53 72 15 0 0
0 0 0 0 0 0 0 0 0 0 0 0 0 0 0 0 256 633 668 653 680 711 711 894 969 645 652 585 393 312 236 137 120 128 154 149 152 104 68 145 121 78 21 38 47 40 10 0 0
0 0 0 0 0 0 0 0 0 0 0 0 0 0 0 0 0 3 186 691 974 944 818 760 1260 727 804 740 664 568 401 216 135 145 166 155 153 133 72 102 182 141 130 35 27 18 1 0 0
1 0 0 0 0 0 0 0 0 0 0 0 0 0 0 0 0 0 13 126 141 110 596 1022 923 799 744 819 633 728 708 389 212 192 194 208 199 180 77 63 123 160 146 126 28 3 0 0 0
1 1 0 0 0 0 0 0 0 0 0 0 0 0 0 0 0 0 10 65 62 41 27 62 714 1004 986 773 775 1142 809 745 496 286 231 246 197 185 116 66 79 110 170 134 81 3 0 0 0
13 0 0 0 0 0 0 0 0 0 0 0 0 0 0 0 0 0 0 0 30 25 0 0 4 463 949 1003 1116 856 1004 904 877 580 361 269 274 212 139 74 62 69 139 136 114 15 0 0 0
0 0 0 0 0 0 0 0 0 0 0 0 0 0 0 0 0 0 0 0 0 0 0 0 0 0 162 865 1185 1114 796 1292 853 919 701 453 336 381 286 119 108 63 108 157 123 35 0 0 0
0 0 0 0 0 0 0 0 0 0 0 0 0 0 0 0 0 0 0 0 0 0 0 0 0 0 0 165 982 1218 941 925 954 974 718 788 551 351 421 340 250 119 78 148 159 52 0 0 0
0 0 0 0 0 0 0 0 0 0 0 0 0 0 0 0 0 0 0 0 0 0 0 0 0 0 0 0 229 567 694 652 645 522 565 551 762 558 444 466 426 251 157 84 159 55 37 0 0
0 0 0 0 0 0 0 0 0 0 0 0 0 0 0 0 0 0 0 0 0 0 0 0 0 0 0 0 0 81 411 649 733 908 810 610 534 700 635 428 550 387 259 162 202 56 45 63 1
0 0 0 0 0 0 0 0 0 0 0 0 0 0 0 0 0 0 0 0 0 0 0 0 0 0 0 0 0 0 41 123 315 501 661 706 489 543 956 426 581 590 455 231 106 91 62 72 30
8 0 0 0 0 0 0 0 0 0 0 0 0 0 0 0 0 0 0 0 0 0 0 0 0 0 0 0 0 0 0 0 14 307 513 596 704 385 222 562 448 404 428 450 318 120 58 66 112
0 0 0 0 0 0 0 0 0 0 0 0 0 0 0 0 0 0 0 0 0 0 0 0 0 0 0 0 0 0 0 0 11 247 601 723 807 416 392 729 370 315 352 432 393 320 223 121 152
0 0 0 0 0 0 0 0 0 0 0 0 0 0 0 0 0 0 0 0 0 0 0 0 0 0 0 0 0 0 0 0 2 82 243 373 575 325 290 534 591 416 264 285 448 283 319 249 160
0 0 0 0 0 0 0 0 0 0 0 0 0 0 0 0 0 0 0 0 0 0 0 0 0 0 0 0 0 0 0 0 0 0 2 41 85 315 254 101 307 243 419 236 146 230 329 230 241
0 0 0 0 0 0 0 0 0 0 0 0 0 0 0 0 0 0 0 0 0 0 0 0 0 0 0 0 0 0 0 0 0 0 0 0 36 129 234 167 281 118 176 200 227 214 333 313 240
0 0 0 0 0 0 0 0 0 0 0 0 0 0 0 0 0 0 0 0 0 0 0 0 0 0 0 0 0 0 0 0 0 0 0 0 0 17 35 81 90 80 85 56 86 198 384 227 265
0 0 0 0 0 0 0 0 0 0 0 0 0 0 0 0 0 0 0 0 0 0 0 0 0 0 0 0 0 0 0 0 0 0 0 0 0 0 2 9 73 66 85 85 153 188 290 473 419
0 0 0 0 0 0 0 0 0 0 0 0 0 0 0 0 0 0 0 0 0 0 0 0 0 0 0 0 0 0 0 0 0 0 0 0 0 0 4 14 34 80 70 56 65 133 202 606 590

GFSSGP_con_mucape_063.txt.gz
CAPE
52 37 0 0 0 0 0 0 0 0 0 0 0 0 0 0 1 110 480 610 649 1100 1472 1415 2284 2442 2511 2263 2160 1786 1470 1033 786 605 340 83 28 2 0 5 0 0 53 62 57 29 0 0 0
72 4 0 0 0 0 0 0 0 0 0 0 0 0 0 0 21 776 779 667 739 1035 1342 1162 2295 2576 2628 2388 1725 1464 1009 792 569 293 49 0 0 0 1 2 1 3 66 75 36 0 0 0 0
147 4 1 0 0 0 0 0 0 0 0 0 0 0 0 12 205 730 1025 595 960 1124 1076 1455 2286 2547 2500 2129 1766 1269 943 610 279 49 9 0 0 130 63 10 140 142 98 33 2 0 0 0 0
92 0 7 0 0 0 0 0 0 0 0 0 0 0 0 37 228 748 850 790 1042 1030 903 1319 2344 2539 2251 1974 1695 1237 832 558 169 22 0 0 0 201 123 129 47 19 15 5 0 0 0 0 0
48 42 25 0 0 1 0 0 0 0 0 0 0 0 2 506 610 936 669 789 971 873 1442 1220 2393 2514 2140 1765 1615 1372 1027 537 217 33 0 0 0 66 103 28 0 3 1 2 0 0 0 1 1
41 83 35 0 0 0 1 0 0 0 0 0 0 0 60 721 963 1165 889 980 943 881 1292 1180 1828 1849 1880 1757 1669 1455 1139 859 476 205 27 0 0 70 0 58 9 0 0 0 0 0 0 2 1
24 60 56 6 0 2 1 0 0 0 0 0 0 0 46 889 1169 1216 1080 1025 963 821 761 876 821 1243 1543 1560 1534 1442 1326 871 449 374 169 47 0 0 38 1 1 0 0 0 0 0 0 0 0
11 74 58 19 14 0 2 0 0 0 0 0 0 0 17 398 1084 1001 1244 1147 1081 895 543 649 650 876 902 1042 972 1094 1096 721 476 334 161 0 0 0 0 0 0 0 0 0 0 0 0 1 0
0 35 0 4 1 0 8 0 0 0 0 0 0 0 17 543 951 992 1118 1148 1099 913 537 490 562 800 647 770 608 457 500 529 398 167 78 23 0 0 0 0 0 6 0 0 0 0 11 0 0
0 3 0 0 0 1 3 0 0 0 0 0 0 0 112 422 820 769 1123 906 852 881 617 535 442 378 377 269 591 418 337 268 255 206 100 74 1 0 0 0 38 86 79 58 36 83 31 0 0
0 0 0 0 0 0 0 0 0 0 0 0 0 0 113 319 684 793 797 794 793 839 822 563 520 379 236 155 118 91 79 68 31 59 176 134 50 0 0 0 0 10 0 1 41 66 0 0 0
0 0 0 1 0 0 0 0 0 0 0 0 0 0 0 273 422 667 843 816 954 853 769 701 636 596 368 168 72 83 113 97 45 150 225 136 102 20 0 0 0 0 0 4 1 33 2 2 0
0 0 0 1 0 0 0 0 0 0 0 0 0 0 0 0 223 601 671 782 790 861 869 630 584 730 658 421 248 223 213 118 75 67 126 121 113 74 16 49 29 4 0 19 22 33 28 2 0
2 0 0 0 0 0 0 0 0 0 0 0 0 0 0 0 0 19 616 709 686 759 839 777 984 858 686 785 670 584 485 315 141 106 102 105 100 99 82 53 133 109 50 6 23 25 6 2 0
16 5 0 0 0 0 0 0 0 0 0 0 0 0 0 0 0 0 0 10 294 685 749 794 841 708 925 692 764 880 772 596 364 190 146 138 127 138 108 80 116 207 109 103 24 4 2 0 0
29 20 14 0 0 0 0 0 0 0 0 0 0 0 0 0 0 0 0 0 0 0 0 168 788 978 955 885 1108 1071 917 866 687 459 319 269 208 177 200 139 94 102 195 105 134 45 11 0 0
43 0 0 0 0 0 0 0 0 0 0 0 0 0 0 0 0 0 0 0 0 0 0 0 9 291 1007 1044 967 1021 1236 831 1025 822 560 423 375 307 285 217 109 64 115 205 141 116 23 0 0
3 0 0 0 0 0 0 0 0 0 0 0 0 0 0 0 0 0 0 0 0 0 0 0 0 0 3 396 971 961 978 1210 1032 1133 1003 675 538 549 512 411 185 107 131 182 112 161 72 0 0
7 0 0 0 0 0 0 0 0 0 0 0 0 0 0 0 0 0 0 0 0 0 0 0 0 0 0 0 112 965 803 781 1264 848 1186 1081 886 583 680 634 436 290 219 198 202 120 135 0 0
4 10 0 0 0 0 0 0 0 0 0 0 0 0 0 0 0 0 0 0 0 0 0 0 0 0 0 0 0 646 671 550 797 905 642 894 1045 1013 788 706 673 553 410 318 279 113 126 16 0
1 0 0 0 0 0 0 0 0 0 0 0 0 0 0 0 0 0 0 0 0 0 0 0 0 0 0 0 0 0 457 675 932 1056 769 665 619 910 1117 899 786 801 585 490 396 328 155 52 22
0 10 0 0 0 0 0 0 0 0 0 0 0 0 0 0 0 0 0 0 0 0 0 0 0 0 0 0 0 0 0 96 423 472 678 812 823 587 393 822 862 826 688 630 520 369 260 96 41
21 4 5 0 0 0 0 0 0 0 0 0 0 0 0 0 0 0 0 0 0 0 0 0 0 0 0 0 0 0 0 0 9 125 123 289 646 886 552 389 537 512 774 689 659 423 417 160 97
12 0 0 0 0 0 0 0 0 0 0 0 0 0 0 0 0 0 0 0 0 0 0 0 0 0 0 0 0 0 0 0 0 2 28 252 477 735 841 477 600 365 508 552 638 538 229 163 143
10 0 0 0 0 0 0 0 0 0 0 0 0 0 0 0 0 0 0 0 0 0 0 0 0 0 0 0 0 0 0 0 0 0 3 130 270 470 605 329 776 747 702 645 509 611 267 138 133
16 0 0 0 0 0 0 0 0 0 0 0 0 0 0 0 0 0 0 0 0 0 0 0 0 0 0 0 0 0 0 0 0 0 0 0 6 40 127 491 176 366 471 335 364 743 507 350 324
0 0 0 0 0 0 0 0 0 0 0 0 0 0 0 0 0 0 0 0 0 0 0 0 0 0 0 0 0 0 0 0 0 0 0 0 0 0 8 117 203 305 342 397 522 477 469 391 330
0 0 0 0 0 0 0 0 0 0 0 0 0 0 0 0 0 0 0 0 0 0 0 0 0 0 0 0 0 0 0 0 0 0 0 0 0 0 0 6 8 50 178 188 304 335 277 142 168
0 0 0 0 0 0 0 0 0 0 0 0 0 0 0 0 0 0 0 0 0 0 0 0 0 0 0 0 0 0 0 0 0 0 0 0 0 0 0 1 3 3 1 54 99 211 275 161 194
0 0 0 0 0 0 0 0 0 0 0 0 0 0 0 0 0 0 0 0 0 0 0 0 0 0 0 0 0 0 0 0 0 0 0 0 0 0 0 0 0 2 12 102 201 257 163 164 241

GFSSGP_con_mucape_066.txt.gz
CAPE
35 0 0 0 0 0 0 0 0 0 0 0 0 0 0 0 207 458 467 517 892 714 1465 1603 2345 2495 2415 2193 2088 1867 1585 1314 1055 676 400 164 8 3 1 1 0 30 51 56 26 2 2 0 0
22 49 10 0 0 0 0 0 0 0 0 0 0 0 0 78 708 411 668 571 1039 1122 1080 1240 2379 2551 2439 2211 1891 1662 1449 1094 752 362 35 0 0 1 4 9 5 44 67 36 0 0 0 0 0
198 173 25 0 0 0 0 0 0 0 0 0 0 0 0 43 455 834 967 597 1060 1131 958 1444 2455 2587 2431 2055 1772 1577 1205 661 342 28 5 0 19 46 13 97 60 94 60 0 0 0 0 1 1
40 136 35 0 0 0 0 0 0 0 0 0 0 0 11 284 537 849 567 672 1129 998 1121 1892 2396 2538 2229 1911 1719 1505 1038 472 137 5 0 0 191 132 178 87 52 89 36 6 0 0 1 2 1
17 81 0 0 0 0 0 0 0 0 0 0 0 0 241 523 739 597 779 916 906 1115 1158 1748 2385 2397 2097 1854 1614 1341 1041 417 59 0 0 0 189 223 106 67 10 8 7 0 0 0 0 1 0
41 36 0 0 0 0 0 1 0 0 0 0 0 29 452 719 934 586 771 820 892 1275 1083 1258 2080 1924 1842 1754 1600 1333 982 705 274 51 0 0 108 105 86 11 2 1 1 0 0 0 1 1 0
1 0 0 0 0 3 0 0 0 0 0 0 0 0 747 1083 1129 840 832 867 802 1194 962 1084 1567 1419 1338 1419 1404 1304 1096 600 371 253 131 16 31 121 65 54 10 0 0 0 0 0 0 1 0
4 2 0 16 2 1 9 1 0 0 0 0 0 1 762 1008 1066 1210 939 854 745 689 824 710 910 1008 1050 1023 964 947 941 482 218 215 70 0 0 0 80 54 57 0 0 0 0 0 0 0 0
14 46 0 9 0 3 6 4 0 0 0 0 0 44 546 946 951 1222 1161 1013 826 545 583 517 426 787 774 719 608 607 679 223 153 84 15 1 0 0 0 0 0 0 0 0 0 0 28 10 0
0 0 0 0 11 19 6 0 0 0 0 0 0 22 444 820 956 977 1139 994 952 638 410 512 497 627 520 581 333 293 316 237 123 93 49 30 0 0 0 0 0 35 37 36 30 59 65 0 0
0 0 0 0 39 16 16 0 0 0 0 0 0 10 122 476 833 705 624 726 922 738 465 390 421 589 383 604 326 288 249 188 185 142 81 38 24 0 0 0 0 0 0 0 35 80 2 0 0
0 0 0 3 5 0 2 0 0 0 0 0 0 0 148 197 477 729 760 786 618 769 744 464 356 242 139 99 53 65 52 39 18 29 109 64 71 40 1 1 0 0 0 0 0 38 0 0 0
0 0 0 0 0 0 0 0 0 0 0 0 0 0 0 52 238 418 650 724 846 726 654 645 530 600 277 109 53 22 34 41 14 22 126 111 93 71 25 0 0 0 0 0 0 0 5 0 0
1 1 2 0 0 0 0 0 0 0 0 0 0 0 0 0 0 249 504 571 589 709 773 626 534 692 672 402 200 125 144 131 82 17 63 105 77 60 22 1 7 8 0 0 0 0 1 1 0
30 8 11 0 0 0 0 0 0 0 0 0 0 0 0 0 0 0 14 508 500 473 641 735 598 531 569 725 649 603 407 366 246 118 32 25 36 30 17 8 8 18 16 22 0 3 2 0 0
54 17 28 3 0 0 0 0 0 0 0 0 0 0 0 0 0 0 0 0 0 207 387 636 755 672 557 640 529 682 745 636 457 318 181 110 77 40 42 37 15 58 94 56 44 12 3 0 0
38 0 4 1 0 0 0 0 0 0 0 0 0 0 0 0 0 0 0 0 0 0 0 178 289 588 811 756 630 560 504 735 730 651 391 246 190 169 98 91 64 33 57 120 119 66 32 3 0
0 0 0 0 0 0 0 0 0 0 0 0 0 0 0 0 0 0 0 0 0 0 0 0 0 4 238 552 852 775 649 523 665 756 880 546 332 285 248 210 136 94 62 60 118 102 83 35 5
0 0 0 0 0 0 0 0 0 0 0 0 0 0 0 0 0 0 0 0 0 0 0 0 0 0 0 0 76 841 856 661 452 416 768 942 597 420 345 305 268 201 119 106 108 135 108 93 70
8 0 0 2 4 0 0 0 0 0 0 0 0 0 0 0 0 0 0 0 0 0 0 0 0 0 0 0 0 82 812 702 528 281 318 513 887 829 518 414 408 345 188 150 109 154 145 113 117
0 0 0 0 0 0 0 0 0 0 0 0 0 0 0 0 0 0 0 0 0 0 0 0 0 0 0 0 0 0 280 499 344 300 303 341 398 530 755 675 485 476 447 289 218 163 184 174 104
0 6 10 0 0 0 0 0 0 0 0 0 0 0 0 0 0 0 0 0 0 0 0 0 0 0 0 0 0 0 0 4 306 624 712 670 577 479 416 426 827 602 674 635 494 413 244 243 132
0 34 10 0 0 0 0 0 0 0 0 0 0 0 0 0 0 0 0 0 0 0 0 0 0 0 0 0 0 0 0 0 0 0 114 180 169 582 690 629 398 491 695 663 674 556 861 417 279
42 23 12 3 19 0 0 0 0 0 0 0 0 0 0 0 0 0 0 0 0 0 0 0 0 0 0 0 0 0 0 0 0 0 0 0 2 126 369 564 673 596 401 380 628 696 816 528 336
23 0 0 0 0 0 0 0 0 0 0 0 0 0 0 0 0 0 0 0 0 0 0 0 0 0 0 0 0 0 0 0 0 0 0 0 6 31 186 366 412 331 255 478 657 652 637 620 496
0 0 0 0 0 0 0 0 0 0 0 0 0 0 0 0 0 0 0 0 0 0 0 0 0 0 0 0 0 0 0 0 0 0 0 0 0 1 1 10 314 297 172 379 405 491 449 577 606
0 0 0 0 0 0 0 0 0 0 0 0 0 0 0 0 0 0 0 0 0 0 0 0 0 0 0 0 0 0 0 0 0 0 0 0 0 0 0 0 0 12 70 102 183 366 425 565 580
0 0 0 0 0 0 0 0 0 0 0 0 0 0 0 0 0 0 0 0 0 0 0 0 0 0 0 0 0 0 0 0 0 0 0 0 0 0 0 0 0 0 0 0 11 207 266 426 496
0 0 0 0 0 0 0 0 0 0 0 0 0 0 0 0 0 0 0 0 0 0 0 0 0 0 0 0 0 0 0 0 0 0 0 0 0 0 0 0 0 0 0 0 1 4 31 118 311
0 0 0 0 0 0 0 0 0 0 0 0 0 0 0 0 0 0 0 0 0 0 0 0 0 0 0 0 0 0 0 0 0 0 0 0 0 0 0 0 0 0 0 0 1 2 4 67 251

GFSSGP_con_mucape_069.txt.gz
CAPE
3 0 0 0 0 0 0 0 0 0 0 0 0 0 27 34 308 82 147 623 898 1415 1735 2169 2490 2554 2500 2258 1998 1819 1616 1375 1168 724 482 151 5 1 1 0 22 78 59 16 5 4 1 0 0
178 34 53 0 0 0 0 0 0 0 0 0 0 0 37 481 286 403 755 779 888 1261 1277 1613 2371 2462 2334 2129 1939 1691 1578 1349 940 342 18 0 1 3 7 3 19 112 47 2 0 0 0 1 0
147 60 76 0 0 0 0 0 0 0 0 0 0 0 8 409 707 659 774 827 1163 1038 1190 1874 2400 2476 2275 2031 1823 1666 1417 1039 473 97 0 0 13 16 13 14 129 107 3 0 0 0 0 0 0
38 71 50 0 0 0 0 0 0 0 0 0 0 0 92 599 701 731 889 1126 1081 875 1240 2129 2374 2337 2071 1869 1715 1482 1083 668 40 0 0 113 310 226 239 276 174 53 20 0 0 0 0 0 0
14 31 0 0 0 0 0 0 0 0 0 0 0 70 484 757 751 618 1022 1228 1095 1030 1468 2055 2333 2261 1993 1843 1630 1221 986 326 9 0 0 390 379 115 153 61 26 47 3 0 0 1 1 0 0
20 37 0 0 0 0 0 0 0 0 0 0 17 259 615 771 621 719 1068 1132 1105 1112 1517 1896 2046 1947 1823 1744 1515 1142 820 432 51 10 0 210 174 107 95 53 32 3 0 0 0 0 1 0 0
39 0 0 0 0 1 0 0 0 0 0 0 0 344 847 932 739 899 918 1209 1134 1052 1284 1600 1657 1546 1381 1360 1270 1078 870 540 290 143 32 176 189 167 76 46 28 0 1 0 0 0 0 0 0
61 42 0 0 0 0 6 7 0 0 0 0 0 210 816 1152 1148 915 984 1354 1240 1012 1123 1334 1259 1109 868 865 920 841 675 392 264 122 15 0 51 89 121 89 83 24 0 0 0 0 0 14 0
53 0 0 0 0 0 2 0 1 0 0 0 147 709 1036 1091 1170 1007 869 1151 1067 826 803 1053 1076 800 694 701 656 563 468 132 101 45 10 2 0 3 13 3 54 57 21 0 0 2 34 45 0
77 9 0 0 1 4 1 0 0 0 0 7 532 1066 1019 923 1199 1111 975 870 758 785 664 710 633 612 654 589 497 353 367 111 77 65 32 7 0 0 0 2 7 54 51 47 26 48 84 3 0
9 0 0 4 0 0 0 0 0 0 0 0 129 738 876 877 1055 1083 1042 972 785 489 613 549 574 503 581 482 237 204 261 132 102 83 51 21 0 0 0 0 6 10 10 3 33 70 19 0 0
0 0 0 12 36 0 0 0 0 0 0 0 2 398 622 788 676 692 1071 1011 840 634 484 542 584 437 435 506 300 150 145 138 115 109 75 23 33 3 8 0 1 6 9 0 2 8 0 0 0
0 0 0 4 6 5 0 3 5 0 0 0 62 165 328 472 652 789 718 620 667 767 711 453 415 453 288 672 228 190 194 154 85 114 117 62 24 8 22 13 0 0 3 0 0 3 0 0 0
2 8 15 0 0 1 25 4 0 0 0 0 0 0 3 35 495 571 719 744 807 703 688 708 532 556 384 164 75 0 9 28 29 0 29 64 66 48 45 37 0 3 12 1 1 2 3 0 0
48 30 30 0 0 0 0 1 0 5 0 0 0 0 0 0 0 243 513 499 641 744 743 683 613 629 588 541 204 105 26 49 95 79 2 74 68 40 21 23 11 0 19 17 0 4 5 3 0
40 13 26 0 0 0 0 0 0 5 0 0 0 0 0 0 0 0 0 0 292 504 707 785 699 398 624 641 606 532 519 415 279 257 182 66 3 18 20 18 19 0 0 18 24 0 0 5 1
29 0 0 0 0 0 0 0 0 0 0 0 0 0 0 0 0 0 0 0 0 0 5 438 825 708 601 423 551 614 565 657 566 419 319 309 179 94 53 25 31 31 17 38 55 38 21 0 0
6 0 0 0 0 0 0 0 0 0 0 0 0 0 0 0 0 0 0 0 0 0 0 0 4 837 691 699 684 588 391 609 679 673 637 504 337 291 207 185 145 69 41 45 90 101 69 46 25
0 3 0 0 0 0 0 0 0 0 0 0 0 0 0 0 0 0 0 0 0 0 0 0 0 0 17 616 700 746 779 515 383 455 643 736 651 308 286 275 262 242 180 129 128 119 131 75 86
3 0 0 0 0 0 0 0 0 0 0 0 0 0 0 0 0 0 0 0 0 0 0 0 0 0 0 0 0 356 626 679 641 555 444 370 313 606 489 285 331 316 259 210 164 153 135 129 131
11 0 0 0 0 1 0 0 0 0 0 0 0 0 0 0 0 0 0 0 0 0 0 0 0 0 0 0 0 0 84 307 488 550 541 360 234 222 185 360 292 261 346 308 166 79 102 148 162
0 0 0 0 6 0 0 0 0 0 0 0 0 0 0 0 0 0 0 0 0 0 0 0 0 0 0 0 0 0 0 0 32 104 255 228 269 327 310 259 239 319 294 454 477 451 319 259 219
1 1 5 0 0 0 0 0 0 0 0 0 0 0 0 0 0 0 0 0 0 0 0 0 0 0 0 0 0 0 0 0 0 0 0 10 451 512 465 449 426 324 358 446 432 479 387 262 265
16 1 2 3 0 0 0 0 0 0 0 0 0 0 0 0 0 0 0 0 0 0 0 0 0 0 0 0 0 0 0 0 0 0 0 0 0 0 17 299 471 481 405 340 134 233 348 399 345
10 8 0 0 0 0 0 0 0 0 0 0 0 0 0 0 0 0 0 0 0 0 0 0 0 0 0 0 0 0 0 0 0 0 0 0 0 0 0 0 39 142 266 207 208 190 355 260 288
2 0 0 0 0 0 0 0 0 0 0 0 0 0 0 0 0 0 0 0 0 0 0 0 0 0 0 0 0 0 0 0 0 0 0 0 0 0 0 0 0 30 91 53 15 67 76 178 243
0 0 0 0 0 0 0 0 0 0 0 0 0 0 0 0 0 0 0 0 0 0 0 0 0 0 0 0 0 0 0 0 0 0 0 0 0 0 0 0 0 0 0 0 3 1 13 62 143
0 0 0 0 0 0 0 0 0 0 0 0 0 0 0 0 0 0 0 0 0 0 0 0 0 0 0 0 0 0 0 0 0 0 0 0 0 0 0 0 0 0 0 0 0 0 0 3 12
0 0 0 0 0 0 0 0 0 0 0 0 0 0 0 0 0 0 0 0 0 0 0 0 0 0 0 0 0 0 0 0 0 0 0 0 0 0 0 0 0 0 0 0 0 0 0 2 7
0 0 0 0 0 0 0 0 0 0 0 0 0 0 0 0 0 0 0 0 0 0 0 0 0 0 0 0 0 0 0 0 0 0 0 0 0 0 0 0 0 0 0 0 0 0 0 0 1

GFSSGP_con_mucape_072.txt.gz
CAPE
4 0 0 0 0 0 0 0 0 0 0 0 0 7 63 11 108 3 314 667 1464 1780 2063 2170 2442 2528 2341 2263 2075 1938 1787 1446 1112 420 351 89 8 0 1 61 89 41 2 4 5 2 0 0 0
65 51 7 0 0 0 0 0 0 0 0 0 0 34 108 348 271 388 768 1127 1518 1650 1932 2021 2479 2571 2340 2148 1892 1880 1663 1362 1175 482 41 0 1 6 0 12 144 31 3 0 0 0 0 0 0
112 98 7 0 0 0 0 0 0 0 0 0 0 0 151 621 483 469 653 1095 1268 1372 1601 1992 2434 2446 2281 2108 1907 1830 1484 1032 303 112 0 1 9 9 3 84 232 6 0 0 0 0 0 0 0
36 85 10 0 0 0 0 0 0 0 0 0 0 75 313 513 572 706 913 1075 1031 1224 1391 2034 2301 2281 2129 1900 1781 1570 1168 472 106 0 0 209 14 19 69 352 80 8 0 0 0 0 0 0 0
9 29 3 0 0 0 0 0 0 0 0 0 0 154 570 759 885 855 1083 855 853 1155 1556 2013 2283 2225 2023 1864 1747 1412 968 260 22 0 335 483 344 420 385 165 134 0 0 0 0 0 0 0 0
35 3 0 0 0 0 0 0 0 0 0 8 331 429 613 624 772 1004 1089 1000 865 1197 1808 1970 2015 1905 1858 1801 1551 1103 753 366 35 22 601 389 101 247 171 82 46 2 0 0 0 0 0 0 0
5 0 0 0 0 0 2 4 0 0 0 0 184 420 609 629 694 1282 1246 1073 1067 1292 1608 1797 1734 1577 1535 1455 1222 954 685 378 184 100 405 454 248 162 140 113 94 56 15 0 0 0 0 0 0
59 0 0 0 0 0 3 5 2 0 0 24 107 507 767 787 919 1259 1274 1108 1091 1188 1459 1497 1454 1306 1136 949 811 723 554 371 246 56 52 97 125 138 162 118 110 66 30 0 0 11 3 22 0
45 0 0 0 0 5 0 0 1 0 1 14 204 616 881 961 927 1228 1311 1178 1050 1114 1158 1318 1259 1113 833 723 636 532 331 228 115 44 10 57 52 80 66 22 48 60 37 10 11 0 33 59 3
46 10 0 0 0 4 0 4 2 0 27 470 920 960 1095 1052 949 1350 1335 1293 1042 778 896 991 1044 946 629 681 577 405 176 94 68 37 33 6 26 55 42 29 31 57 35 17 7 13 71 12 0
0 0 0 0 0 0 0 1 0 0 7 150 843 915 1016 1034 891 1032 1412 1213 895 680 651 884 972 806 558 542 452 291 238 96 74 59 59 16 2 6 12 18 15 13 13 11 23 35 35 0 0
17 0 0 0 0 0 0 0 0 0 0 0 413 610 569 984 941 882 839 746 885 765 638 632 675 477 438 420 364 256 280 153 87 82 64 34 9 0 0 0 0 0 6 6 13 20 27 0 0
14 0 0 45 13 0 0 0 0 0 3 1 415 595 419 471 706 761 940 829 761 605 705 632 534 447 548 450 291 203 221 161 92 90 75 44 20 26 0 9 11 0 0 0 1 9 16 4 0
19 8 0 0 0 5 0 0 0 0 16 146 227 382 460 492 415 454 636 939 866 751 646 503 609 621 514 516 447 200 120 98 101 105 90 83 26 48 25 1 20 1 0 0 0 0 1 5 0
29 41 4 0 0 0 13 0 0 0 0 4 18 0 0 104 503 666 753 750 743 736 791 640 508 522 545 428 556 234 158 150 168 69 96 115 78 65 37 29 32 27 0 0 0 0 0 8 18
49 25 0 0 0 0 1 0 0 0 0 1 0 0 0 0 1 349 461 528 589 745 690 673 708 615 492 405 280 221 165 21 34 77 132 85 0 67 10 15 19 22 0 0 4 20 12 1 2
46 0 0 0 0 0 0 0 19 14 0 0 0 0 0 0 0 0 0 0 5 392 700 785 734 683 564 623 536 393 403 474 287 189 240 255 180 92 35 0 0 0 0 3 0 6 18 7 0
0 0 0 0 0 0 0 0 0 16 0 0 0 0 0 0 0 0 0 0 0 0 5 121 744 802 698 483 543 612 589 499 571 500 408 303 249 237 182 118 86 70 44 29 27 11 6 27 27
0 0 0 0 0 0 0 0 0 0 0 0 0 0 0 0 0 0 0 0 0 0 0 0 0 1 299 620 576 510 450 506 440 666 599 578 529 292 239 206 216 235 197 176 153 122 102 76 105
0 0 0 0 0 0 0 0 1 0 0 0 0 0 0 0 0 0 0 0 0 0 0 0 0 0 0 0 241 477 547 535 544 455 376 377 418 454 427 296 202 222 206 205 205 225 182 145 165
0 0 0 0 0 0 0 0 0 0 0 0 0 0 0 0 0 0 0 0 0 0 0 0 0 0 0 0 0 0 26 323 356 280 356 381 459 400 231 103 167 232 235 235 246 249 225 174 116
12 0 0 0 0 0 0 0 0 0 0 0 0 0 0 0 0 0 0 0 0 0 0 0 0 0 0 0 0 0 0 0 8 22 34 146 210 201 143 153 163 172 225 231 200 234 231 197 77
6 1 0 0 0 0 0 0 0 0 0 0 0 0 0 0 0 0 0 0 0 0 0 0 0 0 0 0 0 0 0 0 0 0 0 0 0 0 265 307 204 130 119 148 151 159 188 169 179
10 5 3 2 4 0 0 0 0 0 0 0 0 0 0 0 0 0 0 0 0 0 0 0 0 0 0 0 0 0 0 0 0 0 0 0 0 0 0 0 22 175 292 201 101 110 55 88 120
25 9 0 0 0 0 0 0 0 0 0 0 0 0 0 0 0 0 0 0 0 0 0 0 0 0 0 0 0 0 0 0 0 0 0 0 0 0 0 0 0 18 53 71 50 23 8 17 51
4 8 0 0 0 0 0 0 0 0 0 0 0 0 0 0 0 0 0 0 0 0 0 0 0 0 0 0 0 0 0 0 0 0 0 0 0 0 0 0 0 0 1 7 1 1 0 4 4
1 0 0 0 0 0 0 0 0 0 0 0 0 0 0 0 0 0 0 0 0 0 0 0 0 0 0 0 0 0 0 0 0 0 0 0 0 0 0 0 0 0 0 0 0 0 0 0 0
1 0 0 0 0 0 0 0 0 0 0 0 0 0 0 0 0 0 0 0 0 0 0 0 0 0 0 0 0 0 0 0 0 0 0 0 0 0 0 0 0 0 0 0 0 0 0 0 0
0 0 0 0 0 0 0 0 0 0 0 0 0 0 0 0 0 0 0 0 0 0 0 0 0 0 0 0 0 0 0 0 0 0 0 0 0 0 0 0 0 0 0 0 0 0 0 0 0
0 0 0 0 0 0 0 0 0 0 0 0 0 0 0 0 0 0 0 0 0 0 0 0 0 0 0 0 0 0 0 0 0 0 0 0 0 0 0 0 0 0 0 0 0 0 0 0 0

GFSSGP_con_mucape_075.txt.gz
CAPE
34 0 0 0 0 0 0 0 0 0 0 0 5 0 0 53 0 0 258 727 1228 1711 2019 2142 2382 2388 2452 2228 1746 1751 1707 1319 895 340 222 61 1 2 5 89 14 2 3 6 5 0 0 0 0
42 16 0 0 0 0 0 0 0 0 0 12 117 83 101 163 263 411 534 1166 1509 1735 1908 1919 2418 2503 2207 1962 1659 1622 1338 874 729 450 151 0 0 0 6 202 12 0 0 0 0 0 0 0 0
145 42 0 0 0 0 0 0 0 0 0 0 0 57 344 400 339 581 729 1638 1567 1715 1799 1958 2454 2350 2216 2081 1867 1633 1364 940 352 174 0 0 3 0 2 358 1 0 0 0 0 0 0 0 0
73 69 15 0 0 0 0 0 0 0 0 0 1 209 508 529 403 446 1359 1481 1465 1641 1768 2118 2347 2237 2223 2101 1963 1768 846 319 109 0 0 122 7 2 195 393 32 0 0 0 0 0 0 0 0
48 11 0 0 0 0 0 0 0 0 0 0 0 334 528 615 601 1045 1298 1194 1191 1431 1765 2022 2284 2268 2082 1949 1846 1352 965 323 78 26 326 219 218 135 545 123 0 0 0 0 0 0 0 0 0
38 19 0 0 0 0 0 0 0 0 0 17 211 372 461 706 964 1139 1068 972 1139 1354 1733 1916 2057 1972 1911 1866 1714 1199 852 382 81 154 670 503 455 433 256 79 0 0 1 0 0 0 0 0 0
34 0 0 0 0 0 0 0 0 0 0 0 229 392 504 707 1038 1120 926 916 1103 1459 1642 1742 1717 1589 1538 1434 1198 947 660 390 235 587 813 372 264 409 132 88 64 43 28 0 0 0 0 0 0
39 0 0 0 0 3 0 0 0 0 0 15 256 351 643 717 1163 1134 1106 993 1171 1461 1389 1444 1467 1351 1256 984 703 558 397 261 193 320 289 107 103 115 196 138 138 90 40 0 0 0 0 1 0
111 28 0 0 0 2 0 0 0 0 0 9 202 587 773 770 1242 1306 1137 1122 1182 1208 1160 1281 1273 1174 1001 787 490 327 180 110 65 54 94 100 80 77 64 29 56 89 43 12 16 23 22 44 4
60 17 0 0 0 0 0 2 1 0 0 51 845 787 1000 1010 1338 1442 1232 1122 1140 1090 1336 1196 1123 1073 808 636 422 194 113 72 53 12 42 71 63 64 50 31 38 59 50 41 36 37 46 33 0
18 1 0 0 7 0 0 1 6 0 0 21 717 1088 1143 1104 1348 1377 1563 1168 1068 870 907 1038 1083 1015 657 607 431 233 109 77 61 25 29 12 16 42 44 36 32 25 23 11 21 23 31 16 0
33 24 5 9 23 0 1 0 7 0 0 0 72 970 1029 1089 1125 1264 1254 1230 1109 744 718 921 1089 1029 711 596 477 300 161 73 63 37 36 39 10 0 7 8 17 14 6 2 2 9 22 15 0
11 0 0 3 0 0 0 0 0 0 0 0 13 739 914 928 920 1094 1190 1243 979 751 605 674 874 966 714 443 362 265 185 131 83 47 39 42 24 1 0 0 0 0 0 0 0 0 2 5 0
40 18 7 0 0 0 0 0 0 0 0 0 365 361 542 779 872 834 866 901 1013 897 693 631 879 914 570 377 325 270 222 202 178 73 51 42 36 20 18 0 0 0 0 0 0 0 0 0 0
68 18 1 0 0 0 0 0 0 0 0 27 90 465 398 314 404 684 951 919 782 717 733 755 691 631 498 478 446 346 243 196 157 76 63 46 40 23 24 38 31 0 0 0 0 0 0 0 0
58 27 0 0 0 0 0 0 0 0 0 6 57 57 55 239 412 468 565 717 841 871 830 711 605 684 701 586 543 453 379 153 93 95 108 70 58 45 36 59 63 27 0 0 0 0 0 0 0
24 0 0 0 0 0 0 0 0 0 0 0 0 1 4 0 25 236 445 529 621 762 761 766 796 708 624 577 496 457 540 229 125 42 72 114 142 144 82 45 69 44 0 0 0 0 0 0 0
0 0 0 0 0 0 0 0 0 0 0 5 0 0 0 0 0 0 2 30 19 180 665 756 737 712 701 653 603 543 393 400 366 294 185 203 236 252 194 171 139 84 73 73 44 33 37 26 35
3 0 0 0 0 0 0 0 0 0 1 0 0 0 0 0 0 0 0 0 0 0 17 171 622 740 674 671 554 471 602 583 577 487 554 473 417 410 299 243 216 197 164 174 187 132 123 116 117
0 0 0 0 3 32 0 0 23 0 0 0 1 0 0 0 0 0 0 0 0 0 0 0 0 0 30 341 566 610 547 495 475 524 528 446 525 460 370 218 145 138 128 150 172 163 143 104 152
1 0 0 0 1 10 1 0 0 0 0 0 0 0 0 0 0 0 0 0 0 0 0 0 0 0 0 0 0 0 138 378 415 366 340 389 394 370 388 360 233 144 97 126 210 235 193 149 169
14 1 0 0 0 0 0 0 0 0 0 0 0 0 0 0 0 0 0 0 0 0 0 0 0 0 0 0 0 0 0 0 0 3 0 0 16 99 235 246 146 82 67 86 137 181 168 179 168
12 19 19 2 0 0 0 0 0 0 0 0 0 0 0 0 0 0 0 0 0 0 0 0 0 0 0 0 0 0 0 0 0 0 0 0 0 0 0 15 169 203 146 72 63 87 67 66 78
5 7 10 6 0 0 0 0 0 0 0 0 0 0 0 0 0 0 0 0 0 0 0 0 0 0 0 0 0 0 0 0 0 0 0 0 0 0 0 0 41 167 126 105 155 77 73 79 56
15 2 0 0 0 0 0 0 0 0 0 0 0 0 0 0 0 0 0 0 0 0 0 0 0 0 0 0 0 0 0 0 0 0 0 0 0 0 0 0 0 0 15 54 106 79 75 25 15
11 2 0 0 0 0 0 0 0 0 0 0 0 0 0 0 0 0 0 0 0 0 0 0 0 0 0 0 0 0 0 0 0 0 0 0 0 0 0 0 0 0 0 13 31 42 24 8 2
9 0 0 0 0 0 0 0 0 0 0 0 0 0 0 0 0 0 0 0 0 0 0 0 0 0 0 0 0 0 0 0 0 0 0 0 0 0 0 0 0 0 0 0 0 10 16 13 4
0 0 0 0 0 0 0 0 0 0 0 0 0 0 0 0 0 0 0 0 0 0 0 0 0 0 0 0 0 0 0 0 0 0 0 0 0 0 0 0 0 0 0 0 0 0 0 0 0
0 0 0 0 0 0 0 0 0 0 0 0 0 0 0 0 0 0 0 0 0 0 0 0 0 0 0 0 0 0 0 0 0 0 0 0 0 0 0 0 0 0 0 0 0 0 0 0 0
0 0 0 0 0 0 0 0 0 0 0 0 0 0 0 0 0 0 0 0 0 0 0 0 0 0 0 0 0 0 0 0 0 0 0 0 0 0 0 0 0 0 0 0 0 0 0 0 0

GFSSGP_con_mucape_078.txt.gz
CAPE
185 0 0 0 0 0 0 0 0 0 0 0 1 7 0 18 5 0 188 717 1182 1504 1937 2127 2408 2249 2405 2209 1681 1554 1472 1098 528 224 66 32 80 36 114 4 2 2 6 8 4 0 0 3 5
202 0 0 0 0 0 0 0 0 0 0 9 36 80 68 152 230 496 640 1094 1431 1710 1951 1980 2367 2487 2320 2098 1620 1471 1033 695 537 282 114 0 0 29 255 5 2 1 0 1 1 0 0 0 0
238 10 0 0 0 0 0 0 0 0 0 62 0 46 258 279 370 486 549 1488 1578 1736 1825 1965 2476 2509 2337 2078 1831 1449 1099 947 525 177 0 1 0 1 438 50 0 0 0 0 0 0 0 0 0
31 35 0 0 0 0 0 0 0 0 0 0 0 157 514 336 446 555 1174 1564 1509 1625 1741 2136 2416 2455 2288 2121 1943 1610 1056 459 204 41 45 5 1 51 481 62 0 0 0 0 0 0 0 0 0
70 8 2 0 0 0 0 0 0 0 0 0 12 180 509 424 512 1158 2032 1491 1284 1541 1728 2056 2330 2350 2216 2059 1910 1311 771 295 119 81 305 86 64 250 589 68 0 0 0 0 0 0 0 0 0
52 26 0 0 0 0 0 0 0 0 0 0 155 365 479 618 1280 1880 1534 1307 1281 1428 1808 1935 2046 2029 2018 1975 1619 1241 959 499 163 198 528 482 247 496 333 68 40 39 0 0 0 0 0 0 0
10 9 0 0 0 0 0 0 0 0 0 0 56 323 362 787 1390 1468 1302 1185 1314 1535 1721 1779 1705 1593 1608 1599 1282 1084 801 472 405 868 962 453 629 258 177 67 68 59 42 0 0 0 0 0 0
67 17 3 0 0 0 4 1 0 0 0 0 257 182 395 820 1196 1211 1115 1147 1352 1510 1462 1482 1446 1323 1193 999 723 522 346 239 399 630 229 39 138 153 186 143 142 79 39 14 14 0 1 8 1
60 44 7 0 0 0 13 5 0 0 0 0 472 445 496 1000 1146 1050 1018 1107 1277 1311 1184 1601 1270 1183 975 677 369 222 103 61 68 222 78 47 46 74 95 68 71 95 43 24 20 23 10 20 0
53 19 0 0 0 4 4 9 0 0 0 38 84 696 806 1194 1196 1224 1292 1092 1527 1500 1535 1564 1398 1078 886 630 299 79 65 35 18 46 80 75 60 51 47 34 34 53 48 35 34 36 29 24 2
9 0 4 0 0 9 0 10 0 0 0 8 0 99 827 1320 1260 1796 1242 1708 1238 1180 1419 1304 1232 1031 835 630 334 147 81 37 23 3 15 39 45 54 42 30 23 22 19 6 10 12 13 9 0
27 24 24 14 4 2 0 0 0 4 0 0 0 2 830 1269 1608 1573 1330 1349 1183 990 1119 1148 1045 992 822 620 416 290 99 50 36 13 12 20 11 4 15 15 7 8 4 0 0 0 0 0 0
14 31 17 10 15 26 0 0 0 6 0 0 0 56 343 739 1086 1065 1126 1006 1153 1030 801 817 943 993 866 630 520 352 168 70 48 34 31 27 26 4 0 0 0 0 0 0 0 0 0 0 0
21 20 47 34 9 9 1 0 0 4 0 0 0 76 276 558 813 964 1162 1226 1316 1010 735 687 929 1093 1023 753 583 392 253 154 79 65 57 41 37 18 0 0 0 0 0 0 0 0 0 0 0
36 24 3 2 3 3 0 0 0 1 0 0 0 35 125 366 627 897 1063 1228 1315 1015 761 665 615 822 982 873 527 308 245 217 164 146 103 52 40 6 0 0 0 0 0 0 0 0 0 0 0
68 41 17 1 0 0 0 0 0 1 1 15 1 1 40 303 514 886 925 933 988 1098 1033 839 741 749 989 885 543 378 353 319 254 193 134 64 52 38 0 0 0 15 3 0 0 0 0 0 0
41 0 13 11 0 1 0 0 0 1 0 52 33 28 15 181 340 459 536 856 976 889 850 823 779 777 745 693 616 540 508 452 354 178 77 51 50 49 62 65 58 24 30 33 29 21 0 0 0
0 0 11 9 0 12 0 0 0 0 0 35 47 10 5 13 21 42 273 580 717 800 841 817 882 832 737 677 717 674 620 537 516 325 288 142 81 108 134 174 151 117 98 95 105 98 113 112 82
6 7 2 1 10 9 0 0 0 0 0 4 0 0 0 0 0 0 0 57 172 339 682 744 778 762 783 770 711 651 583 486 458 424 399 365 333 258 277 299 305 245 216 197 162 124 102 92 87
0 0 0 0 12 0 0 0 0 0 0 0 0 0 0 0 0 0 0 0 0 0 8 356 618 599 714 720 682 647 646 537 569 600 521 510 490 457 477 438 362 172 112 120 105 97 100 108 145
0 0 0 0 11 20 10 0 0 0 0 0 0 0 0 0 0 0 0 0 0 0 0 0 0 0 10 93 174 250 274 497 506 469 395 283 215 299 330 340 332 324 241 171 128 34 58 86 110
0 0 0 8 1 0 4 0 0 0 0 0 0 0 0 0 0 0 0 0 0 0 0 0 0 0 0 0 0 0 0 0 0 0 0 0 0 0 19 126 222 360 304 71 54 58 87 73 65
0 0 0 0 8 3 0 0 0 0 0 0 0 0 0 0 0 0 0 0 0 0 0 0 0 0 0 0 0 0 0 0 0 0 0 0 0 0 0 0 0 25 91 131 141 82 68 75 61
18 2 0 0 1 0 0 0 0 0 0 0 0 0 0 0 0 0 0 0 0 0 0 0 0 0 0 0 0 0 0 0 0 0 0 0 0 0 0 0 0 0 5 173 114 82 90 66 64
32 18 0 0 0 0 0 0 0 0 0 0 0 0 0 0 0 0 0 0 0 0 0 0 0 0 0 0 0 0 0 0 0 0 0 0 0 0 0 0 0 0 0 2 31 48 89 35 32
13 5 0 0 0 0 0 0 0 0 0 0 0 0 0 0 0 0 0 0 0 0 0 0 0 0 0 0 0 0 0 0 0 0 0 0 0 0 0 0 0 0 0 0 12 38 42 27 15
0 0 0 0 0 0 0 0 0 0 0 0 0 0 0 0 0 0 0 0 0 0 0 0 0 0 0 0 0 0 0 0 0 0 0 0 0 0 0 0 0 0 0 0 0 3 7 7 5
0 0 0 0 0 0 0 0 0 0 0 0 0 0 0 0 0 0 0 0 0 0 0 0 0 0 0 0 0 0 0 0 0 0 0 0 0 0 0 0 0 0 0 0 0 0 0 0 0
0 0 0 0 0 0 0 0 0 0 0 0 0 0 0 0 0 0 0 0 0 0 0 0 0 0 0 0 0 0 0 0 0 0 0 0 0 0 0 0 0 0 0 0 0 0 0 0 0
0 0 0 0 0 0 0 0 0 0 0 0 0 0 0 0 0 0 0 0 0 0 0 0 0 0 0 0 0 0 0 0 0 0 0 0 0 0 0 0 0 0 0 0 0 0 0 0 0

GFSSGP_con_mucape_081.txt.gz
CAPE
306 4 0 0 0 0 0 0 0 0 0 0 0 6 0 2 0 0 75 544 969 1379 1752 1942 2503 2424 2325 2163 1618 1521 1355 979 588 197 147 191 93 171 3 2 3 8 10 6 1 1 4 3 0
361 0 0 0 0 0 0 0 0 0 0 0 0 15 48 128 245 250 636 957 1298 1484 1776 1887 2390 2496 2301 2108 1692 1484 951 578 439 241 65 45 91 375 52 6 1 1 3 3 0 0 4 0 0
215 0 0 0 0 0 0 0 0 0 0 1 0 41 160 252 316 426 560 1250 1437 1665 1820 1936 2190 2554 2337 2128 1897 1419 1179 739 425 115 0 0 72 468 146 2 0 0 0 0 0 0 0 2 1
49 6 0 0 0 0 0 0 0 0 0 9 0 203 381 261 450 470 1169 1381 1585 1672 1738 1999 2334 2456 2307 2116 1923 1452 1329 550 199 36 41 0 69 580 184 1 0 0 0 0 0 0 2 0 0
39 2 0 0 0 0 0 0 0 0 0 2 3 67 397 372 370 1124 1405 1518 1240 1461 1705 1945 2389 2381 2215 2053 1962 1561 990 453 171 227 88 36 117 535 269 41 0 0 0 0 0 0 0 0 0
34 7 0 0 0 0 0 0 0 0 0 0 79 303 415 856 934 1562 1745 1373 1447 1341 1910 1856 2069 2095 2061 2001 1593 1194 939 665 441 742 375 266 255 720 205 45 38 28 0 0 0 1 0 0 0
41 4 0 0 0 0 0 0 0 0 0 0 129 338 318 1366 1508 2114 1802 1573 1975 1324 1883 1883 1834 1652 1732 1574 1310 1160 923 623 535 755 809 801 711 656 135 63 54 63 43 12 0 0 0 0 0
41 22 0 0 0 0 0 0 0 0 0 0 297 153 348 799 1566 2067 1556 1537 1345 1488 1561 1752 1647 1497 1526 1246 875 671 402 374 800 767 216 146 105 170 167 76 103 69 40 16 8 0 0 19 2
24 2 0 0 0 0 0 0 0 0 0 4 168 373 408 733 1745 1747 1397 1446 1703 1372 1359 1623 1428 1318 1276 988 528 197 89 128 418 71 33 90 263 176 113 58 69 71 32 15 12 13 12 19 4
53 9 0 0 0 0 0 0 0 0 0 0 33 150 880 1462 1648 1700 1263 1072 1382 1259 1105 1425 1218 1244 1027 700 439 164 50 28 122 232 87 74 75 80 56 41 30 42 28 19 14 12 11 7 2
30 6 2 1 0 0 0 0 0 0 0 0 9 34 746 1406 1364 1274 1396 1556 1279 1217 1426 1418 1085 1116 984 736 400 156 63 33 19 46 76 66 56 61 60 36 27 31 8 7 2 4 8 1 0
43 27 37 20 0 0 0 0 0 5 0 0 0 0 55 1006 1515 1288 1043 1080 1400 1241 1071 1222 1307 965 971 707 451 195 120 52 34 6 13 18 20 21 29 19 11 9 3 0 0 0 0 0 0
39 57 52 26 0 0 0 0 0 4 2 0 0 0 46 485 635 774 859 1006 1353 1348 1446 1577 1349 1061 888 697 501 306 275 68 45 24 15 0 0 0 0 0 0 0 0 0 0 0 0 0 0
8 59 54 34 0 0 0 0 0 1 0 0 0 10 130 249 405 533 747 995 1077 1223 1274 1249 1091 936 816 712 561 450 357 155 56 43 30 29 6 0 0 0 0 0 0 0 0 0 0 0 0
4 55 65 18 1 2 0 0 0 1 0 0 7 39 79 112 245 475 497 708 923 1058 1017 757 831 852 954 931 726 579 436 249 184 82 51 56 41 17 0 0 0 0 0 0 0 0 0 0 0
49 37 16 5 3 0 0 0 0 0 8 0 1 49 43 64 113 312 420 605 838 1205 1040 704 665 910 1149 1104 923 677 393 271 258 211 155 116 78 43 32 3 0 0 0 0 0 0 0 0 0
31 0 0 2 0 0 0 0 0 0 0 0 0 31 14 19 108 234 462 639 811 1122 1123 927 783 714 703 880 940 818 485 379 369 324 249 143 77 55 50 53 57 32 7 0 14 23 0 8 19
0 0 2 0 0 0 0 0 0 0 0 0 0 6 0 0 67 193 387 479 825 864 885 944 910 857 799 795 771 683 642 597 520 484 428 257 152 57 35 61 81 85 75 76 78 83 86 77 77
3 0 0 1 2 0 0 0 0 0 0 0 0 0 0 3 8 73 48 316 605 728 889 919 890 875 822 743 731 751 758 654 597 519 492 459 281 291 249 214 203 199 177 166 158 105 91 27 32
11 8 0 3 4 3 0 0 0 0 0 0 2 24 41 24 2 0 0 0 198 456 523 694 851 860 856 849 794 740 684 605 561 506 463 440 391 378 376 361 277 248 173 116 56 31 23 16 63
27 0 0 1 2 8 9 0 0 0 0 0 0 11 16 2 0 0 0 0 0 0 0 39 430 707 759 775 759 706 619 576 552 525 458 421 369 261 242 264 278 270 280 255 233 164 111 65 0
0 0 0 0 2 0 6 0 0 0 0 0 0 0 2 0 0 0 0 0 0 0 0 0 0 13 12 25 36 33 33 20 4 7 24 49 33 2 0 16 69 156 150 164 285 242 25 25 26
0 0 0 0 0 0 0 0 0 0 0 0 0 0 0 0 0 0 0 0 0 0 0 0 0 0 0 0 0 0 0 0 0 0 0 0 0 0 0 0 0 0 0 46 80 27 80 50 33
7 4 7 2 0 0 0 0 0 0 0 0 0 0 0 0 0 0 0 0 0 0 0 0 0 0 0 0 0 0 0 0 0 0 0 0 0 0 0 0 0 0 1 2 88 74 111 44 40
32 17 0 0 0 0 0 0 0 0 0 0 0 0 0 0 0 0 0 0 0 0 0 0 0 0 0 0 0 0 0 0 0 0 0 0 0 0 0 0 0 0 0 1 4 66 146 91 66
0 0 0 0 0 0 0 0 0 0 0 0 0 0 0 0 0 0 0 0 0 0 0 0 0 0 0 0 0 0 0 0 0 0 0 0 0 0 0 0 0 0 0 0 3 11 14 28 31
0 0 0 0 0 0 0 0 0 0 0 0 0 0 0 0 0 0 0 0 0 0 0 0 0 0 0 0 0 0 0 0 0 0 0 0 0 0 0 0 0 0 0 0 0 1 3 7 5
0 0 0 0 0 0 0 0 0 0 0 0 0 0 0 0 0 0 0 0 0 0 0 0 0 0 0 0 0 0 0 0 0 0 0 0 0 0 0 0 0 0 0 0 0 0 0 0 0
0 0 0 0 0 0 0 0 0 0 0 0 0 0 0 0 0 0 0 0 0 0 0 0 0 0 0 0 0 0 0 0 0 0 0 0 0 0 0 0 0 0 0 0 0 0 0 0 0
3 0 0 0 0 0 0 0 0 0 0 0 0 0 0 0 0 0 0 0 0 0 0 0 0 0 0 0 0 0 0 0 0 0 0 0 0 0 0 0 0 0 0 0 0 0 0 0 0

GFSSGP_con_mucape_084.txt.gz
CAPE
482 27 0 0 0 0 0 0 0 0 0 0 0 17 0 115 124 181 593 1024 877 1241 1622 1698 2172 2170 2009 1919 1402 1480 1244 930 587 291 180 168 136 24 5 6 11 8 5 5 13 10 5 0 0
470 6 0 0 0 0 0 0 0 0 0 0 0 0 0 35 524 778 956 1091 1041 1326 1624 1615 2297 2283 2031 1880 1369 1117 714 453 425 115 171 168 387 81 5 1 2 6 4 1 7 5 0 0 0
392 0 0 0 2 0 0 0 0 0 0 0 1 99 227 532 724 856 891 1186 1039 1394 1482 1775 2392 2311 2056 1840 1693 1173 789 524 262 104 34 140 565 203 15 2 0 0 0 0 1 1 3 3 2
158 30 0 1 8 0 0 0 0 0 0 0 0 277 675 662 825 802 1159 1296 1163 1436 1632 1855 2499 2405 2151 1931 1774 1431 1009 463 134 32 4 98 540 300 5 0 0 0 0 0 2 3 3 1 44
120 66 1 0 0 2 0 0 0 0 0 0 2 301 720 870 823 1153 1261 1223 1239 1336 1496 1662 2479 2446 2258 2112 1833 1732 1040 384 194 132 45 111 582 394 54 0 0 0 0 0 5 5 3 0 69
150 62 18 0 0 0 0 0 0 0 0 0 55 381 814 875 1340 1502 1795 1391 1217 1221 1329 1779 2107 2182 2163 2041 1966 1313 1076 568 451 456 302 226 771 436 107 52 40 0 0 0 0 1 0 0 13
177 46 6 7 0 0 0 0 0 0 0 0 139 324 959 1069 1420 1896 1541 1320 1304 1263 1298 1534 1734 1679 1816 1601 1365 1210 1035 792 904 917 818 746 896 467 137 85 69 56 0 0 10 13 9 0 0
184 133 65 51 19 0 0 0 0 0 0 21 532 475 965 1068 1422 1804 1650 1396 1219 1199 1406 1434 1532 1390 1224 1198 905 840 624 524 600 661 512 432 413 336 228 118 96 64 31 21 0 12 13 4 0
34 141 100 59 27 5 0 0 0 0 0 5 88 82 180 597 1834 1704 1619 1133 1314 1334 1585 1346 1487 1298 1018 983 702 274 218 554 584 113 117 139 271 219 73 48 72 60 28 21 13 10 30 14 0
130 95 57 64 25 25 6 0 4 0 0 0 0 50 504 1090 1797 1854 1379 1544 1678 1310 1214 1313 1386 1269 1198 911 666 412 107 182 286 254 111 66 96 92 66 58 33 37 24 13 7 10 11 2 0
117 2 48 44 0 20 36 21 0 0 0 0 5 47 492 1160 1604 1473 1473 1187 1060 1136 1014 1158 1433 1370 1184 935 793 563 271 41 42 112 111 64 63 68 46 41 25 25 0 4 0 0 0 0 0
126 88 41 102 104 84 72 6 0 0 0 0 0 31 195 814 1369 1697 1233 1127 949 999 1013 971 1156 1464 1254 1030 853 626 397 230 82 30 21 36 35 29 23 8 0 0 0 0 0 0 0 0 0
84 123 95 42 29 34 24 33 5 0 0 0 0 21 1 525 776 1262 1214 1377 1234 1043 1233 907 1133 1123 1341 1225 859 748 597 392 284 102 44 51 54 45 25 9 0 0 0 0 0 0 0 0 0
11 121 132 49 31 13 28 19 3 0 0 0 0 0 11 185 424 578 991 1370 1203 1065 1120 952 1027 1141 1319 1177 1007 949 880 710 459 310 185 54 51 48 27 11 0 0 0 0 0 0 0 0 0
54 88 129 74 69 52 0 0 0 0 0 0 0 4 15 152 251 338 745 1001 1243 844 1040 1057 857 1087 1284 1138 1210 1104 1058 851 635 518 349 257 146 100 34 28 0 0 0 0 0 0 0 0 0
75 53 87 99 47 25 13 12 15 0 0 0 0 0 15 89 122 193 397 784 1034 1287 1557 1574 1179 1240 1150 1328 1413 1259 1126 943 825 747 566 390 313 248 164 61 35 6 0 0 0 0 0 0 0
97 25 30 72 54 32 2 6 3 0 0 0 0 0 10 108 53 93 143 575 1009 1155 1285 1269 1109 1093 1436 1519 1505 1364 1133 959 901 886 810 664 455 348 321 271 176 79 42 37 32 12 0 28 45
14 36 33 27 4 0 2 1 0 0 0 0 0 0 1 69 58 67 70 236 771 1116 1231 1130 941 1107 1198 1442 1456 1469 1334 1007 906 929 881 758 616 430 399 342 311 212 72 65 66 58 64 75 82
37 42 42 20 2 8 1 0 0 0 0 0 0 1 0 20 44 52 101 265 403 438 676 761 939 1097 1227 1242 1282 1279 1223 1111 1101 1029 942 770 610 390 254 268 256 186 128 147 148 110 106 74 5
24 26 0 0 0 18 3 0 0 0 0 0 0 0 0 6 20 41 108 175 251 279 339 415 639 953 987 1037 1154 1184 1169 1116 1014 886 766 682 665 523 393 397 336 242 231 174 124 69 38 11 2
13 0 0 0 0 23 0 0 0 0 0 0 0 0 0 9 1 12 51 50 27 127 288 378 510 616 743 775 801 846 776 716 727 699 583 517 492 482 500 430 442 352 239 246 203 181 123 149 188
0 0 0 1 16 0 3 0 0 0 0 0 0 0 0 0 7 11 11 10 1 0 2 3 161 467 670 754 861 894 714 816 558 500 238 207 308 290 229 110 182 560 451 351 207 333 203 328 219
14 0 11 10 40 20 0 0 0 0 0 0 0 0 0 0 10 12 5 0 0 0 0 0 0 4 160 304 216 54 0 0 0 0 0 0 0 0 0 0 0 2 1 46 79 199 197 108 68
6 6 6 6 24 0 0 0 0 0 0 0 0 0 0 0 28 30 4 0 0 0 0 0 0 0 0 0 0 0 0 0 0 0 0 0 0 0 0 0 0 1 3 3 5 33 46 127 35
55 62 0 0 0 0 0 0 0 0 0 0 0 0 0 3 3 3 0 0 0 0 0 0 0 0 0 0 0 0 0 0 0 0 0 0 0 0 0 0 0 0 0 0 1 14 6 8 28
25 27 0 0 0 0 0 0 0 0 0 0 0 0 0 0 0 0 0 0 0 0 0 0 0 0 0 0 0 0 0 0 0 0 0 0 0 0 0 0 0 0 0 0 0 2 6 8 19
0 1 0 0 0 0 0 0 0 0 0 0 0 0 0 0 0 0 0 0 0 0 0 0 0 0 0 0 0 0 0 0 0 0 0 0 0 0 0 0 0 0 0 0 0 0 1 4 12
0 0 0 0 0 0 0 0 0 0 0 0 0 0 0 0 0 0 0 0 0 0 0 0 0 0 0 0 0 0 0 0 0 0 0 0 0 0 0 0 0 0 0 0 0 0 0 0 1
0 0 0 0 0 0 0 0 0 0 0 0 0 0 0 0 0 0 0 0 0 0 0 0 0 0 0 0 0 0 0 0 0 0 0 0 0 0 0 0 0 0 0 0 0 0 0 0 0
0 0 0 0 0 0 0 0 0 0 0 0 0 0 0 0 0 0 0 0 0 0 0 0 0 0 0 0 0 0 0 0 0 0 0 0 0 0 0 0 0 0 0 0 0 0 0 0 0

GFSSGP_con_mucape_087.txt.gz
CAPE
433 246 2 12 0 0 0 0 0 0 0 0 4 2 12 395 278 759 555 537 1192 1295 1013 1500 2241 2233 1740 1681 1162 1149 915 683 618 179 263 114 18 5 14 11 5 8 9 31 12 4 1 0 0
397 104 2 0 0 0 0 0 0 0 0 0 38 25 45 649 917 811 904 786 1112 1186 1133 1114 2108 2161 2022 1600 1248 914 643 391 331 306 297 289 80 15 4 7 12 11 11 11 7 1 0 0 0
751 58 0 0 3 0 0 0 0 0 0 0 1 18 41 831 886 912 970 942 1087 1282 1100 1285 2101 2214 2094 1738 1340 902 605 258 145 147 229 609 194 19 2 0 1 3 3 3 5 5 4 5 3
468 56 37 0 0 2 0 0 0 0 0 0 0 12 718 962 969 1050 1053 897 1161 1158 1224 1690 2253 2201 2051 1852 1574 1056 594 324 60 26 122 589 334 41 1 0 0 0 12 6 8 7 5 52 3
505 96 1 0 0 0 0 0 0 0 0 0 0 333 895 1158 998 1123 1094 868 1130 1042 1921 1862 2242 2127 2025 1942 1705 1598 719 245 84 37 69 603 491 75 0 0 0 0 0 5 7 6 2 46 4
313 244 42 11 0 10 0 0 0 0 0 0 79 322 1200 1254 1240 1209 1173 932 1067 1292 1336 1843 2005 1951 2019 1844 1701 1395 937 446 305 300 224 531 496 141 44 14 0 0 0 1 1 0 0 11 21
392 146 52 21 11 0 0 0 0 0 0 26 212 288 1274 1104 1412 1307 1236 1284 1080 1401 1279 1566 1733 1624 1753 1744 1331 1189 926 740 844 711 713 820 638 340 106 75 51 2 0 0 0 0 0 0 3
383 258 101 69 23 8 1 0 0 0 0 168 609 524 1163 993 1668 1589 1456 1254 1147 1326 1426 1563 1532 1315 1097 1117 863 815 697 631 899 810 554 501 284 287 220 190 109 48 12 0 0 7 9 0 0
168 235 128 70 62 17 0 0 0 0 9 15 0 296 660 633 1915 1817 1330 1164 1175 1030 1507 1214 1472 1163 848 868 505 262 236 358 413 269 309 301 411 235 35 62 88 54 28 19 9 11 21 2 0
182 168 47 34 62 73 26 0 0 0 0 8 4 25 570 1220 1433 1654 1337 1349 1135 1194 1322 1338 1238 1227 885 901 486 308 127 172 329 204 211 296 87 86 71 54 44 43 22 14 13 17 13 3 0
128 80 96 110 45 58 64 17 0 0 2 0 0 18 531 1328 1376 1478 1339 1265 1131 1191 1348 1347 1372 1001 940 802 448 395 206 177 207 158 52 32 28 43 16 52 15 17 0 5 0 0 0 0 0
112 120 69 70 10 6 50 21 5 0 11 0 0 14 364 1100 1137 1321 1567 1760 1072 1056 1209 1147 1335 1314 1093 868 678 414 279 106 51 79 40 15 9 7 0 0 0 0 0 0 0 0 0 0 0
105 53 71 92 72 54 34 17 21 24 0 0 0 0 73 741 896 1375 1251 1447 1237 1175 1123 1154 1352 1346 1306 1089 755 510 373 317 214 74 12 26 42 30 19 13 0 0 0 0 0 0 0 0 0
105 83 74 89 82 74 89 78 43 1 0 0 0 0 10 47 434 831 983 1294 1432 1490 1591 1164 937 1129 1135 1146 1102 570 502 501 469 324 149 68 74 60 38 24 0 0 0 0 0 0 0 0 0
84 76 92 41 72 76 73 58 19 24 0 0 0 0 0 27 196 677 977 1079 1248 1368 1318 1377 1366 1198 1027 1366 901 1315 744 814 548 396 319 240 147 118 59 59 35 0 0 0 0 0 0 0 0
50 71 75 62 90 73 40 0 18 10 4 0 0 0 0 0 63 186 432 831 1016 1343 1411 1342 1394 1482 1011 1213 1051 930 1294 743 572 551 366 285 259 292 236 151 90 44 27 32 27 5 3 0 0
74 27 61 62 68 71 38 0 6 45 3 0 0 0 0 0 1 110 218 244 832 1108 1356 1375 1261 1162 1143 1110 1225 1225 884 569 675 692 570 448 394 414 431 391 333 226 154 79 55 41 40 50 62
12 1 43 9 62 50 62 3 48 17 0 0 0 0 0 0 0 33 83 174 671 1094 1203 1304 1334 1192 1072 1279 1287 1428 1254 1004 794 724 795 815 745 562 514 474 439 429 377 289 245 196 146 132 200
0 42 39 39 31 31 15 33 14 15 0 0 0 0 0 0 0 1 57 93 147 1003 1333 1438 1348 1305 1255 1313 1261 1352 1311 1299 1295 1128 1075 949 894 833 736 670 569 588 557 460 350 349 276 362 347
67 56 59 26 27 0 8 4 0 2 1 0 0 0 0 1 0 0 29 62 126 255 649 1288 1335 1266 1280 1335 1482 1502 1586 1414 1477 1421 1331 1253 1151 1086 755 566 604 632 634 474 379 418 373 317 268
31 43 44 26 0 7 11 2 0 0 0 0 0 0 0 0 20 0 1 45 126 187 319 342 856 1170 1275 1309 1126 902 868 1049 1125 1118 1071 967 786 777 786 853 1112 1039 877 481 554 463 430 278 296
0 21 7 0 17 30 2 0 0 0 0 0 0 0 0 0 20 26 0 16 95 141 208 259 248 517 717 674 599 463 671 1069 1048 841 809 402 318 387 337 321 436 745 548 425 618 483 436 345 230
4 26 23 27 28 31 29 6 0 1 0 0 0 0 0 0 24 31 0 19 35 36 25 31 89 187 234 329 450 403 501 445 390 365 62 0 0 0 0 0 0 0 2 7 3 71 276 159 132
22 14 34 36 50 0 0 3 0 1 0 0 0 0 0 0 0 21 7 8 17 27 7 0 0 0 22 220 336 393 382 162 4 0 0 0 0 0 0 0 0 0 0 1 4 1 19 35 30
27 7 0 0 0 0 0 0 0 0 0 0 0 0 0 0 0 0 18 13 4 5 1 0 0 0 0 0 0 0 0 0 0 0 0 0 0 0 0 0 0 0 0 0 2 7 4 24 34
0 6 0 0 0 0 0 0 0 0 0 0 0 0 0 0 0 0 17 2 16 2 0 0 0 0 0 0 0 0 0 0 0 0 0 0 0 0 0 0 0 0 0 0 0 3 4 6 14
5 88 43 0 0 0 0 0 0 0 0 0 0 0 0 0 0 0 2 12 10 7 1 0 0 0 0 0 0 0 0 0 0 0 0 0 0 0 0 0 0 0 0 0 0 2 6 3 8
35 14 0 33 0 0 0 0 0 0 0 0 0 0 0 0 0 0 0 0 0 0 1 0 0 0 0 0 0 0 0 0 0 0 0 0 0 0 0 0 0 0 0 0 0 0 0 0 1
0 0 0 2 0 0 0 0 0 0 0 0 0 0 0 0 0 0 0 0 0 2 11 3 0 0 0 0 0 0 0 0 0 0 0 0 0 0 0 0 0 0 0 0 0 0 0 0 0
0 0 0 0 0 0 0 0 0 0 0 0 0 0 0 0 0 0 0 0 0 0 0 0 0 0 0 0 0 0 0 0 0 0 0 0 0 0 0 0 0 0 0 0 0 0 0 0 0

GFSSGP_con_mucape_090.txt.gz
CAPE
466 337 274 55 11 0 0 0 8 0 6 0 7 12 364 727 559 494 451 1060 1209 960 1333 1800 2211 2042 1822 1598 1229 1031 1018 869 598 513 36 9 15 19 12 3 5 125 26 15 7 4 3 1 0
383 329 27 52 0 0 0 0 0 0 0 0 25 13 299 799 617 325 603 1237 946 1023 1037 1438 2174 1949 1944 1681 1039 1122 907 631 714 719 202 23 8 8 12 10 10 28 8 10 3 0 0 0 0
678 663 27 33 0 0 0 0 0 0 0 0 0 11 429 780 623 656 989 1161 928 951 977 1432 2129 2203 2003 1658 1319 1030 762 254 334 603 688 89 16 2 3 8 9 15 8 10 11 10 8 1 0
474 308 62 0 0 0 0 0 0 0 0 0 0 764 903 1030 918 809 895 1056 1017 781 1048 1494 2151 2206 1883 1628 1385 1092 400 200 97 330 849 406 19 0 0 0 3 10 20 9 8 8 12 0 0
429 172 39 0 0 0 3 23 0 0 0 0 3 902 1100 1091 965 891 767 1015 939 951 1205 1740 2136 2055 1937 1721 1485 1068 385 31 38 170 612 306 70 2 0 0 1 5 6 3 1 3 40 0 35
401 254 0 0 0 0 23 0 0 0 0 0 38 1212 1125 1294 1197 929 840 971 1287 1563 1423 1655 1776 1775 1906 1749 1630 1050 699 452 350 458 821 431 150 49 0 0 0 1 2 2 1 0 35 18 12
276 132 2 0 0 4 1 0 0 0 0 66 394 879 1087 1221 1404 1191 923 939 1658 1486 1466 1544 1514 1531 1549 1574 1257 1023 799 655 601 721 926 692 415 195 77 7 0 0 20 22 7 0 0 4 2
327 195 35 1 0 13 0 0 0 0 4 266 323 915 1093 1266 1517 1349 1359 1196 1488 1254 1410 1478 1389 1215 1055 865 715 655 629 780 757 670 630 221 163 196 266 132 57 8 12 14 9 10 7 0 0
197 138 12 27 41 1 0 0 0 1 5 197 142 646 668 1509 1582 1355 1270 1187 1245 1152 1448 1392 1303 1003 755 579 347 235 227 357 344 323 392 161 101 64 36 50 52 62 31 10 12 20 22 2 0
158 84 43 16 39 23 3 0 0 2 5 14 107 687 1082 1303 1432 1280 1162 1119 1203 1160 1299 1527 1232 804 755 462 125 3 9 73 147 216 223 185 113 57 53 23 41 54 34 26 23 21 28 2 0
93 2 49 140 147 78 19 2 0 0 20 12 3 608 1224 1412 1377 1352 1308 1077 1190 1175 1150 1256 1053 780 788 582 214 143 56 110 157 152 84 187 42 28 39 0 8 2 0 0 6 10 0 0 0
65 19 53 186 113 79 83 58 0 2 0 0 9 581 1029 1499 1440 1442 1389 1151 999 1224 1360 1221 1001 1047 834 802 438 255 113 130 140 105 32 9 13 1 0 19 0 0 0 0 0 0 0 0 0
10 6 84 91 61 38 37 33 28 8 0 0 0 375 679 1104 1294 1445 1330 1175 892 1103 1186 1346 1219 1130 883 563 435 432 164 52 33 42 30 3 0 0 0 0 0 0 0 0 0 0 0 0 0
2 43 15 70 95 34 7 37 24 2 0 0 0 0 245 710 956 1361 1459 1313 1353 1042 1107 1019 1262 1190 989 815 595 812 283 223 177 92 19 13 31 30 9 0 0 0 0 0 0 0 0 0 0
28 2 0 40 57 68 48 20 13 3 0 0 0 0 0 6 607 842 1045 1054 1276 1213 976 936 1011 1110 1104 948 747 572 379 520 369 310 214 49 48 51 33 18 0 0 0 0 0 0 0 0 0
57 52 0 1 55 69 52 0 17 48 6 0 0 0 0 0 5 583 878 1028 1234 1020 1003 1273 1166 1270 1019 951 1028 665 601 480 494 366 288 225 131 104 67 48 54 12 0 0 0 0 0 0 0
1 0 0 0 29 58 63 14 21 52 13 0 0 0 0 0 0 6 472 766 1117 1279 1224 1284 1171 1408 1785 983 1040 759 723 619 640 416 329 253 205 231 276 217 156 103 48 13 0 13 8 0 0
0 0 0 0 55 36 45 1 1 30 15 0 0 0 0 0 0 0 6 276 783 857 1278 1322 1221 1013 854 999 953 827 845 655 548 459 460 349 313 350 377 359 356 352 291 237 160 117 76 56 34
7 6 0 2 86 33 0 0 2 14 5 0 0 0 0 0 0 0 0 39 618 892 1180 1068 1075 1120 1092 1050 784 719 609 752 715 600 615 706 808 886 607 529 524 470 463 405 345 314 281 247 127
6 0 0 18 54 43 0 0 0 4 2 0 0 0 0 0 0 1 0 0 71 898 1167 1237 1143 1174 1093 923 995 813 713 577 612 699 813 791 790 826 786 738 585 544 536 506 445 327 425 267 216
25 0 15 21 3 0 0 0 0 0 0 0 0 0 0 0 0 0 0 0 4 112 658 1209 1279 1177 1043 1183 1066 759 679 667 801 734 791 719 903 833 854 934 1021 684 818 975 811 790 362 414 134
5 28 7 19 0 0 0 0 0 0 0 0 0 0 0 0 0 0 1 0 0 37 234 423 919 1081 1190 1102 1025 641 486 587 662 744 769 722 717 721 629 601 565 1181 1060 715 707 674 613 195 139
2 23 8 8 0 0 4 0 0 0 0 0 0 0 0 0 0 0 0 3 0 0 94 260 332 610 874 841 776 524 529 397 519 556 570 410 254 83 9 0 0 0 0 0 4 0 47 127 105
50 28 23 0 0 0 0 0 0 0 0 0 0 0 0 0 0 0 0 3 5 0 14 118 248 240 260 357 485 338 350 342 217 218 223 100 0 0 0 0 0 0 0 0 0 0 2 8 10
35 0 0 0 0 0 0 0 0 0 0 0 0 0 0 0 0 0 9 8 10 0 0 55 50 37 55 58 194 217 193 189 182 65 0 0 0 0 0 0 0 0 0 0 0 0 2 4 6
0 0 0 0 0 0 0 0 0 0 0 0 0 0 0 0 0 0 0 9 7 0 0 31 54 16 0 0 0 0 5 4 0 0 0 0 0 0 0 0 0 0 0 0 0 0 3 0 1
0 0 8 0 0 0 0 0 0 0 0 0 0 0 0 0 0 0 0 0 0 0 0 60 14 0 0 0 0 0 0 0 0 0 0 0 0 0 0 0 0 0 0 0 0 0 2 2 3
23 1 0 0 0 0 0 0 0 0 0 0 0 0 0 0 0 0 0 0 0 0 18 0 0 17 0 0 0 0 0 0 0 0 0 0 0 0 0 0 0 0 0 0 0 0 0 0 0
1 25 14 1 0 0 0 0 0 0 0 0 0 0 0 0 0 0 0 0 0 0 3 21 2 0 0 0 0 0 0 0 0 0 0 0 0 0 0 0 0 0 0 0 0 0 0 0 0
3 0 1 0 0 0 0 0 0 0 0 0 0 0 0 0 0 0 0 0 0 0 7 0 7 0 6 0 0 0 0 0 0 0 0 0 0 0 0 0 0 0 0 0 0 0 0 0 0

GFSSGP_con_mucape_093.txt.gz
CAPE
529 454 326 56 0 0 0 0 0 30 12 0 7 9 515 393 424 96 884 1090 1314 1381 1507 1681 2040 1843 1731 1470 916 747 698 669 341 84 14 25 26 31 47 181 82 14 11 5 4 2 0 0 0
397 348 267 29 1 0 0 0 2 0 0 0 8 262 319 330 265 892 1258 1438 1217 1358 1442 1639 2012 1984 1735 1418 1111 990 918 670 652 226 8 7 11 4 8 18 10 14 7 3 1 0 0 0 0
778 596 29 25 0 0 0 0 9 0 0 0 9 201 537 381 484 860 1211 1150 1116 1118 1473 1624 1974 1978 1819 1458 1236 988 955 639 856 476 76 2 3 10 12 21 12 9 8 6 6 4 0 0 0
397 467 209 4 0 0 0 0 13 0 0 0 336 833 878 783 718 1289 1166 1096 917 1117 1396 1736 2073 1952 1645 1457 1134 758 410 499 755 659 197 0 0 4 6 11 9 12 12 7 13 3 0 34 69
258 120 61 4 0 0 0 3 2 0 0 0 113 860 860 1046 982 1350 1193 927 877 1069 1427 1819 2049 1966 1711 1494 1142 809 392 353 713 781 128 5 0 0 3 6 6 4 7 8 9 1 10 52 31
240 108 10 0 0 0 1 0 0 0 0 58 962 878 856 1191 888 1221 1121 996 1001 1076 1516 1694 1711 1696 1671 1491 1071 649 402 532 843 1090 340 60 0 0 0 1 2 4 5 3 30 50 45 27 2
148 52 0 0 0 0 18 0 0 0 10 187 328 808 838 1221 1095 1069 1207 1211 1265 1388 1461 1447 1310 1355 1391 1267 981 734 609 520 752 1164 758 389 162 8 0 0 1 17 22 30 25 20 30 13 0
163 100 21 0 0 35 2 0 0 0 44 96 457 941 694 1237 1328 1219 1691 1488 1424 1340 1328 1315 1216 1122 1099 752 609 540 509 472 685 759 333 119 68 99 76 22 29 26 29 27 27 15 0 0 0
149 78 36 3 19 4 0 0 0 0 65 190 607 1070 1131 1455 1306 1381 1703 1698 1416 1374 1280 1238 990 820 754 316 215 211 405 380 306 477 189 49 22 31 0 0 19 35 30 22 21 23 11 0 0
48 45 41 22 53 9 0 0 10 0 30 455 931 842 1310 1376 1328 1352 1562 1510 1396 1402 1324 1151 868 715 485 231 37 10 159 172 126 301 202 53 16 1 23 7 11 40 33 29 16 20 19 0 0
37 9 61 88 127 113 0 0 10 9 5 120 819 1114 1319 1435 1301 1314 1335 1384 1317 1538 1345 1148 938 749 470 250 66 0 0 28 162 127 226 144 125 23 36 0 0 0 0 0 2 3 0 0 0
63 7 36 42 71 38 56 9 0 0 0 77 833 1244 1482 1502 1350 1091 1182 1339 1236 1492 1561 1338 1045 789 570 316 170 133 30 108 148 137 103 246 161 45 44 0 0 0 0 0 0 0 0 0 0
3 25 52 14 56 44 86 47 2 0 0 97 867 1178 1512 1536 1414 1202 1181 1198 1183 1241 1309 1426 1028 823 695 493 322 269 174 174 233 190 36 81 48 12 10 11 0 0 0 0 0 0 0 0 0
0 31 46 13 23 72 65 63 17 1 0 1 630 1030 1358 1461 1357 1245 1133 1013 1009 1290 1319 1285 1156 951 810 541 382 421 213 194 211 171 77 25 8 12 0 0 0 0 0 0 0 0 0 0 0
2 0 26 20 19 24 77 29 0 26 3 0 7 640 867 1133 1220 1467 1365 1162 966 925 1226 1467 1346 1149 992 648 498 529 346 240 218 170 90 22 45 51 33 13 1 0 0 0 0 0 0 0 0
54 0 0 7 1 24 6 5 1 15 15 0 0 0 17 524 878 1167 1389 1267 1052 1214 1152 1126 1303 1256 1279 957 761 586 481 520 392 210 282 147 61 78 56 28 28 18 1 0 0 0 0 0 0
1 0 0 0 0 12 17 0 1 14 35 12 0 0 0 0 81 713 899 1111 1329 1331 1228 940 985 1138 915 1215 1106 990 718 762 368 391 539 288 212 123 104 63 67 63 40 22 0 0 0 0 0
0 0 0 0 0 0 1 0 0 0 8 1 3 0 0 0 0 2 719 1008 1217 1275 1012 925 909 782 876 962 1019 1064 750 704 478 433 363 407 263 215 250 252 273 225 126 131 135 63 62 40 30
16 0 0 0 0 0 0 0 0 0 0 0 0 0 0 0 0 0 0 981 917 1286 1223 1167 1043 940 876 759 1152 949 843 837 662 597 438 423 293 286 354 398 392 355 320 292 511 430 465 201 400
0 0 0 44 122 31 0 0 0 0 0 0 1 0 0 0 0 0 0 8 938 970 1235 1419 1332 1242 1149 938 827 917 876 869 743 556 471 478 493 475 643 542 666 676 567 618 567 427 334 442 305
0 0 0 0 26 15 0 0 0 0 0 0 0 0 0 0 0 0 0 0 358 940 1247 1354 1249 1357 1277 1286 1100 1017 757 696 465 381 325 344 353 425 457 474 623 695 1098 827 648 533 512 538 121
21 45 28 7 4 0 4 0 0 0 0 0 0 0 0 0 0 0 0 0 2 687 1192 1381 1310 1224 1219 1154 1021 848 664 518 532 407 331 272 303 149 174 248 291 343 481 626 616 530 524 223 188
17 9 20 22 14 0 0 0 0 0 0 0 0 0 0 0 0 0 0 0 0 28 439 1232 1400 1384 1261 1157 1219 812 604 487 362 516 399 307 199 233 247 128 89 305 309 101 21 1 2 8 11
22 11 12 8 24 0 0 0 0 0 0 0 0 0 0 0 0 0 0 0 0 0 23 497 668 962 1186 1138 1077 863 628 473 398 488 400 331 258 156 0 1 0 0 0 0 0 0 0 0 0
29 0 0 0 0 0 0 0 0 0 0 0 0 0 0 0 0 0 0 0 0 4 7 1 53 354 565 642 704 658 513 424 369 283 305 266 168 57 0 0 0 0 0 0 0 0 0 0 0
15 25 0 0 0 0 0 0 0 0 0 0 0 0 0 0 0 0 0 0 0 1 3 5 4 26 234 302 237 326 377 215 114 229 206 46 3 0 0 0 0 0 0 0 0 0 0 0 0
0 0 3 0 0 0 0 0 0 0 0 0 0 0 0 0 0 0 0 0 0 0 6 10 11 3 32 114 85 56 181 175 135 86 0 0 0 0 0 0 0 0 0 0 0 0 0 0 0
4 0 0 0 0 0 0 0 0 0 0 0 0 0 0 0 0 0 0 0 0 0 0 0 0 0 0 42 46 4 0 0 0 0 0 0 0 0 0 0 0 0 0 0 0 0 0 0 0
3 8 17 0 0 0 0 0 0 0 0 0 0 0 0 0 0 0 0 0 0 0 0 0 0 4 0 7 11 0 0 0 0 0 0 0 0 0 0 0 0 0 0 0 0 0 0 0 0
3 1 2 0 0 0 0 1 0 0 0 0 0 0 0 0 0 0 0 0 0 0 0 0 0 8 4 8 18 0 0 0 0 0 1 0 0 0 0 0 0 0 0 0 0 0 0 0 0

GFSSGP_con_mucape_096.txt.gz
CAPE
729 555 358 158 0 0 0 0 0 19 16 0 0 112 444 254 238 27 815 944 1066 1243 1367 1378 1728 1644 1519 1241 731 616 360 246 408 431 351 416 418 738 667 59 12 9 3 0 0 0 0 0 0
533 380 317 57 1 0 0 0 0 0 0 61 181 178 66 268 442 1037 1229 1104 1185 1215 1206 1274 1719 1717 1513 1100 941 858 605 269 194 275 89 45 72 95 20 7 11 6 3 2 0 0 0 0 2
671 526 184 68 0 0 0 0 0 0 8 59 276 245 296 414 1049 972 1426 1207 1180 1160 1288 1447 1748 1766 1582 1322 1021 1058 907 279 21 11 21 31 4 7 7 10 6 3 2 2 0 1 0 1 139
336 244 184 10 0 0 0 0 5 4 0 6 644 660 683 672 898 1080 1336 1145 1080 1254 1325 1698 1794 1834 1475 1254 1152 1021 1005 299 30 1 1 7 10 23 3 7 6 7 56 4 1 1 74 130 20
188 201 12 12 0 0 0 0 2 2 1 52 227 700 720 922 934 1189 1291 919 1063 1260 1336 1570 1804 1754 1428 1189 1028 1047 1144 676 102 1 0 2 5 6 6 10 8 6 5 12 19 38 93 38 0
181 99 9 0 0 0 0 0 0 0 128 256 652 670 690 896 1223 1176 874 812 1082 1233 1464 1461 1404 1482 1399 961 796 860 1061 1133 777 153 0 0 3 5 5 5 4 3 9 29 27 45 54 17 0
109 76 1 0 0 0 0 0 0 2 211 472 461 304 870 799 850 986 902 930 1022 1396 1433 1237 1169 1217 1052 901 687 593 879 1084 948 635 189 0 1 5 4 5 3 19 23 30 42 36 20 4 0
89 26 0 0 0 0 0 0 9 99 84 414 637 620 760 822 827 755 881 1150 1251 1404 1266 1103 1032 1087 773 594 512 486 503 696 941 582 195 19 0 0 36 48 69 31 26 24 20 18 8 0 0
143 66 7 0 0 1 0 0 15 28 103 270 741 768 911 980 1067 1149 1214 1378 1228 1269 1115 1004 874 881 485 352 254 211 222 447 663 214 41 28 19 0 0 0 25 58 35 28 17 12 0 0 0
54 20 12 29 16 2 0 0 17 66 276 643 1023 1340 1315 1174 1148 897 1224 1216 1231 1313 1245 913 692 738 304 166 120 158 169 238 514 380 34 18 15 1 0 0 0 32 24 27 21 15 0 0 0
83 37 55 62 164 96 13 12 21 64 81 558 998 1177 1258 1218 1045 1051 1170 1187 1536 1176 1247 854 606 654 284 68 19 145 161 109 217 355 59 35 9 15 20 0 0 0 0 0 0 1 0 0 0
1 31 67 50 79 60 49 10 6 0 4 345 961 1084 1268 1196 1223 1302 1179 1290 1358 1311 1180 880 597 548 303 206 1 0 88 85 127 282 203 73 134 44 55 5 0 0 0 0 0 0 0 0 0
24 12 43 70 33 19 20 0 0 0 97 852 1210 1256 1293 1137 1166 1322 1283 1269 1458 1419 1239 997 742 537 386 259 136 39 4 83 146 115 228 299 237 146 69 13 0 0 0 0 0 0 0 0 0
1 4 40 35 24 33 14 0 0 0 240 909 1260 1319 1338 1276 1064 1065 1257 1379 1625 1612 1425 1169 967 749 499 325 262 245 184 192 194 161 90 123 171 119 61 12 6 0 0 0 0 0 0 0 0
2 1 11 111 3 14 20 0 0 0 8 594 805 1258 1425 1365 1200 1074 1082 1459 1381 1471 1573 1455 1090 922 603 446 380 483 310 276 303 210 225 94 123 69 29 14 18 4 0 0 0 0 0 0 0
0 1 0 34 12 9 12 10 7 0 0 11 325 594 1082 1309 1211 1164 1128 1071 1248 1429 1437 1459 1259 1047 796 584 462 530 593 345 280 277 226 135 58 55 91 78 45 25 3 0 0 0 0 0 0
0 0 0 0 0 1 16 44 22 13 0 0 0 73 436 865 1027 1149 1258 1143 925 904 1377 1513 1430 1316 1202 943 636 571 685 430 299 269 265 239 224 121 124 100 66 62 63 45 23 1 0 0 0
0 0 0 0 0 0 0 24 50 11 7 2 0 0 0 12 521 920 1027 1214 1127 1054 1103 1237 1454 1423 1477 1366 1172 1050 906 631 450 371 297 336 286 238 136 127 74 98 111 104 106 107 92 88 82
5 0 0 0 0 0 0 0 40 0 0 0 0 0 0 0 0 62 701 963 1128 1164 1067 1282 1299 1379 1392 1203 1192 1261 1113 995 664 474 460 428 328 307 234 251 251 280 499 558 399 396 292 348 154
7 0 0 0 9 0 0 0 0 0 0 0 0 0 0 0 0 0 0 507 981 1076 1221 1308 1014 900 821 830 884 952 1110 1086 824 714 637 635 470 347 288 358 447 477 431 519 375 399 370 392 341
0 0 0 0 14 0 0 0 0 0 0 0 0 0 0 0 0 0 0 0 952 909 1168 1276 1243 1147 1004 960 875 855 846 960 958 703 717 524 323 289 267 320 379 347 302 372 429 417 457 400 252
0 5 0 4 0 0 0 0 0 0 0 0 0 0 0 0 0 0 0 0 18 1007 1125 1232 1391 1411 1293 1220 1040 922 855 852 846 669 412 342 327 283 316 387 258 164 209 177 148 332 311 321 356
0 10 3 5 0 0 0 0 0 0 0 0 0 0 0 0 0 0 0 0 0 27 785 1172 1409 1534 1382 1340 1258 1074 926 907 741 751 480 374 316 290 195 83 39 162 18 45 174 385 271 58 33
6 21 17 25 9 0 0 0 0 0 0 0 0 0 0 0 0 0 0 0 0 0 105 966 1295 1442 1384 1324 1244 1096 883 770 650 557 489 431 327 238 46 102 119 1 7 53 15 0 0 0 0
20 27 6 0 0 0 0 0 0 0 0 0 0 0 0 0 0 0 0 0 0 0 0 22 591 1258 1307 1340 1246 1097 776 684 586 486 399 347 274 196 161 135 5 0 0 0 0 0 0 0 0
3 0 4 0 0 0 1 0 0 0 0 0 0 0 0 0 0 0 0 0 0 0 0 0 207 531 549 672 667 673 712 653 492 379 283 208 230 144 98 78 21 0 0 0 0 0 0 0 0
11 9 1 0 0 0 0 0 0 0 0 0 0 0 0 0 0 0 0 0 0 0 0 0 0 1 36 191 323 338 350 387 335 257 154 171 68 13 1 0 0 0 0 0 0 0 0 0 0
5 2 0 0 0 0 0 0 0 0 0 0 0 0 0 0 0 0 0 0 0 0 0 0 0 0 0 0 0 23 209 168 133 97 58 14 3 0 0 0 0 0 0 0 0 0 0 0 0
11 0 5 0 0 0 0 0 0 0 0 0 0 0 0 0 0 0 0 0 0 0 0 0 0 0 0 0 0 0 15 54 47 3 5 0 0 0 0 0 0 0 0 0 0 0 0 0 0
27 12 6 0 0 0 0 0 0 0 0 0 0 0 0 0 0 0 0 0 0 0 0 0 0 0 0 2 9 5 2 6 8 5 6 0 0 0 0 0 1 0 0 0 0 0 0 0 0

GFSSGP_con_mucape_099.txt.gz
CAPE
735 778 577 325 37 0 0 0 0 33 33 22 16 17 17 15 4 0 551 707 948 1122 1198 1298 1703 1576 1266 341 90 0 167 651 1046 1014 944 904 814 530 127 16 4 2 0 1 5 5 2 0 2
706 599 407 193 0 0 0 0 0 16 46 76 226 226 110 148 665 996 954 974 1070 1136 1146 1096 1627 1602 1133 659 138 22 129 281 476 693 816 830 435 153 39 9 5 3 1 0 0 0 0 1 126
671 404 281 167 4 0 0 0 0 2 38 103 109 194 141 643 927 861 1097 1051 1092 1003 956 1131 1565 1517 1344 967 538 74 27 81 219 490 602 566 121 15 10 6 2 1 2 2 1 1 93 172 13
464 262 183 48 0 0 0 0 0 0 1 1 98 436 604 785 768 1065 1190 1110 996 989 935 1355 1499 1636 1245 1135 1114 363 4 4 5 91 233 308 165 7 5 3 1 1 4 20 64 131 219 35 97
344 18 6 35 0 0 0 0 0 24 3 2 290 497 790 822 899 1240 1244 1071 995 1023 1150 1122 1644 1543 1284 1238 1247 963 211 4 2 4 6 19 4 6 8 5 4 26 55 58 93 163 112 15 27
364 169 0 1 0 0 0 0 0 38 30 0 269 483 677 1013 1251 1368 1105 988 969 1112 1155 1109 1409 1326 1288 1143 1085 1192 764 65 3 4 9 10 9 9 8 6 7 29 59 75 110 145 33 0 6
134 210 0 0 0 0 0 0 0 52 10 6 320 606 1019 1699 1615 1380 1121 942 1042 1178 1202 1053 985 948 817 838 1021 1203 960 585 105 5 8 26 19 11 8 10 28 33 55 61 75 39 12 0 0
87 57 0 0 0 0 0 0 9 157 102 201 460 605 769 1174 1116 959 926 962 964 1074 1085 892 886 733 550 458 464 742 899 724 418 37 0 0 1 8 60 50 77 51 32 36 34 20 5 0 0
82 119 6 0 0 0 0 0 87 111 425 446 511 797 870 848 708 800 749 923 1038 1041 998 834 703 500 372 226 252 383 567 629 311 14 0 0 0 0 0 0 35 65 36 22 16 1 0 0 0
32 0 0 18 44 0 0 8 10 109 500 640 1166 1144 1037 762 318 705 504 768 794 879 951 865 740 344 287 159 106 121 447 578 150 0 0 0 0 0 0 0 2 42 40 29 19 12 0 0 0
9 37 52 88 187 50 0 12 14 268 364 727 1174 1318 1356 780 317 668 669 890 801 923 877 837 774 342 239 112 57 97 332 601 369 34 0 0 0 0 0 0 0 0 0 0 0 0 0 0 0
40 50 66 60 84 44 27 2 101 22 186 623 1414 1312 1152 898 350 305 127 265 848 890 961 873 643 461 207 71 81 95 202 329 531 242 15 0 0 5 2 0 0 0 0 0 0 0 0 0 0
17 9 28 56 61 33 9 0 8 284 812 915 1285 1280 1272 1097 731 139 26 4 751 1090 1133 936 643 590 270 67 31 111 67 91 342 332 121 54 48 16 40 3 0 0 0 0 0 0 0 0 0
4 2 4 43 31 26 18 4 0 119 876 1145 1058 1182 1201 912 768 382 308 132 689 968 1184 1037 704 662 373 297 32 21 94 96 118 225 289 193 234 220 68 44 0 0 0 0 0 0 0 0 0
0 0 0 37 33 10 19 3 0 59 725 916 1032 905 1043 883 795 664 669 649 300 753 1183 1146 766 640 481 372 229 127 12 89 165 133 153 271 328 191 173 75 13 0 0 0 0 0 0 0 0
4 7 13 38 31 16 25 2 0 0 112 358 455 683 800 953 1036 949 907 802 1041 1138 1173 1127 896 736 585 374 307 283 246 231 221 170 202 149 139 180 134 80 54 23 7 0 0 0 0 0 0
0 2 1 36 82 43 45 4 0 0 0 4 3 114 400 576 873 993 797 935 1002 951 962 941 917 915 768 437 456 370 468 342 312 330 271 287 195 157 140 95 101 80 32 32 13 6 2 0 0
0 0 0 12 36 6 22 1 3 1 0 0 0 0 3 237 589 778 887 737 852 1037 1133 961 1067 973 979 620 486 467 620 658 535 282 275 266 250 192 175 143 141 124 66 76 71 79 98 121 106
0 0 0 0 4 3 1 0 18 46 0 0 0 0 0 0 0 376 591 831 751 725 783 994 1006 1147 1125 1085 930 803 790 693 529 338 285 263 235 225 190 203 144 118 128 138 94 144 225 260 236
0 0 0 0 0 0 0 0 0 17 1 0 0 0 0 0 0 0 53 499 597 878 932 925 1051 1081 1222 1290 1334 1256 1146 1111 973 623 493 409 346 315 318 272 239 220 273 258 291 303 276 346 407
0 0 0 0 0 0 0 0 0 0 0 4 0 0 0 0 0 0 0 0 211 686 882 941 1107 1173 1218 1368 1283 1128 1040 1066 1098 914 704 607 529 516 446 314 267 336 463 428 314 330 327 317 320
0 0 0 0 0 0 0 0 0 0 0 0 0 0 0 0 0 0 0 0 0 271 828 897 929 1011 1022 1029 1052 892 842 855 842 869 764 749 692 599 426 264 246 271 299 268 227 377 318 262 230
0 3 0 16 35 0 0 0 0 0 0 0 0 0 0 0 0 0 0 0 0 0 340 753 887 1003 992 927 944 840 907 815 705 732 747 532 533 425 338 288 280 253 165 117 96 59 169 202 243
11 19 10 4 30 0 0 0 0 0 0 0 0 0 0 0 0 0 0 0 0 0 0 423 865 1020 1088 1145 1120 1064 971 950 868 777 659 511 382 306 293 234 165 111 57 18 1 98 150 137 6
8 28 0 0 0 0 0 0 0 0 0 0 0 0 0 0 0 0 0 0 0 0 0 0 307 900 1127 1237 1270 1113 1025 867 765 696 566 442 355 272 207 166 59 15 10 0 0 0 0 0 0
3 20 0 0 0 0 0 0 0 0 0 0 0 0 0 0 0 0 0 0 0 0 0 0 0 178 817 1076 1138 1033 929 842 748 546 526 367 281 181 114 67 7 74 1 1 0 0 0 0 0
4 5 3 6 0 0 0 0 0 0 0 0 0 0 0 0 0 0 0 0 0 0 0 0 0 0 226 524 572 541 551 535 603 572 417 314 223 140 122 29 8 4 0 1 0 0 0 1 0
1 4 6 3 0 0 0 0 0 0 0 0 0 0 0 0 0 0 0 0 0 0 0 0 0 0 0 13 7 38 93 162 237 355 350 247 182 99 39 40 0 0 0 0 0 0 1 0 0
30 10 7 4 0 0 0 0 0 0 0 0 0 0 0 0 0 0 0 0 0 0 0 0 0 0 0 0 0 0 0 0 21 107 162 134 68 26 4 0 0 0 0 0 0 0 0 2 0
42 32 16 4 0 0 0 0 0 0 0 0 0 0 0 0 0 0 0 0 0 0 0 0 0 0 0 0 0 0 0 0 0 0 15 9 10 0 0 0 2 1 0 0 5 0 0 0 0

GFSSGP_con_mucape_102.txt.gz
CAPE
417 509 461 286 114 6 0 0 0 12 20 34 17 9 21 17 0 0 324 318 768 896 1035 1176 1580 1187 591 4 31 245 716 1124 1603 1412 1197 1042 778 385 55 8 3 6 12 17 21 21 16 8 2
316 413 271 130 30 19 0 0 0 0 11 48 97 104 46 12 479 872 749 798 797 896 1004 1068 1578 1056 399 32 51 314 868 1064 1115 1228 1048 998 531 126 23 4 2 3 6 8 8 62 92 156 150
334 416 216 153 1 22 0 0 4 0 12 41 178 127 171 199 622 797 939 959 932 941 945 1088 1523 981 633 39 101 350 648 860 994 951 1000 975 271 16 8 6 4 2 5 2 41 158 92 78 448
407 373 205 25 0 0 0 0 0 93 0 0 397 352 536 592 1091 982 1071 1008 896 851 898 1248 1408 1110 1016 527 212 245 386 357 449 840 797 526 127 9 9 6 6 9 104 88 170 182 46 277 493
495 407 134 10 0 0 0 0 0 7 26 0 185 283 755 990 848 1056 1144 977 778 793 1000 1038 1476 1326 1227 766 371 132 83 78 68 234 287 53 9 10 8 8 11 17 73 138 187 104 26 38 226
287 231 10 0 0 0 0 0 0 17 3 0 1 255 627 1043 1246 1153 968 1021 745 851 980 894 1141 1170 1243 1072 820 305 5 5 37 190 248 11 10 9 7 9 5 6 71 144 229 71 13 5 15
155 140 0 0 0 0 0 0 61 17 5 0 4 245 918 1422 1297 1155 901 1028 950 938 824 857 797 791 843 1024 952 573 50 7 22 78 152 48 20 10 6 7 45 35 95 116 123 32 0 0 0
16 175 1 4 0 0 0 0 53 63 2 25 7 149 818 1108 1773 1097 1044 956 965 895 843 694 603 521 527 593 735 516 261 0 5 13 11 6 5 8 55 44 26 62 82 72 44 23 0 0 0
33 2 7 0 0 0 1 24 54 10 53 142 3 222 563 1160 1217 1107 927 858 867 782 694 582 408 343 273 274 611 604 322 74 0 0 0 0 0 0 0 0 10 54 21 16 9 0 0 0 0
22 0 0 4 0 0 13 17 156 325 397 429 862 1036 823 812 815 969 833 804 704 672 679 494 285 200 103 74 266 581 447 114 0 0 0 0 0 0 0 0 0 33 14 6 0 0 0 0 0
2 38 25 5 96 127 5 135 113 429 373 422 442 1285 1167 879 559 552 492 515 896 976 668 617 543 132 84 44 118 361 514 194 0 0 0 0 0 0 0 0 0 0 0 0 0 0 0 0 0
0 3 28 211 86 116 26 53 251 270 156 709 1218 1290 1114 634 68 11 452 564 692 831 814 642 476 175 118 25 31 195 459 526 30 0 0 0 0 0 0 0 0 0 0 0 0 0 0 0 0
0 0 14 6 60 51 26 162 92 221 642 1251 1266 1051 923 554 329 116 681 633 632 841 932 670 752 210 170 46 15 94 374 535 324 51 0 0 0 0 0 0 0 0 0 0 0 0 0 0 0
0 0 1 12 23 19 54 150 153 495 774 1074 1165 1147 702 542 285 258 312 241 263 611 769 839 634 313 241 96 50 31 221 351 461 300 48 34 0 4 31 6 0 0 0 0 0 0 0 0 0
0 18 17 34 20 22 57 68 56 270 465 672 737 1026 812 573 342 108 82 35 27 202 537 650 660 506 385 212 29 47 36 186 301 425 212 145 107 155 71 43 5 0 0 0 0 0 0 0 0
3 0 10 34 37 4 31 21 38 133 179 250 301 430 578 587 491 145 68 31 141 64 232 98 544 563 538 366 244 22 51 69 96 108 274 261 238 260 185 92 27 4 0 0 0 0 0 0 0
0 0 2 1 18 17 13 13 13 36 59 31 137 188 254 544 609 544 356 125 129 32 0 0 461 700 605 471 331 173 129 62 111 144 135 200 278 260 182 123 44 38 14 1 1 0 0 0 0
0 0 6 4 25 45 34 6 0 0 1 5 25 82 210 273 481 632 667 361 91 134 361 751 869 749 644 559 426 282 300 321 277 253 272 267 242 182 181 156 108 88 77 31 36 42 69 76 84
0 0 0 0 2 0 6 19 3 0 0 0 0 6 34 139 180 222 581 602 498 439 591 747 842 527 706 448 413 365 437 515 508 520 384 376 330 270 196 187 167 145 142 81 94 77 95 119 190
0 0 0 15 0 0 24 10 3 4 3 0 0 0 0 0 5 107 208 434 470 487 510 393 412 436 467 540 564 479 421 488 721 700 645 425 340 294 238 245 257 217 173 101 128 116 167 217 315
0 0 0 0 0 0 0 24 0 8 0 0 0 0 0 0 0 0 0 259 519 579 505 485 480 616 507 447 424 559 446 542 680 883 693 500 412 372 356 332 357 253 209 192 229 257 229 166 263
0 0 0 0 0 0 0 2 0 0 1 2 0 0 0 0 0 0 0 0 28 362 564 795 806 895 941 630 602 505 504 558 808 922 960 759 649 564 471 380 365 267 189 232 231 195 189 199 61
0 0 0 8 0 0 0 0 0 0 0 0 0 0 0 0 0 0 0 0 0 0 0 388 734 815 792 801 730 704 708 978 823 752 766 777 705 644 451 351 297 203 133 116 71 41 38 59 71
0 6 0 25 0 2 0 0 0 0 0 0 0 0 0 0 0 0 0 0 0 0 0 7 360 669 772 731 779 790 765 868 754 718 673 629 637 607 522 386 268 155 145 97 24 21 0 23 39
9 35 0 0 0 1 0 0 0 0 0 0 0 0 0 0 0 0 0 0 0 0 0 0 92 380 659 781 912 923 865 679 765 746 681 626 485 415 434 319 229 158 146 42 6 7 6 0 0
15 18 0 0 0 0 0 3 0 0 0 0 0 0 0 0 0 0 0 0 0 0 0 0 0 59 412 682 783 809 751 825 822 640 585 502 381 254 226 215 142 85 60 76 0 1 1 0 0
9 10 4 0 0 0 0 0 0 0 0 0 0 0 0 0 0 0 0 0 0 0 0 0 0 0 4 438 600 540 518 514 523 558 572 519 388 260 205 126 89 97 56 13 5 1 1 0 0
19 4 5 10 0 0 0 0 0 0 0 0 0 0 0 0 0 0 0 0 0 0 0 0 0 0 0 35 275 295 218 138 116 138 234 340 355 308 204 155 86 36 12 0 0 0 0 0 0
53 81 21 3 0 0 0 0 0 0 0 0 0 0 0 0 0 0 0 0 0 0 0 0 0 0 0 0 0 0 0 0 0 14 97 181 226 200 193 68 41 20 1 0 0 0 0 0 0
49 41 36 25 0 0 0 0 0 0 0 0 0 0 0 0 0 0 0 0 0 0 0 0 0 0 0 0 0 0 0 0 0 0 6 38 64 65 42 22 17 11 2 0 0 0 0 0 0

GFSSGP_con_mucape_105.txt.gz
CAPE
91 136 238 162 144 70 0 0 0 0 9 41 60 7 3 1 0 0 246 267 842 1120 1128 909 1252 978 293 302 543 782 1365 1103 1475 1325 1635 1381 865 307 58 9 7 177 16 24 22 21 79 96 70
247 141 212 155 110 0 0 0 0 0 6 50 36 69 18 8 315 541 598 649 895 1122 1067 776 1203 849 63 403 694 1026 1505 1559 1210 1338 1368 1411 527 117 12 7 9 48 20 20 19 14 89 133 62
255 268 244 120 70 0 0 0 0 0 20 37 50 103 102 134 593 569 843 813 983 1152 886 1010 1062 683 34 542 767 1292 1408 1424 1247 1137 1141 1102 228 35 7 5 19 120 186 92 25 97 121 414 388
242 359 392 149 44 0 0 0 0 0 34 110 208 228 591 590 920 979 914 871 1031 1056 958 1000 948 761 327 863 1109 1280 1320 1064 932 858 1041 753 96 12 9 12 22 108 222 245 108 101 324 442 273
313 373 138 70 12 0 0 4 17 21 55 33 0 41 580 666 1032 1094 803 852 877 961 1092 698 1116 809 520 568 902 906 932 1132 794 1025 545 166 13 12 12 14 9 129 152 245 48 47 250 90 47
274 315 69 19 0 0 2 13 26 110 116 7 0 0 290 844 1314 1261 1174 816 764 962 1054 572 890 870 489 336 456 645 596 782 765 750 285 11 10 8 10 10 7 99 140 101 55 33 31 44 27
179 185 21 0 0 0 0 5 31 277 166 8 0 13 298 1118 1257 1209 1003 1067 785 1014 903 869 612 656 558 298 197 275 362 163 389 386 212 80 22 15 10 12 21 36 221 207 48 26 19 11 1
251 180 16 0 0 0 0 0 9 20 91 16 0 0 16 700 1078 786 1032 880 733 905 898 825 810 580 586 415 144 5 8 57 175 38 13 10 9 11 56 3 4 27 145 117 33 11 0 0 0
119 99 2 0 0 0 0 0 136 216 265 92 0 0 0 357 984 843 936 634 773 773 668 627 461 374 524 617 197 5 0 5 8 8 3 5 8 8 7 2 4 126 115 20 0 0 0 0 0
59 66 0 17 0 0 15 0 376 527 671 66 30 12 158 294 716 775 664 697 572 719 649 566 333 216 209 461 458 117 2 2 3 5 5 4 5 4 2 2 1 50 17 0 0 0 0 0 0
13 70 15 48 15 41 1 0 295 512 475 54 2 66 298 312 370 676 479 494 445 782 671 340 302 124 103 142 382 275 55 2 0 0 0 0 0 1 3 5 3 1 0 0 0 0 0 0 0
0 3 12 22 18 111 0 0 135 369 200 309 157 411 222 194 120 60 420 466 680 670 608 345 150 63 26 30 300 337 254 9 0 0 0 0 0 0 0 0 0 0 0 0 0 0 0 0 0
0 0 12 21 14 58 26 0 31 256 481 713 900 761 974 105 38 103 47 257 438 608 628 937 231 85 27 6 42 303 463 139 7 1 0 0 0 0 0 0 0 0 0 0 0 0 0 0 0
0 7 10 58 25 40 14 0 8 128 517 772 575 921 957 208 40 18 4 367 731 626 980 682 386 128 45 5 0 114 336 419 134 31 21 0 0 0 0 0 0 0 0 0 0 0 0 0 0
0 5 23 67 7 26 0 28 17 45 270 494 513 751 735 346 38 38 318 351 608 820 1028 764 715 254 82 39 19 34 147 236 723 200 66 38 4 9 33 17 0 0 0 0 0 0 0 0 0
0 0 8 1 10 11 13 9 4 31 146 165 176 266 264 366 150 40 219 282 483 661 883 759 596 491 243 144 42 22 32 186 322 468 250 94 61 66 84 54 26 2 0 0 0 0 0 0 0
0 0 2 5 0 4 8 12 16 40 57 66 119 70 179 197 150 147 136 143 193 562 590 544 495 680 439 335 234 71 55 71 121 234 300 235 141 162 185 139 77 21 19 22 1 0 0 4 0
0 0 0 0 0 20 0 2 2 43 70 80 70 70 144 276 182 211 122 84 95 95 59 44 53 376 567 481 289 257 143 56 86 90 111 130 220 236 248 177 101 47 55 51 20 11 8 35 82
0 0 0 0 0 5 0 4 9 33 57 74 90 97 73 188 249 292 283 202 96 85 35 28 86 567 473 444 252 224 307 173 102 123 130 117 202 191 185 158 126 101 106 93 56 31 43 65 66
0 0 0 0 0 12 1 0 6 11 21 22 35 86 105 111 172 252 475 271 251 367 339 626 299 655 537 485 209 204 231 215 233 238 202 203 264 285 287 201 162 151 149 132 127 70 102 126 139
0 0 0 0 0 0 0 3 3 1 19 12 4 12 81 93 77 75 145 301 289 298 377 464 456 608 416 198 198 24 98 183 266 216 310 394 400 338 352 323 217 207 227 181 147 138 149 135 104
0 0 0 0 0 0 0 2 0 5 7 10 14 5 6 6 18 127 125 239 368 335 423 294 286 308 270 240 166 9 72 111 231 186 185 246 291 237 326 373 317 318 344 234 118 135 104 57 10
0 0 4 0 0 1 1 0 0 0 0 1 12 16 12 8 0 0 6 9 111 154 274 356 324 361 266 425 238 168 159 189 243 144 215 417 485 579 553 550 402 379 225 186 134 45 24 24 46
0 2 20 23 0 1 0 0 0 0 0 0 0 0 0 8 12 6 0 0 0 0 2 149 338 486 408 291 333 381 201 249 254 330 311 301 358 668 651 534 411 270 193 169 140 110 31 30 9
15 20 0 0 0 0 0 0 6 0 0 0 0 0 1 11 2 0 0 0 0 0 4 0 80 324 502 518 551 552 522 393 329 272 300 395 402 419 431 468 396 250 208 173 189 130 66 7 4
27 8 0 0 0 0 0 0 0 0 0 0 0 0 0 0 0 0 0 0 0 0 0 0 2 84 360 585 593 669 607 530 483 441 441 457 472 430 292 264 276 261 344 146 86 52 14 2 0
4 15 4 1 0 0 0 0 0 0 0 0 0 0 0 0 0 0 0 0 0 0 0 0 0 0 69 383 508 536 765 739 425 351 379 447 428 407 301 215 186 160 70 38 39 38 23 5 2
29 6 51 14 0 0 0 0 0 0 0 0 0 0 0 0 0 0 0 0 0 0 0 0 0 0 0 102 320 348 349 345 365 312 296 337 399 364 300 252 189 134 57 30 29 13 3 0 0
88 81 15 1 1 0 0 0 0 0 0 0 0 0 0 0 0 0 0 0 0 0 0 0 0 0 0 0 49 154 108 47 25 27 53 154 209 294 280 264 224 103 33 12 6 1 0 0 0
23 11 19 28 0 1 0 0 0 0 0 0 0 0 0 0 0 0 0 0 0 0 0 0 0 0 0 0 0 0 0 0 0 0 18 19 42 79 127 246 126 24 9 6 0 0 0 0 0

GFSSGP_con_mucape_108.txt.gz
CAPE
7 90 94 158 258 105 19 0 4 14 16 20 0 110 84 98 147 375 360 691 685 973 1127 974 1209 1005 840 1210 1182 1058 1564 1669 1781 1718 1430 1065 791 382 176 572 600 276 23 64 421 322 140 25 36
50 63 170 176 139 0 4 0 10 6 25 3 37 97 96 50 144 760 697 722 934 1201 1090 815 1140 924 792 968 1045 1327 1340 1684 1704 1481 1345 936 626 157 42 507 538 159 45 25 40 93 99 65 77
113 101 157 189 107 0 0 1 27 12 18 0 33 67 83 127 697 770 924 802 1067 1096 865 755 1132 686 845 1014 1356 1538 1477 1711 1585 1391 1121 1176 328 43 11 323 345 376 23 42 101 156 169 118 73
116 255 241 76 89 65 5 27 25 42 9 0 39 149 683 875 958 922 984 938 1017 1107 807 920 834 586 1261 1384 1534 1737 1759 1607 1466 1191 1019 926 452 13 86 231 333 251 256 136 109 325 275 131 30
245 243 123 137 66 90 34 57 47 30 28 32 60 162 404 879 1203 1156 1016 1053 1083 1040 880 774 770 647 1324 1250 1441 1462 1626 1325 1156 1091 942 388 45 21 16 81 235 316 424 72 262 232 143 33 0
256 193 178 0 16 18 23 69 55 21 59 228 246 216 351 996 1253 1171 965 961 1055 909 754 629 454 662 1165 1135 1338 1314 1249 1091 1016 1151 678 340 69 38 12 65 281 389 153 69 125 150 56 23 0
192 238 132 19 0 8 34 119 10 62 142 195 229 231 129 992 1356 1184 853 875 832 889 653 510 82 140 570 800 930 976 1004 826 870 681 304 53 77 67 8 110 246 314 273 43 50 37 34 20 0
261 230 139 31 0 0 6 11 35 28 187 244 339 241 187 232 1392 1058 804 901 789 860 553 443 17 0 262 370 294 330 285 398 443 176 10 8 12 20 53 91 31 597 456 75 41 12 0 0 0
260 131 161 49 0 14 0 30 3 10 231 418 297 167 108 616 1033 760 695 756 881 919 567 316 18 10 0 9 79 47 57 43 4 2 4 2 4 11 3 3 25 261 335 67 9 0 0 0 0
156 142 47 50 30 0 0 14 7 15 262 423 329 164 290 815 733 274 569 656 674 761 790 415 34 40 48 4 1 4 30 41 13 6 7 0 0 7 7 7 17 129 107 55 0 0 0 0 0
92 120 90 7 8 4 0 0 27 8 117 308 266 246 130 77 71 242 442 483 609 586 681 427 130 172 661 85 2 0 0 3 8 6 3 0 2 8 9 62 55 38 0 0 0 0 0 0 0
68 79 64 0 0 0 11 0 5 5 25 356 278 236 202 37 0 1 158 327 540 693 640 464 407 123 538 531 75 7 0 0 4 7 1 3 1 3 2 1 1 0 0 0 0 0 0 0 0
142 59 34 10 0 1 3 18 1 49 232 129 328 311 307 186 27 3 35 59 316 605 701 677 565 257 142 811 329 306 11 0 0 1 0 0 0 0 0 0 0 0 0 0 0 0 0 0 0
36 1 20 1 0 0 2 16 0 9 9 46 488 450 252 171 35 0 3 14 75 553 756 649 535 103 24 262 509 409 216 49 0 0 0 0 0 0 0 0 0 0 0 0 0 0 0 0 0
4 7 31 10 54 34 4 0 0 0 13 23 430 493 461 209 44 2 33 10 1 659 597 663 600 150 0 1 340 611 412 325 152 36 13 0 0 0 0 0 0 0 0 0 0 0 0 0 0
4 0 0 30 39 2 0 0 46 0 0 123 288 430 574 301 81 18 11 0 74 528 587 433 601 311 104 3 0 160 479 336 252 200 123 116 50 29 106 130 62 27 14 5 9 5 0 5 7
2 0 1 17 4 0 0 0 0 0 2 63 214 357 412 246 115 40 27 9 153 628 879 811 608 506 341 225 61 5 27 358 551 483 518 324 218 122 239 285 184 125 87 38 34 22 7 24 33
0 0 0 0 0 0 0 0 0 13 19 25 120 130 162 258 155 45 64 97 182 453 855 1184 1178 967 787 602 291 117 61 40 68 257 524 623 492 347 369 439 372 210 172 135 85 16 13 32 61
0 0 0 0 0 0 0 0 8 20 34 11 49 106 49 163 137 131 137 94 104 175 134 276 529 1110 781 801 596 448 248 169 147 137 144 207 322 513 601 623 462 319 234 164 147 47 42 48 129
0 0 0 0 0 0 0 0 13 44 22 0 18 49 3 77 147 212 155 73 114 92 92 125 309 768 816 654 439 407 494 605 432 306 236 288 283 364 550 661 567 438 306 216 139 83 104 205 282
0 0 0 0 0 0 0 0 0 36 48 19 1 25 59 94 126 234 410 291 90 131 169 267 316 717 693 684 304 100 59 160 361 625 682 492 340 414 449 440 570 511 298 169 146 139 244 382 239
0 0 0 0 0 0 0 0 0 13 37 18 32 31 30 56 94 158 241 376 106 218 320 265 240 443 438 241 135 1 13 16 248 359 656 280 250 224 222 144 154 244 218 236 234 174 166 78 26
0 0 0 12 0 0 0 0 0 0 40 8 2 3 36 83 73 84 197 216 312 350 250 430 156 226 152 166 99 107 38 36 43 85 72 49 59 151 185 157 178 166 264 244 180 141 142 42 17
1 32 45 34 0 2 0 0 0 0 0 15 14 11 6 21 65 50 63 91 120 184 408 564 447 227 213 146 232 298 107 25 41 64 34 53 31 102 132 174 189 210 191 206 201 196 158 108 37
44 56 0 0 0 0 0 0 0 0 0 1 7 13 7 11 1 0 10 5 14 43 161 270 616 480 390 397 356 336 268 106 153 112 125 137 137 105 119 182 175 179 277 309 246 225 338 165 127
50 45 0 0 0 0 0 0 0 0 0 0 0 0 0 0 0 0 0 0 0 0 0 8 75 468 631 535 424 450 340 334 305 289 280 218 148 124 133 194 321 314 294 267 233 267 248 152 28
45 71 20 2 0 0 0 0 0 0 0 0 12 0 0 0 0 2 1 0 0 0 0 0 0 34 395 492 539 383 474 470 421 280 243 206 222 238 267 308 291 329 277 383 358 308 119 12 21
59 19 134 172 0 0 0 0 0 0 0 0 0 0 0 0 14 12 0 0 0 0 0 0 0 5 125 378 362 425 451 467 400 347 303 262 356 337 339 310 348 276 338 289 153 70 20 6 1
19 40 32 20 34 0 0 0 0 0 0 0 0 0 0 0 0 0 0 0 0 0 0 0 0 0 36 219 202 287 297 315 343 316 280 260 284 318 309 276 328 261 215 120 89 89 56 22 3
31 11 3 53 0 0 0 0 0 0 0 0 0 0 0 0 0 0 0 0 0 0 0 0 0 0 0 1 22 43 165 136 74 23 15 39 92 107 148 207 237 259 199 119 109 20 1 0 0

GFSSGP_con_mucape_111.txt.gz
CAPE
26 1 119 50 94 126 12 0 0 0 0 0 87 258 308 256 329 531 680 912 614 1295 1142 1179 1356 1161 1171 1358 1245 1877 2033 1738 1527 1677 1413 925 602 322 770 752 432 59 333 440 59 69 137 40 9
17 31 162 111 41 0 0 0 0 0 0 18 64 111 197 219 623 624 717 771 833 1403 1167 1071 1325 1158 1370 1600 1370 1684 1796 1825 1661 1531 1429 1026 719 541 976 617 708 479 531 491 272 107 15 13 6
0 13 61 32 0 0 0 0 0 0 2 12 118 56 216 278 393 788 896 805 903 1280 1133 1040 1288 1182 1530 1484 1405 1496 1619 1630 1454 1326 1214 1069 945 307 543 668 543 323 314 383 130 89 68 4 1
18 42 101 1 0 0 0 2 10 8 16 54 161 45 231 1088 596 833 896 871 1286 1281 1016 941 1097 1204 967 1534 1487 1455 1515 1417 1414 1152 1067 1030 624 565 432 602 384 196 287 266 198 152 137 13 0
61 94 0 0 0 18 16 6 14 28 30 84 79 146 280 903 1030 1123 1016 1068 1274 1224 1161 872 986 1251 1475 1781 1620 1459 1390 1338 1209 1176 1148 796 515 518 309 443 246 427 349 332 290 213 49 0 0
89 40 0 0 0 16 3 37 33 17 61 63 133 214 607 1101 1232 1138 1103 1068 1191 1161 1264 669 642 1352 1589 1733 1684 1684 1571 1254 1159 1020 899 556 404 357 129 171 375 367 157 530 178 96 16 0 0
62 63 0 0 0 24 4 1 53 9 13 64 103 130 736 1183 1342 1264 1157 1012 1189 1006 721 350 45 1093 1151 1280 1287 1346 1297 943 868 815 544 10 118 182 126 10 492 253 152 403 374 82 0 0 0
71 170 57 55 48 2 0 23 0 2 1 28 80 139 618 1198 1442 1327 1185 1068 1199 872 718 269 0 993 979 951 804 756 700 613 540 250 55 13 14 9 19 54 221 376 232 167 136 33 9 0 0
83 97 85 40 55 22 37 84 23 49 0 11 4 244 530 1333 1646 1242 1034 1078 881 879 654 274 0 182 943 757 499 314 294 287 228 32 2 7 4 7 14 63 204 355 247 99 27 0 0 0 0
105 85 55 31 112 128 60 5 2 4 21 7 123 172 995 1711 1467 1202 810 764 768 726 680 122 0 2 402 584 395 744 347 190 167 95 7 0 0 6 10 16 64 230 158 70 12 0 0 0 0
51 66 58 102 79 43 0 0 0 0 47 10 10 389 694 1439 1189 1104 816 576 853 798 694 198 3 0 35 573 483 574 363 147 56 9 0 0 2 1 12 16 60 96 6 0 0 0 0 0 0
25 60 84 111 86 53 34 17 0 3 1 10 0 2 838 1120 1037 641 382 125 316 638 657 305 19 24 7 8 52 197 217 213 10 2 0 0 6 4 7 47 39 15 1 0 0 0 0 0 0
65 70 105 94 31 7 1 0 0 0 11 7 7 1 671 951 390 361 189 45 99 205 567 423 45 385 77 4 2 0 5 6 4 2 0 0 2 2 3 0 1 0 0 0 0 0 0 0 0
52 65 87 43 0 21 0 2 0 0 4 33 46 27 491 397 206 142 94 55 76 99 259 539 117 381 379 34 13 0 0 0 5 3 0 0 0 0 0 0 0 0 0 0 0 0 0 0 0
37 55 82 33 0 0 3 0 0 0 61 20 8 374 533 434 226 105 45 8 0 3 160 546 400 84 458 357 74 8 0 0 0 0 0 0 0 0 0 0 0 0 0 0 0 0 0 0 0
34 49 0 25 17 14 0 0 8 11 30 62 132 444 432 404 201 66 23 0 0 2 36 411 441 199 106 494 254 219 67 6 0 0 0 0 0 0 0 2 1 0 0 0 0 0 0 0 0
18 0 0 2 0 4 0 0 0 9 0 41 183 311 322 368 132 3 0 2 1 6 9 455 432 242 2 11 330 546 341 271 177 61 61 13 2 3 57 145 54 48 36 21 23 7 3 4 21
0 0 0 0 0 1 0 0 9 15 25 70 298 231 412 346 101 14 32 25 31 52 64 366 342 389 206 55 15 47 436 587 457 396 364 198 159 73 136 304 182 126 111 96 64 18 19 31 60
0 0 0 0 0 0 0 0 0 17 50 83 324 496 467 342 216 135 135 118 58 22 62 627 597 413 422 507 335 184 79 101 147 426 707 533 369 250 300 505 464 332 192 193 176 112 34 62 108
0 0 0 0 0 0 0 0 0 5 28 90 147 383 436 250 225 193 213 153 79 31 6 302 392 386 487 615 605 555 442 458 301 234 216 231 294 417 420 559 558 501 429 304 323 291 132 258 577
0 0 0 0 0 0 0 0 0 0 23 19 19 120 273 280 194 105 146 161 97 65 83 98 35 391 453 478 486 462 459 556 546 705 541 535 395 575 799 672 713 603 646 646 275 227 271 448 378
0 0 0 0 0 0 0 0 0 0 11 20 6 26 53 110 228 88 211 217 94 23 32 95 51 96 556 445 391 334 277 319 468 605 575 566 447 487 448 481 461 408 374 302 226 191 327 250 124
2 7 22 18 0 0 0 0 0 0 2 11 25 9 27 17 104 162 338 313 133 13 43 92 108 151 198 354 263 354 311 340 415 307 222 179 76 315 336 291 240 196 195 169 208 147 144 49 101
18 42 33 36 0 0 0 0 0 0 3 15 80 19 17 30 48 49 233 389 156 206 294 139 92 125 196 161 261 244 250 184 219 148 116 47 65 69 213 287 269 182 109 103 107 96 118 123 154
41 50 0 0 0 0 0 0 0 0 0 5 12 26 0 3 32 15 2 56 190 193 294 135 240 129 113 76 26 132 225 155 141 49 11 15 50 54 88 148 203 157 125 154 185 167 216 158 162
45 58 0 0 0 0 0 0 0 0 0 2 4 8 4 0 0 3 13 30 44 78 165 220 349 255 181 72 65 164 178 191 21 4 0 19 65 74 160 132 216 158 154 200 220 255 219 229 303
40 99 58 47 10 0 0 0 0 0 0 0 0 4 21 6 0 0 0 14 20 12 14 170 247 356 311 231 226 294 222 132 26 81 60 97 145 156 123 73 104 156 160 400 166 230 269 325 282
34 17 72 82 0 0 0 0 0 0 0 0 0 0 0 0 2 0 0 0 6 0 0 0 1 157 570 667 563 609 441 444 341 375 334 253 245 215 158 189 199 211 422 306 280 302 299 395 215
9 9 14 0 10 11 0 0 0 0 0 0 0 0 0 0 0 8 0 10 9 1 0 0 0 25 167 619 602 589 554 563 517 408 348 361 279 304 249 251 272 374 302 196 237 302 198 45 19
28 0 0 0 0 7 8 0 0 0 0 0 0 0 0 0 0 11 26 28 13 3 0 0 2 4 59 317 398 537 385 412 524 421 409 408 281 230 356 234 383 280 230 236 345 105 64 67 97

GFSSGP_con_mucape_114.txt.gz
CAPE
6 0 92 17 106 77 0 0 0 0 0 0 0 3 70 196 286 329 1047 810 1401 1239 1084 1283 1550 1424 1393 1279 2086 2059 1925 1815 1543 1542 1351 918 762 935 817 386 64 419 479 10 339 303 144 12 98
10 7 96 56 6 0 0 0 0 0 0 0 0 0 37 139 624 749 1044 735 1426 1221 1089 954 1470 1450 1542 1448 2021 2093 2009 1747 1520 1505 1411 1327 1059 910 793 688 339 920 699 283 140 21 6 2 0
0 16 53 0 0 0 0 0 0 0 0 0 0 0 29 320 757 848 812 766 1323 1253 970 967 1412 1496 1656 1649 1741 2142 1995 1819 1530 1377 1121 1271 1319 988 792 819 673 569 840 551 129 5 2 1 0
14 23 75 0 0 0 0 0 0 0 0 0 0 20 263 1000 803 724 750 1016 1376 1259 1074 1183 1342 1468 1745 1690 1574 2066 1751 1854 1462 1206 1096 1186 1303 1158 1007 727 521 613 578 511 103 94 2 0 0
7 44 0 0 0 0 0 0 0 0 0 0 4 42 366 1108 838 819 814 1244 1352 1164 1155 1033 1325 1538 1705 1700 1471 1813 1635 1715 1521 1142 962 1119 1270 945 840 417 339 517 589 554 204 71 0 0 0
1 12 0 0 0 0 0 0 0 0 0 2 19 181 203 1134 1059 943 1066 1278 1218 1136 1109 837 1082 1213 1462 1654 1493 1641 1430 1506 1308 1017 1041 878 1030 818 581 277 409 390 416 430 154 13 0 0 0
0 0 0 0 0 0 0 0 0 0 3 0 6 13 766 1062 1112 986 1185 1264 1137 992 1307 617 675 1018 1359 1398 1356 1436 1271 1206 916 864 768 554 543 381 259 71 422 279 604 462 189 15 0 0 0
5 48 0 0 0 0 0 0 0 0 33 35 3 3 62 938 1095 1121 1085 1273 1083 928 1273 375 431 924 1040 1097 1296 1018 862 674 528 454 127 10 38 64 7 128 263 426 491 457 282 46 0 0 0
55 0 0 0 0 0 0 88 12 16 4 54 49 8 25 251 1033 1050 981 1101 1052 782 620 203 464 805 869 772 851 742 507 294 187 134 19 8 8 6 8 14 61 184 192 169 52 19 0 0 0
37 8 0 0 0 16 128 99 18 9 3 35 22 15 0 94 894 958 982 959 973 731 502 166 374 760 648 666 495 398 292 235 219 118 3 2 0 6 5 20 48 130 77 53 31 0 0 0 0
20 0 0 9 40 103 114 49 31 0 0 8 32 25 14 58 720 358 1025 873 753 671 497 167 161 650 513 343 316 287 253 243 169 210 0 0 1 4 13 15 56 19 0 0 0 0 0 0 0
2 10 2 26 37 100 37 4 0 0 0 0 0 0 0 36 6 994 886 537 513 377 323 348 4 519 456 357 279 284 211 244 4 0 0 0 0 2 1 1 13 11 0 0 0 0 0 0 0
24 1 15 21 20 48 10 0 0 0 0 0 0 0 0 0 0 889 755 460 289 88 9 7 0 79 328 382 311 272 502 134 0 0 0 0 0 0 0 0 2 0 0 0 0 0 0 0 0
49 43 26 32 12 5 0 0 0 0 0 0 0 0 0 0 0 225 667 319 98 0 20 30 34 3 25 102 88 152 132 12 0 0 0 0 0 0 0 0 0 0 0 0 0 0 0 0 0
32 41 42 34 27 0 0 0 0 0 0 2 4 67 30 0 0 279 464 177 161 81 54 28 74 44 0 0 3 59 9 0 0 0 0 0 0 0 0 0 0 0 0 0 0 0 0 0 0
4 13 0 4 1 0 0 0 0 13 0 38 9 29 26 95 112 83 197 120 62 11 0 3 67 68 94 0 0 0 0 0 0 0 0 0 0 0 0 0 0 0 0 0 0 0 0 0 0
0 0 0 0 0 0 0 0 0 0 6 2 0 3 34 71 111 71 114 43 19 0 0 1 43 62 128 61 0 3 0 0 0 0 0 0 0 0 0 0 0 0 0 0 0 0 0 0 1
0 0 0 0 0 0 0 0 0 0 0 2 1 3 177 286 140 71 70 11 0 0 0 29 36 76 126 113 41 106 30 10 0 0 0 0 0 0 0 75 31 20 29 16 14 3 4 5 6
0 0 0 0 0 0 0 0 0 0 5 0 0 104 262 161 114 63 88 47 1 0 0 0 4 74 120 113 103 147 46 119 130 184 167 53 27 22 95 188 139 103 87 92 75 41 12 7 44
0 0 0 0 1 0 0 0 0 0 6 9 18 107 244 185 139 180 97 51 16 34 18 11 76 114 122 88 68 171 227 266 318 325 378 289 176 144 151 276 302 247 169 180 179 167 55 32 98
0 0 0 0 5 0 0 0 0 0 0 30 45 203 221 244 337 304 228 105 55 19 20 19 34 109 203 254 288 287 261 278 244 303 371 364 341 355 289 295 319 304 289 284 272 228 154 123 141
0 0 0 0 0 0 0 0 0 0 4 24 29 288 393 315 250 197 106 75 85 11 44 58 2 65 132 328 317 305 297 278 298 332 332 293 299 312 355 365 413 369 319 293 224 205 132 149 99
0 0 0 0 0 0 0 0 2 0 0 24 14 42 255 279 241 87 48 92 40 16 26 7 3 30 7 165 254 316 335 337 408 422 359 339 315 314 304 288 274 222 212 281 168 111 90 93 98
0 1 0 8 17 0 0 0 0 0 4 13 35 17 50 124 197 76 29 129 49 0 2 6 18 32 68 60 120 116 170 164 213 298 271 209 138 132 242 239 186 170 148 177 173 169 144 108 120
18 16 0 0 0 0 0 0 0 0 5 3 26 41 23 50 91 107 101 254 143 9 10 71 22 17 94 63 99 87 143 128 170 175 141 116 101 94 102 170 184 176 123 117 132 143 123 104 110
0 19 0 0 0 0 0 0 0 0 0 5 13 28 21 5 9 32 72 342 90 63 99 169 124 20 9 61 92 123 176 107 168 151 91 71 58 71 59 81 57 68 94 94 122 134 123 200 186
6 20 0 0 2 0 3 0 0 0 0 0 0 17 2 2 4 15 25 22 27 56 144 195 117 39 38 98 82 62 86 163 96 45 24 61 48 30 22 39 80 81 102 138 149 158 154 248 276
21 7 0 0 0 0 0 0 0 0 0 0 0 0 0 10 11 6 4 2 6 11 18 164 188 188 136 133 82 72 71 112 135 131 144 54 27 76 95 115 58 48 84 130 144 192 160 198 192
0 0 0 0 0 0 0 0 1 0 0 0 0 0 0 0 0 2 2 0 0 12 18 7 74 155 148 174 161 156 142 107 161 146 57 21 38 78 118 65 48 44 69 155 135 138 207 289 289
0 0 0 0 0 0 0 0 0 0 0 0 0 0 0 0 0 0 3 0 0 11 41 1 0 7 65 318 388 405 473 492 364 349 328 278 493 265 201 302 271 217 345 152 162 236 206 433 210

GFSSGP_con_mucape_117.txt.gz
CAPE
0 0 0 0 1 0 0 0 0 0 0 0 0 0 1 0 158 101 880 965 1202 980 1273 1508 1764 1706 2071 2394 2285 1997 1850 1765 1307 1607 1607 1227 900 944 346 215 523 355 164 472 365 88 76 166 180
0 5 0 4 0 0 0 0 0 0 0 0 0 0 0 0 440 938 866 1295 1174 1017 1116 1250 1653 1642 1717 2312 2277 2032 1890 1676 1654 1680 1461 1465 1201 990 823 759 990 551 566 285 165 15 7 1 0
0 14 2 0 0 0 0 0 0 0 0 0 0 0 0 0 578 842 872 1357 1161 1068 923 1133 1610 1660 1571 2227 2192 1985 1855 1704 1689 1634 1329 1386 1272 1127 736 1000 823 839 536 264 8 5 0 0 0
0 4 11 0 0 0 0 0 0 0 0 0 0 0 0 654 751 845 1251 1279 1233 979 918 1312 1566 1710 1501 2063 2121 2027 1893 1697 1445 1507 1267 1375 1208 1346 1194 833 853 731 513 311 22 2 0 0 0
5 0 0 0 0 0 0 0 0 0 0 0 0 0 0 53 654 815 1285 1269 1183 872 1051 1134 1500 1663 1570 1787 2069 1953 1827 1666 1473 1424 1264 1395 1078 1159 698 821 767 703 561 246 17 0 0 0 0
0 0 0 0 0 0 0 0 0 0 0 0 0 0 0 483 818 1043 1259 1272 1140 1002 1037 1015 1256 1507 1485 1448 1997 1815 1773 1622 1432 1224 1174 1129 1150 937 594 692 632 702 525 201 17 0 0 0 0
0 0 0 0 0 0 0 0 0 0 0 0 0 0 0 163 600 1033 1172 1223 1213 1075 933 871 980 1201 1252 1097 1592 1485 1478 1369 1196 992 884 748 751 481 474 448 464 841 665 205 10 0 0 0 0
18 0 0 0 0 0 0 0 0 0 0 0 0 0 0 20 320 784 1068 1131 1143 1066 894 769 740 712 1021 901 1234 1103 1084 888 771 530 441 334 177 69 74 121 362 729 563 287 101 0 0 0 0
35 0 0 0 0 0 0 0 0 0 10 0 1 1 0 8 60 179 515 916 921 879 767 554 556 669 918 850 964 891 850 565 331 174 73 10 2 4 7 13 139 391 403 311 90 20 6 0 0
0 0 0 0 0 0 0 0 8 18 24 0 0 2 4 7 42 45 328 754 821 757 749 534 597 654 823 808 749 639 518 337 170 56 6 8 0 2 6 19 17 90 84 80 52 25 0 0 0
0 0 0 0 0 0 7 0 13 59 28 0 0 19 37 19 17 24 12 533 758 717 693 604 619 717 710 602 531 424 351 259 143 92 57 2 2 2 10 13 11 0 0 0 1 0 0 0 0
0 0 0 0 0 0 0 3 1 2 0 0 0 0 39 15 41 10 16 235 887 471 460 483 689 709 594 475 416 370 234 238 248 116 58 0 0 3 5 16 0 0 0 0 0 0 0 0 0
0 0 0 0 1 0 8 0 0 0 1 1 0 1 11 31 1 5 4 31 345 338 350 207 552 626 502 441 362 254 227 215 210 192 0 0 0 2 0 4 6 0 0 0 0 0 0 0 0
0 4 0 0 0 8 31 0 8 0 0 0 0 0 8 0 17 0 1 8 55 216 360 245 340 385 453 445 360 252 182 265 215 65 0 0 0 0 0 0 0 0 0 0 0 0 0 0 0
0 0 0 0 0 5 58 0 0 0 0 0 0 5 0 0 0 3 0 0 116 257 321 343 174 207 344 426 334 269 266 292 313 0 0 0 0 0 0 0 0 0 0 0 0 0 0 0 0
0 0 1 0 16 14 12 0 0 3 61 8 42 48 56 26 10 0 0 0 31 233 183 40 49 9 92 232 385 336 220 339 2 0 0 0 0 0 0 0 1 2 0 0 0 0 0 0 0
0 0 0 0 1 6 1 0 0 0 6 17 7 19 0 41 86 3 0 0 2 111 93 53 8 0 31 45 206 289 140 216 11 0 0 0 0 0 0 0 0 0 0 0 0 0 0 0 0
0 0 0 0 0 0 0 0 0 0 0 0 0 2 0 192 182 41 4 0 14 36 69 63 33 7 4 34 77 88 58 22 22 0 0 0 0 0 0 0 0 0 0 0 0 0 0 1 0
0 0 0 0 0 0 0 0 0 0 0 0 0 24 92 215 150 70 50 4 30 19 0 24 42 101 79 56 56 106 118 5 0 0 0 0 0 0 0 0 0 0 0 0 0 5 0 10 10
0 0 0 0 0 1 0 0 0 0 0 1 3 7 164 132 151 34 41 45 31 0 1 7 32 74 69 108 98 32 10 3 0 0 0 0 0 0 0 66 33 61 49 59 68 37 22 9 44
0 0 0 0 0 0 0 0 0 0 0 0 9 33 144 105 113 70 44 31 53 78 36 89 25 81 65 89 118 139 139 143 129 138 32 17 0 9 118 212 195 173 129 153 165 173 159 81 76
0 7 0 0 0 0 0 0 0 0 15 18 18 137 125 61 78 132 165 211 133 140 110 50 62 51 67 55 49 75 133 155 127 163 208 134 114 99 131 247 301 310 255 241 260 262 182 113 121
0 4 0 0 0 0 0 8 0 0 30 7 17 68 116 126 140 142 163 112 155 87 46 21 127 62 37 29 81 81 94 168 245 233 358 330 357 345 314 329 337 320 294 260 212 123 127 107 79
7 0 0 0 4 0 0 7 0 0 1 6 23 12 91 170 167 112 167 134 100 41 43 19 17 28 3 14 1 67 111 282 204 303 313 391 396 337 363 392 364 325 245 248 204 144 90 61 60
8 2 0 0 0 0 0 0 0 0 0 5 18 16 18 58 92 79 129 58 21 41 33 19 17 55 4 9 10 79 158 197 222 297 330 393 355 300 260 245 293 295 187 181 170 127 117 100 87
7 0 0 0 0 0 0 0 0 0 0 0 23 22 5 8 23 81 52 118 44 0 16 53 17 21 16 25 70 88 67 109 140 162 179 195 270 197 110 252 276 272 189 131 127 124 137 103 48
0 0 0 9 0 0 0 0 0 0 0 0 0 6 18 22 28 6 23 140 71 108 59 116 55 26 42 33 25 49 56 80 76 106 110 120 105 102 103 90 123 102 132 81 71 123 128 103 91
0 0 0 0 0 0 0 0 0 0 0 0 0 0 0 9 6 18 23 18 22 72 112 146 71 45 31 23 39 35 39 75 89 106 108 80 70 66 42 33 35 42 110 177 156 116 106 75 90
0 0 0 0 0 0 0 0 0 0 0 0 0 0 0 0 0 1 4 0 0 0 7 72 137 67 37 60 57 59 53 58 66 68 53 46 68 99 111 112 82 51 52 30 32 68 35 55 173
0 0 0 0 0 0 0 0 0 0 0 0 0 0 0 0 0 0 2 0 1 0 0 8 77 124 131 88 73 29 40 55 76 60 35 88 66 58 49 71 40 24 48 27 29 35 85 135 76